<?xml version="1.0" encoding="UTF-8" standalone="no" ?>
<gpx xmlns="http://www.topografix.com/GPX/1/1" xmlns:xsi="http://www.w3.org/2001/XMLSchema-instance" xsi:schemaLocation="http://www.topografix.com/GPX/1/1 http://www.topografix.com/GPX/1/1/gpx.xsd" version="1.1" creator="VisuGPX - https://www.visugpx.com">
  <metadata>
    <name>Sortie Robella</name>
    <desc><![CDATA[Pontarlier les Fourgs l'Auberson le Chasseron par la Robella et le col des étroits

]]></desc>
  </metadata>
  <trk>
    <name><![CDATA[Tracé 22 juin 2017 14:21:12]]></name>
    <trkseg>
      <trkpt lat="46.91331" lon="6.34543">
        <ele>820</ele>
        <time>2017-06-22T12:21:12Z</time>
      </trkpt>
      <trkpt lat="46.91331" lon="6.34543">
        <ele>820</ele>
        <time>2017-06-22T12:21:17Z</time>
      </trkpt>
      <trkpt lat="46.91337" lon="6.34554">
        <ele>802</ele>
        <time>2017-06-22T12:21:22Z</time>
      </trkpt>
      <trkpt lat="46.91326" lon="6.34574">
        <ele>824</ele>
        <time>2017-06-22T12:21:26Z</time>
      </trkpt>
      <trkpt lat="46.91305" lon="6.34572">
        <ele>825</ele>
        <time>2017-06-22T12:21:31Z</time>
      </trkpt>
      <trkpt lat="46.91292" lon="6.34569">
        <ele>825</ele>
        <time>2017-06-22T12:21:34Z</time>
      </trkpt>
      <trkpt lat="46.91272" lon="6.34564">
        <ele>826</ele>
        <time>2017-06-22T12:21:38Z</time>
      </trkpt>
      <trkpt lat="46.91247" lon="6.34552">
        <ele>827</ele>
        <time>2017-06-22T12:21:43Z</time>
      </trkpt>
      <trkpt lat="46.91227" lon="6.34542">
        <ele>827</ele>
        <time>2017-06-22T12:21:47Z</time>
      </trkpt>
      <trkpt lat="46.91206" lon="6.34531">
        <ele>827</ele>
        <time>2017-06-22T12:21:51Z</time>
      </trkpt>
      <trkpt lat="46.91179" lon="6.34517">
        <ele>826</ele>
        <time>2017-06-22T12:21:56Z</time>
      </trkpt>
      <trkpt lat="46.91152" lon="6.34504">
        <ele>825</ele>
        <time>2017-06-22T12:22:01Z</time>
      </trkpt>
      <trkpt lat="46.91131" lon="6.34493">
        <ele>825</ele>
        <time>2017-06-22T12:22:05Z</time>
      </trkpt>
      <trkpt lat="46.91105" lon="6.34479">
        <ele>826</ele>
        <time>2017-06-22T12:22:10Z</time>
      </trkpt>
      <trkpt lat="46.91076" lon="6.34464">
        <ele>825</ele>
        <time>2017-06-22T12:22:15Z</time>
      </trkpt>
      <trkpt lat="46.91051" lon="6.34452">
        <ele>824</ele>
        <time>2017-06-22T12:22:19Z</time>
      </trkpt>
      <trkpt lat="46.91028" lon="6.34439">
        <ele>823</ele>
        <time>2017-06-22T12:22:23Z</time>
      </trkpt>
      <trkpt lat="46.91005" lon="6.34429">
        <ele>821</ele>
        <time>2017-06-22T12:22:27Z</time>
      </trkpt>
      <trkpt lat="46.90981" lon="6.34416">
        <ele>822</ele>
        <time>2017-06-22T12:22:31Z</time>
      </trkpt>
      <trkpt lat="46.90951" lon="6.344">
        <ele>823</ele>
        <time>2017-06-22T12:22:36Z</time>
      </trkpt>
      <trkpt lat="46.90922" lon="6.34387">
        <ele>823</ele>
        <time>2017-06-22T12:22:41Z</time>
      </trkpt>
      <trkpt lat="46.90899" lon="6.34376">
        <ele>824</ele>
        <time>2017-06-22T12:22:45Z</time>
      </trkpt>
      <trkpt lat="46.90876" lon="6.34363">
        <ele>824</ele>
        <time>2017-06-22T12:22:49Z</time>
      </trkpt>
      <trkpt lat="46.90853" lon="6.34352">
        <ele>824</ele>
        <time>2017-06-22T12:22:53Z</time>
      </trkpt>
      <trkpt lat="46.90825" lon="6.34338">
        <ele>825</ele>
        <time>2017-06-22T12:22:58Z</time>
      </trkpt>
      <trkpt lat="46.90803" lon="6.34329">
        <ele>825</ele>
        <time>2017-06-22T12:23:02Z</time>
      </trkpt>
      <trkpt lat="46.90783" lon="6.34309">
        <ele>828</ele>
        <time>2017-06-22T12:23:06Z</time>
      </trkpt>
      <trkpt lat="46.90764" lon="6.34303">
        <ele>826</ele>
        <time>2017-06-22T12:23:10Z</time>
      </trkpt>
      <trkpt lat="46.90755" lon="6.3433">
        <ele>823</ele>
        <time>2017-06-22T12:23:15Z</time>
      </trkpt>
      <trkpt lat="46.90747" lon="6.34358">
        <ele>822</ele>
        <time>2017-06-22T12:23:20Z</time>
      </trkpt>
      <trkpt lat="46.90739" lon="6.34392">
        <ele>822</ele>
        <time>2017-06-22T12:23:25Z</time>
      </trkpt>
      <trkpt lat="46.90731" lon="6.34422">
        <ele>822</ele>
        <time>2017-06-22T12:23:29Z</time>
      </trkpt>
      <trkpt lat="46.90724" lon="6.34455">
        <ele>822</ele>
        <time>2017-06-22T12:23:33Z</time>
      </trkpt>
      <trkpt lat="46.90714" lon="6.34496">
        <ele>823</ele>
        <time>2017-06-22T12:23:38Z</time>
      </trkpt>
      <trkpt lat="46.90705" lon="6.34527">
        <ele>823</ele>
        <time>2017-06-22T12:23:42Z</time>
      </trkpt>
      <trkpt lat="46.90699" lon="6.34562">
        <ele>825</ele>
        <time>2017-06-22T12:23:46Z</time>
      </trkpt>
      <trkpt lat="46.90692" lon="6.34598">
        <ele>826</ele>
        <time>2017-06-22T12:23:50Z</time>
      </trkpt>
      <trkpt lat="46.90683" lon="6.3463">
        <ele>825</ele>
        <time>2017-06-22T12:23:54Z</time>
      </trkpt>
      <trkpt lat="46.90675" lon="6.34661">
        <ele>825</ele>
        <time>2017-06-22T12:23:58Z</time>
      </trkpt>
      <trkpt lat="46.90667" lon="6.34693">
        <ele>826</ele>
        <time>2017-06-22T12:24:03Z</time>
      </trkpt>
      <trkpt lat="46.90662" lon="6.34708">
        <ele>827</ele>
        <time>2017-06-22T12:24:06Z</time>
      </trkpt>
      <trkpt lat="46.90653" lon="6.34741">
        <ele>827</ele>
        <time>2017-06-22T12:24:11Z</time>
      </trkpt>
      <trkpt lat="46.90641" lon="6.34782">
        <ele>828</ele>
        <time>2017-06-22T12:24:16Z</time>
      </trkpt>
      <trkpt lat="46.90634" lon="6.34816">
        <ele>827</ele>
        <time>2017-06-22T12:24:20Z</time>
      </trkpt>
      <trkpt lat="46.90625" lon="6.34849">
        <ele>827</ele>
        <time>2017-06-22T12:24:24Z</time>
      </trkpt>
      <trkpt lat="46.90612" lon="6.34881">
        <ele>827</ele>
        <time>2017-06-22T12:24:28Z</time>
      </trkpt>
      <trkpt lat="46.90598" lon="6.34913">
        <ele>826</ele>
        <time>2017-06-22T12:24:32Z</time>
      </trkpt>
      <trkpt lat="46.90584" lon="6.34945">
        <ele>827</ele>
        <time>2017-06-22T12:24:36Z</time>
      </trkpt>
      <trkpt lat="46.9057" lon="6.34988">
        <ele>827</ele>
        <time>2017-06-22T12:24:41Z</time>
      </trkpt>
      <trkpt lat="46.90558" lon="6.35022">
        <ele>829</ele>
        <time>2017-06-22T12:24:45Z</time>
      </trkpt>
      <trkpt lat="46.90543" lon="6.35054">
        <ele>829</ele>
        <time>2017-06-22T12:24:49Z</time>
      </trkpt>
      <trkpt lat="46.90529" lon="6.35097">
        <ele>829</ele>
        <time>2017-06-22T12:24:54Z</time>
      </trkpt>
      <trkpt lat="46.90509" lon="6.35139">
        <ele>830</ele>
        <time>2017-06-22T12:24:59Z</time>
      </trkpt>
      <trkpt lat="46.90494" lon="6.3518">
        <ele>829</ele>
        <time>2017-06-22T12:25:03Z</time>
      </trkpt>
      <trkpt lat="46.90481" lon="6.35212">
        <ele>829</ele>
        <time>2017-06-22T12:25:08Z</time>
      </trkpt>
      <trkpt lat="46.90458" lon="6.35226">
        <ele>829</ele>
        <time>2017-06-22T12:25:12Z</time>
      </trkpt>
      <trkpt lat="46.90431" lon="6.35217">
        <ele>828</ele>
        <time>2017-06-22T12:25:16Z</time>
      </trkpt>
      <trkpt lat="46.90401" lon="6.35207">
        <ele>825</ele>
        <time>2017-06-22T12:25:21Z</time>
      </trkpt>
      <trkpt lat="46.90385" lon="6.35206">
        <ele>827</ele>
        <time>2017-06-22T12:25:25Z</time>
      </trkpt>
      <trkpt lat="46.9038" lon="6.35214">
        <ele>829</ele>
        <time>2017-06-22T12:25:32Z</time>
      </trkpt>
      <trkpt lat="46.90376" lon="6.35233">
        <ele>831</ele>
        <time>2017-06-22T12:25:36Z</time>
      </trkpt>
      <trkpt lat="46.90358" lon="6.35254">
        <ele>833</ele>
        <time>2017-06-22T12:25:41Z</time>
      </trkpt>
      <trkpt lat="46.90341" lon="6.35275">
        <ele>832</ele>
        <time>2017-06-22T12:25:45Z</time>
      </trkpt>
      <trkpt lat="46.90327" lon="6.35296">
        <ele>835</ele>
        <time>2017-06-22T12:25:49Z</time>
      </trkpt>
      <trkpt lat="46.90313" lon="6.35323">
        <ele>837</ele>
        <time>2017-06-22T12:25:54Z</time>
      </trkpt>
      <trkpt lat="46.90294" lon="6.35348">
        <ele>837</ele>
        <time>2017-06-22T12:25:59Z</time>
      </trkpt>
      <trkpt lat="46.90279" lon="6.3537">
        <ele>837</ele>
        <time>2017-06-22T12:26:03Z</time>
      </trkpt>
      <trkpt lat="46.90265" lon="6.35394">
        <ele>837</ele>
        <time>2017-06-22T12:26:07Z</time>
      </trkpt>
      <trkpt lat="46.90246" lon="6.35419">
        <ele>836</ele>
        <time>2017-06-22T12:26:11Z</time>
      </trkpt>
      <trkpt lat="46.90232" lon="6.35441">
        <ele>836</ele>
        <time>2017-06-22T12:26:16Z</time>
      </trkpt>
      <trkpt lat="46.90216" lon="6.35461">
        <ele>833</ele>
        <time>2017-06-22T12:26:21Z</time>
      </trkpt>
      <trkpt lat="46.90205" lon="6.35477">
        <ele>832</ele>
        <time>2017-06-22T12:26:24Z</time>
      </trkpt>
      <trkpt lat="46.90191" lon="6.35496">
        <ele>834</ele>
        <time>2017-06-22T12:26:29Z</time>
      </trkpt>
      <trkpt lat="46.90188" lon="6.35502">
        <ele>832</ele>
        <time>2017-06-22T12:26:34Z</time>
      </trkpt>
      <trkpt lat="46.90178" lon="6.35516">
        <ele>832</ele>
        <time>2017-06-22T12:26:39Z</time>
      </trkpt>
      <trkpt lat="46.90165" lon="6.3554">
        <ele>833</ele>
        <time>2017-06-22T12:26:43Z</time>
      </trkpt>
      <trkpt lat="46.90149" lon="6.35562">
        <ele>833</ele>
        <time>2017-06-22T12:26:47Z</time>
      </trkpt>
      <trkpt lat="46.90136" lon="6.35588">
        <ele>833</ele>
        <time>2017-06-22T12:26:51Z</time>
      </trkpt>
      <trkpt lat="46.90118" lon="6.35607">
        <ele>833</ele>
        <time>2017-06-22T12:26:55Z</time>
      </trkpt>
      <trkpt lat="46.90105" lon="6.35621">
        <ele>834</ele>
        <time>2017-06-22T12:26:58Z</time>
      </trkpt>
      <trkpt lat="46.90092" lon="6.35642">
        <ele>836</ele>
        <time>2017-06-22T12:27:02Z</time>
      </trkpt>
      <trkpt lat="46.90074" lon="6.35668">
        <ele>838</ele>
        <time>2017-06-22T12:27:07Z</time>
      </trkpt>
      <trkpt lat="46.90062" lon="6.35666">
        <ele>836</ele>
        <time>2017-06-22T12:27:11Z</time>
      </trkpt>
      <trkpt lat="46.90054" lon="6.35661">
        <ele>833</ele>
        <time>2017-06-22T12:28:16Z</time>
      </trkpt>
      <trkpt lat="46.90046" lon="6.35665">
        <ele>836</ele>
        <time>2017-06-22T12:28:21Z</time>
      </trkpt>
      <trkpt lat="46.90036" lon="6.35699">
        <ele>833</ele>
        <time>2017-06-22T12:28:25Z</time>
      </trkpt>
      <trkpt lat="46.90025" lon="6.35747">
        <ele>833</ele>
        <time>2017-06-22T12:28:30Z</time>
      </trkpt>
      <trkpt lat="46.90012" lon="6.3579">
        <ele>833</ele>
        <time>2017-06-22T12:28:34Z</time>
      </trkpt>
      <trkpt lat="46.89996" lon="6.35847">
        <ele>834</ele>
        <time>2017-06-22T12:28:39Z</time>
      </trkpt>
      <trkpt lat="46.89963" lon="6.35881">
        <ele>835</ele>
        <time>2017-06-22T12:28:44Z</time>
      </trkpt>
      <trkpt lat="46.89929" lon="6.35894">
        <ele>834</ele>
        <time>2017-06-22T12:28:48Z</time>
      </trkpt>
      <trkpt lat="46.89898" lon="6.35914">
        <ele>833</ele>
        <time>2017-06-22T12:28:52Z</time>
      </trkpt>
      <trkpt lat="46.89857" lon="6.35931">
        <ele>833</ele>
        <time>2017-06-22T12:28:57Z</time>
      </trkpt>
      <trkpt lat="46.89812" lon="6.35948">
        <ele>834</ele>
        <time>2017-06-22T12:29:02Z</time>
      </trkpt>
      <trkpt lat="46.89789" lon="6.3596">
        <ele>834</ele>
        <time>2017-06-22T12:29:05Z</time>
      </trkpt>
      <trkpt lat="46.89759" lon="6.35982">
        <ele>834</ele>
        <time>2017-06-22T12:29:09Z</time>
      </trkpt>
      <trkpt lat="46.89732" lon="6.36">
        <ele>834</ele>
        <time>2017-06-22T12:29:13Z</time>
      </trkpt>
      <trkpt lat="46.89702" lon="6.36024">
        <ele>836</ele>
        <time>2017-06-22T12:29:18Z</time>
      </trkpt>
      <trkpt lat="46.89674" lon="6.36044">
        <ele>837</ele>
        <time>2017-06-22T12:29:23Z</time>
      </trkpt>
      <trkpt lat="46.89654" lon="6.36064">
        <ele>838</ele>
        <time>2017-06-22T12:29:27Z</time>
      </trkpt>
      <trkpt lat="46.8963" lon="6.36093">
        <ele>840</ele>
        <time>2017-06-22T12:29:32Z</time>
      </trkpt>
      <trkpt lat="46.89612" lon="6.36126">
        <ele>842</ele>
        <time>2017-06-22T12:29:37Z</time>
      </trkpt>
      <trkpt lat="46.89595" lon="6.36161">
        <ele>842</ele>
        <time>2017-06-22T12:29:42Z</time>
      </trkpt>
      <trkpt lat="46.89581" lon="6.3619">
        <ele>841</ele>
        <time>2017-06-22T12:29:46Z</time>
      </trkpt>
      <trkpt lat="46.89562" lon="6.36227">
        <ele>841</ele>
        <time>2017-06-22T12:29:51Z</time>
      </trkpt>
      <trkpt lat="46.89546" lon="6.36264">
        <ele>841</ele>
        <time>2017-06-22T12:29:56Z</time>
      </trkpt>
      <trkpt lat="46.8953" lon="6.36291">
        <ele>841</ele>
        <time>2017-06-22T12:30:00Z</time>
      </trkpt>
      <trkpt lat="46.89508" lon="6.36324">
        <ele>844</ele>
        <time>2017-06-22T12:30:05Z</time>
      </trkpt>
      <trkpt lat="46.89492" lon="6.3635">
        <ele>839</ele>
        <time>2017-06-22T12:30:09Z</time>
      </trkpt>
      <trkpt lat="46.89473" lon="6.36379">
        <ele>842</ele>
        <time>2017-06-22T12:30:14Z</time>
      </trkpt>
      <trkpt lat="46.8945" lon="6.36409">
        <ele>843</ele>
        <time>2017-06-22T12:30:19Z</time>
      </trkpt>
      <trkpt lat="46.89428" lon="6.36422">
        <ele>842</ele>
        <time>2017-06-22T12:30:23Z</time>
      </trkpt>
      <trkpt lat="46.89401" lon="6.36441">
        <ele>842</ele>
        <time>2017-06-22T12:30:28Z</time>
      </trkpt>
      <trkpt lat="46.8937" lon="6.36456">
        <ele>842</ele>
        <time>2017-06-22T12:30:33Z</time>
      </trkpt>
      <trkpt lat="46.89337" lon="6.36471">
        <ele>844</ele>
        <time>2017-06-22T12:30:38Z</time>
      </trkpt>
      <trkpt lat="46.89317" lon="6.36479">
        <ele>844</ele>
        <time>2017-06-22T12:30:42Z</time>
      </trkpt>
      <trkpt lat="46.89294" lon="6.36483">
        <ele>845</ele>
        <time>2017-06-22T12:30:46Z</time>
      </trkpt>
      <trkpt lat="46.89269" lon="6.36487">
        <ele>846</ele>
        <time>2017-06-22T12:30:50Z</time>
      </trkpt>
      <trkpt lat="46.89244" lon="6.36488">
        <ele>847</ele>
        <time>2017-06-22T12:30:54Z</time>
      </trkpt>
      <trkpt lat="46.89213" lon="6.36494">
        <ele>849</ele>
        <time>2017-06-22T12:30:59Z</time>
      </trkpt>
      <trkpt lat="46.89187" lon="6.36497">
        <ele>850</ele>
        <time>2017-06-22T12:31:03Z</time>
      </trkpt>
      <trkpt lat="46.89158" lon="6.36496">
        <ele>850</ele>
        <time>2017-06-22T12:31:07Z</time>
      </trkpt>
      <trkpt lat="46.8913" lon="6.36497">
        <ele>850</ele>
        <time>2017-06-22T12:31:11Z</time>
      </trkpt>
      <trkpt lat="46.89102" lon="6.36498">
        <ele>850</ele>
        <time>2017-06-22T12:31:15Z</time>
      </trkpt>
      <trkpt lat="46.89068" lon="6.36497">
        <ele>848</ele>
        <time>2017-06-22T12:31:20Z</time>
      </trkpt>
      <trkpt lat="46.89032" lon="6.36499">
        <ele>848</ele>
        <time>2017-06-22T12:31:25Z</time>
      </trkpt>
      <trkpt lat="46.89005" lon="6.36502">
        <ele>847</ele>
        <time>2017-06-22T12:31:29Z</time>
      </trkpt>
      <trkpt lat="46.8897" lon="6.36506">
        <ele>849</ele>
        <time>2017-06-22T12:31:34Z</time>
      </trkpt>
      <trkpt lat="46.88936" lon="6.36508">
        <ele>850</ele>
        <time>2017-06-22T12:31:39Z</time>
      </trkpt>
      <trkpt lat="46.8891" lon="6.36512">
        <ele>851</ele>
        <time>2017-06-22T12:31:43Z</time>
      </trkpt>
      <trkpt lat="46.88884" lon="6.36515">
        <ele>851</ele>
        <time>2017-06-22T12:31:47Z</time>
      </trkpt>
      <trkpt lat="46.88857" lon="6.36518">
        <ele>851</ele>
        <time>2017-06-22T12:31:51Z</time>
      </trkpt>
      <trkpt lat="46.88829" lon="6.36519">
        <ele>852</ele>
        <time>2017-06-22T12:31:55Z</time>
      </trkpt>
      <trkpt lat="46.88803" lon="6.36523">
        <ele>854</ele>
        <time>2017-06-22T12:31:59Z</time>
      </trkpt>
      <trkpt lat="46.88771" lon="6.36523">
        <ele>855</ele>
        <time>2017-06-22T12:32:04Z</time>
      </trkpt>
      <trkpt lat="46.88743" lon="6.36516">
        <ele>854</ele>
        <time>2017-06-22T12:32:08Z</time>
      </trkpt>
      <trkpt lat="46.88716" lon="6.36513">
        <ele>854</ele>
        <time>2017-06-22T12:32:12Z</time>
      </trkpt>
      <trkpt lat="46.88682" lon="6.3651">
        <ele>856</ele>
        <time>2017-06-22T12:32:17Z</time>
      </trkpt>
      <trkpt lat="46.88648" lon="6.36507">
        <ele>855</ele>
        <time>2017-06-22T12:32:22Z</time>
      </trkpt>
      <trkpt lat="46.88619" lon="6.36503">
        <ele>857</ele>
        <time>2017-06-22T12:32:26Z</time>
      </trkpt>
      <trkpt lat="46.88592" lon="6.36503">
        <ele>859</ele>
        <time>2017-06-22T12:32:30Z</time>
      </trkpt>
      <trkpt lat="46.88565" lon="6.36504">
        <ele>859</ele>
        <time>2017-06-22T12:32:34Z</time>
      </trkpt>
      <trkpt lat="46.88545" lon="6.36502">
        <ele>862</ele>
        <time>2017-06-22T12:32:37Z</time>
      </trkpt>
      <trkpt lat="46.88513" lon="6.36496">
        <ele>856</ele>
        <time>2017-06-22T12:32:42Z</time>
      </trkpt>
      <trkpt lat="46.8848" lon="6.36492">
        <ele>859</ele>
        <time>2017-06-22T12:32:47Z</time>
      </trkpt>
      <trkpt lat="46.88455" lon="6.36489">
        <ele>859</ele>
        <time>2017-06-22T12:32:51Z</time>
      </trkpt>
      <trkpt lat="46.88423" lon="6.36489">
        <ele>860</ele>
        <time>2017-06-22T12:32:56Z</time>
      </trkpt>
      <trkpt lat="46.88389" lon="6.36488">
        <ele>860</ele>
        <time>2017-06-22T12:33:01Z</time>
      </trkpt>
      <trkpt lat="46.88363" lon="6.36486">
        <ele>857</ele>
        <time>2017-06-22T12:33:05Z</time>
      </trkpt>
      <trkpt lat="46.88326" lon="6.36483">
        <ele>857</ele>
        <time>2017-06-22T12:33:10Z</time>
      </trkpt>
      <trkpt lat="46.883" lon="6.36484">
        <ele>857</ele>
        <time>2017-06-22T12:33:14Z</time>
      </trkpt>
      <trkpt lat="46.88271" lon="6.36484">
        <ele>857</ele>
        <time>2017-06-22T12:33:18Z</time>
      </trkpt>
      <trkpt lat="46.88235" lon="6.36489">
        <ele>854</ele>
        <time>2017-06-22T12:33:23Z</time>
      </trkpt>
      <trkpt lat="46.882" lon="6.36502">
        <ele>856</ele>
        <time>2017-06-22T12:33:28Z</time>
      </trkpt>
      <trkpt lat="46.88172" lon="6.36515">
        <ele>851</ele>
        <time>2017-06-22T12:33:32Z</time>
      </trkpt>
      <trkpt lat="46.8815" lon="6.36538">
        <ele>853</ele>
        <time>2017-06-22T12:33:36Z</time>
      </trkpt>
      <trkpt lat="46.88122" lon="6.36573">
        <ele>855</ele>
        <time>2017-06-22T12:33:41Z</time>
      </trkpt>
      <trkpt lat="46.88101" lon="6.3662">
        <ele>856</ele>
        <time>2017-06-22T12:33:46Z</time>
      </trkpt>
      <trkpt lat="46.88089" lon="6.3666">
        <ele>855</ele>
        <time>2017-06-22T12:33:50Z</time>
      </trkpt>
      <trkpt lat="46.88079" lon="6.36701">
        <ele>855</ele>
        <time>2017-06-22T12:33:54Z</time>
      </trkpt>
      <trkpt lat="46.88073" lon="6.36745">
        <ele>855</ele>
        <time>2017-06-22T12:33:58Z</time>
      </trkpt>
      <trkpt lat="46.88071" lon="6.36788">
        <ele>856</ele>
        <time>2017-06-22T12:34:02Z</time>
      </trkpt>
      <trkpt lat="46.88071" lon="6.36833">
        <ele>857</ele>
        <time>2017-06-22T12:34:06Z</time>
      </trkpt>
      <trkpt lat="46.88075" lon="6.36881">
        <ele>858</ele>
        <time>2017-06-22T12:34:10Z</time>
      </trkpt>
      <trkpt lat="46.88082" lon="6.3693">
        <ele>860</ele>
        <time>2017-06-22T12:34:14Z</time>
      </trkpt>
      <trkpt lat="46.88082" lon="6.36997">
        <ele>859</ele>
        <time>2017-06-22T12:34:19Z</time>
      </trkpt>
      <trkpt lat="46.88074" lon="6.37065">
        <ele>858</ele>
        <time>2017-06-22T12:34:24Z</time>
      </trkpt>
      <trkpt lat="46.88065" lon="6.37113">
        <ele>857</ele>
        <time>2017-06-22T12:34:28Z</time>
      </trkpt>
      <trkpt lat="46.88055" lon="6.37158">
        <ele>858</ele>
        <time>2017-06-22T12:34:32Z</time>
      </trkpt>
      <trkpt lat="46.88038" lon="6.37196">
        <ele>857</ele>
        <time>2017-06-22T12:34:36Z</time>
      </trkpt>
      <trkpt lat="46.88015" lon="6.37237">
        <ele>856</ele>
        <time>2017-06-22T12:34:41Z</time>
      </trkpt>
      <trkpt lat="46.87997" lon="6.37263">
        <ele>856</ele>
        <time>2017-06-22T12:34:45Z</time>
      </trkpt>
      <trkpt lat="46.87975" lon="6.37295">
        <ele>855</ele>
        <time>2017-06-22T12:34:50Z</time>
      </trkpt>
      <trkpt lat="46.87958" lon="6.37321">
        <ele>855</ele>
        <time>2017-06-22T12:34:54Z</time>
      </trkpt>
      <trkpt lat="46.87939" lon="6.37344">
        <ele>857</ele>
        <time>2017-06-22T12:34:58Z</time>
      </trkpt>
      <trkpt lat="46.87911" lon="6.3737">
        <ele>856</ele>
        <time>2017-06-22T12:35:03Z</time>
      </trkpt>
      <trkpt lat="46.87885" lon="6.37383">
        <ele>854</ele>
        <time>2017-06-22T12:35:07Z</time>
      </trkpt>
      <trkpt lat="46.87859" lon="6.37395">
        <ele>857</ele>
        <time>2017-06-22T12:35:11Z</time>
      </trkpt>
      <trkpt lat="46.87833" lon="6.37408">
        <ele>855</ele>
        <time>2017-06-22T12:35:15Z</time>
      </trkpt>
      <trkpt lat="46.87802" lon="6.37426">
        <ele>857</ele>
        <time>2017-06-22T12:35:20Z</time>
      </trkpt>
      <trkpt lat="46.87776" lon="6.37441">
        <ele>856</ele>
        <time>2017-06-22T12:35:24Z</time>
      </trkpt>
      <trkpt lat="46.87752" lon="6.37458">
        <ele>858</ele>
        <time>2017-06-22T12:35:28Z</time>
      </trkpt>
      <trkpt lat="46.87719" lon="6.37478">
        <ele>859</ele>
        <time>2017-06-22T12:35:33Z</time>
      </trkpt>
      <trkpt lat="46.8768" lon="6.37499">
        <ele>858</ele>
        <time>2017-06-22T12:35:38Z</time>
      </trkpt>
      <trkpt lat="46.8765" lon="6.37507">
        <ele>856</ele>
        <time>2017-06-22T12:35:42Z</time>
      </trkpt>
      <trkpt lat="46.87621" lon="6.37515">
        <ele>857</ele>
        <time>2017-06-22T12:35:46Z</time>
      </trkpt>
      <trkpt lat="46.87592" lon="6.37523">
        <ele>857</ele>
        <time>2017-06-22T12:35:51Z</time>
      </trkpt>
      <trkpt lat="46.87569" lon="6.3754">
        <ele>856</ele>
        <time>2017-06-22T12:35:55Z</time>
      </trkpt>
      <trkpt lat="46.8754" lon="6.37567">
        <ele>858</ele>
        <time>2017-06-22T12:36:00Z</time>
      </trkpt>
      <trkpt lat="46.8752" lon="6.37592">
        <ele>858</ele>
        <time>2017-06-22T12:36:04Z</time>
      </trkpt>
      <trkpt lat="46.87495" lon="6.37622">
        <ele>855</ele>
        <time>2017-06-22T12:36:09Z</time>
      </trkpt>
      <trkpt lat="46.87471" lon="6.37642">
        <ele>854</ele>
        <time>2017-06-22T12:36:13Z</time>
      </trkpt>
      <trkpt lat="46.87437" lon="6.37663">
        <ele>855</ele>
        <time>2017-06-22T12:36:18Z</time>
      </trkpt>
      <trkpt lat="46.87402" lon="6.37681">
        <ele>856</ele>
        <time>2017-06-22T12:36:23Z</time>
      </trkpt>
      <trkpt lat="46.87369" lon="6.37699">
        <ele>853</ele>
        <time>2017-06-22T12:36:27Z</time>
      </trkpt>
      <trkpt lat="46.87338" lon="6.37713">
        <ele>850</ele>
        <time>2017-06-22T12:36:31Z</time>
      </trkpt>
      <trkpt lat="46.87296" lon="6.37738">
        <ele>852</ele>
        <time>2017-06-22T12:36:36Z</time>
      </trkpt>
      <trkpt lat="46.87251" lon="6.37755">
        <ele>856</ele>
        <time>2017-06-22T12:36:41Z</time>
      </trkpt>
      <trkpt lat="46.87215" lon="6.37752">
        <ele>859</ele>
        <time>2017-06-22T12:36:45Z</time>
      </trkpt>
      <trkpt lat="46.87181" lon="6.37742">
        <ele>860</ele>
        <time>2017-06-22T12:36:49Z</time>
      </trkpt>
      <trkpt lat="46.87149" lon="6.37735">
        <ele>862</ele>
        <time>2017-06-22T12:36:53Z</time>
      </trkpt>
      <trkpt lat="46.87109" lon="6.37726">
        <ele>863</ele>
        <time>2017-06-22T12:36:58Z</time>
      </trkpt>
      <trkpt lat="46.87071" lon="6.37712">
        <ele>862</ele>
        <time>2017-06-22T12:37:03Z</time>
      </trkpt>
      <trkpt lat="46.87041" lon="6.37691">
        <ele>860</ele>
        <time>2017-06-22T12:37:07Z</time>
      </trkpt>
      <trkpt lat="46.87013" lon="6.37667">
        <ele>862</ele>
        <time>2017-06-22T12:37:11Z</time>
      </trkpt>
      <trkpt lat="46.8698" lon="6.37633">
        <ele>862</ele>
        <time>2017-06-22T12:37:16Z</time>
      </trkpt>
      <trkpt lat="46.86955" lon="6.37607">
        <ele>861</ele>
        <time>2017-06-22T12:37:20Z</time>
      </trkpt>
      <trkpt lat="46.86924" lon="6.37578">
        <ele>860</ele>
        <time>2017-06-22T12:37:25Z</time>
      </trkpt>
      <trkpt lat="46.86901" lon="6.37556">
        <ele>861</ele>
        <time>2017-06-22T12:37:29Z</time>
      </trkpt>
      <trkpt lat="46.86877" lon="6.37533">
        <ele>861</ele>
        <time>2017-06-22T12:37:33Z</time>
      </trkpt>
      <trkpt lat="46.86853" lon="6.37509">
        <ele>862</ele>
        <time>2017-06-22T12:37:37Z</time>
      </trkpt>
      <trkpt lat="46.8682" lon="6.37478">
        <ele>862</ele>
        <time>2017-06-22T12:37:42Z</time>
      </trkpt>
      <trkpt lat="46.86795" lon="6.37453">
        <ele>862</ele>
        <time>2017-06-22T12:37:46Z</time>
      </trkpt>
      <trkpt lat="46.86771" lon="6.37431">
        <ele>862</ele>
        <time>2017-06-22T12:37:50Z</time>
      </trkpt>
      <trkpt lat="46.86746" lon="6.37407">
        <ele>860</ele>
        <time>2017-06-22T12:37:55Z</time>
      </trkpt>
      <trkpt lat="46.86714" lon="6.37376">
        <ele>861</ele>
        <time>2017-06-22T12:37:59Z</time>
      </trkpt>
      <trkpt lat="46.86679" lon="6.37356">
        <ele>862</ele>
        <time>2017-06-22T12:38:04Z</time>
      </trkpt>
      <trkpt lat="46.86672" lon="6.37354">
        <ele>863</ele>
        <time>2017-06-22T12:38:05Z</time>
      </trkpt>
      <trkpt lat="46.86637" lon="6.37342">
        <ele>865</ele>
        <time>2017-06-22T12:38:10Z</time>
      </trkpt>
      <trkpt lat="46.86602" lon="6.3733">
        <ele>866</ele>
        <time>2017-06-22T12:38:15Z</time>
      </trkpt>
      <trkpt lat="46.86574" lon="6.37319">
        <ele>864</ele>
        <time>2017-06-22T12:38:19Z</time>
      </trkpt>
      <trkpt lat="46.86538" lon="6.37306">
        <ele>866</ele>
        <time>2017-06-22T12:38:24Z</time>
      </trkpt>
      <trkpt lat="46.86511" lon="6.37295">
        <ele>867</ele>
        <time>2017-06-22T12:38:28Z</time>
      </trkpt>
      <trkpt lat="46.86483" lon="6.37284">
        <ele>868</ele>
        <time>2017-06-22T12:38:32Z</time>
      </trkpt>
      <trkpt lat="46.86449" lon="6.37271">
        <ele>869</ele>
        <time>2017-06-22T12:38:37Z</time>
      </trkpt>
      <trkpt lat="46.86418" lon="6.3726">
        <ele>869</ele>
        <time>2017-06-22T12:38:41Z</time>
      </trkpt>
      <trkpt lat="46.8639" lon="6.3725">
        <ele>869</ele>
        <time>2017-06-22T12:38:45Z</time>
      </trkpt>
      <trkpt lat="46.86361" lon="6.37239">
        <ele>869</ele>
        <time>2017-06-22T12:38:49Z</time>
      </trkpt>
      <trkpt lat="46.86332" lon="6.3723">
        <ele>870</ele>
        <time>2017-06-22T12:38:53Z</time>
      </trkpt>
      <trkpt lat="46.86304" lon="6.3722">
        <ele>871</ele>
        <time>2017-06-22T12:38:57Z</time>
      </trkpt>
      <trkpt lat="46.86271" lon="6.37207">
        <ele>873</ele>
        <time>2017-06-22T12:39:02Z</time>
      </trkpt>
      <trkpt lat="46.86245" lon="6.37198">
        <ele>871</ele>
        <time>2017-06-22T12:39:06Z</time>
      </trkpt>
      <trkpt lat="46.86219" lon="6.37188">
        <ele>874</ele>
        <time>2017-06-22T12:39:10Z</time>
      </trkpt>
      <trkpt lat="46.86193" lon="6.37178">
        <ele>875</ele>
        <time>2017-06-22T12:39:14Z</time>
      </trkpt>
      <trkpt lat="46.86162" lon="6.37162">
        <ele>877</ele>
        <time>2017-06-22T12:39:19Z</time>
      </trkpt>
      <trkpt lat="46.86138" lon="6.37146">
        <ele>879</ele>
        <time>2017-06-22T12:39:23Z</time>
      </trkpt>
      <trkpt lat="46.86115" lon="6.37129">
        <ele>880</ele>
        <time>2017-06-22T12:39:27Z</time>
      </trkpt>
      <trkpt lat="46.86091" lon="6.37121">
        <ele>881</ele>
        <time>2017-06-22T12:39:31Z</time>
      </trkpt>
      <trkpt lat="46.8606" lon="6.37116">
        <ele>878</ele>
        <time>2017-06-22T12:39:36Z</time>
      </trkpt>
      <trkpt lat="46.86025" lon="6.37116">
        <ele>876</ele>
        <time>2017-06-22T12:39:41Z</time>
      </trkpt>
      <trkpt lat="46.85998" lon="6.37113">
        <ele>874</ele>
        <time>2017-06-22T12:39:45Z</time>
      </trkpt>
      <trkpt lat="46.85962" lon="6.37117">
        <ele>873</ele>
        <time>2017-06-22T12:39:50Z</time>
      </trkpt>
      <trkpt lat="46.85934" lon="6.37121">
        <ele>872</ele>
        <time>2017-06-22T12:39:54Z</time>
      </trkpt>
      <trkpt lat="46.85906" lon="6.37122">
        <ele>874</ele>
        <time>2017-06-22T12:39:59Z</time>
      </trkpt>
      <trkpt lat="46.85884" lon="6.37129">
        <ele>879</ele>
        <time>2017-06-22T12:40:03Z</time>
      </trkpt>
      <trkpt lat="46.8587" lon="6.37144">
        <ele>879</ele>
        <time>2017-06-22T12:40:06Z</time>
      </trkpt>
      <trkpt lat="46.85854" lon="6.37171">
        <ele>879</ele>
        <time>2017-06-22T12:40:10Z</time>
      </trkpt>
      <trkpt lat="46.85837" lon="6.372">
        <ele>879</ele>
        <time>2017-06-22T12:40:14Z</time>
      </trkpt>
      <trkpt lat="46.85843" lon="6.37242">
        <ele>880</ele>
        <time>2017-06-22T12:40:19Z</time>
      </trkpt>
      <trkpt lat="46.85858" lon="6.37284">
        <ele>881</ele>
        <time>2017-06-22T12:40:24Z</time>
      </trkpt>
      <trkpt lat="46.85867" lon="6.37314">
        <ele>882</ele>
        <time>2017-06-22T12:40:28Z</time>
      </trkpt>
      <trkpt lat="46.85879" lon="6.37348">
        <ele>884</ele>
        <time>2017-06-22T12:40:33Z</time>
      </trkpt>
      <trkpt lat="46.85887" lon="6.37381">
        <ele>885</ele>
        <time>2017-06-22T12:40:38Z</time>
      </trkpt>
      <trkpt lat="46.85894" lon="6.37408">
        <ele>886</ele>
        <time>2017-06-22T12:40:42Z</time>
      </trkpt>
      <trkpt lat="46.85901" lon="6.37434">
        <ele>887</ele>
        <time>2017-06-22T12:40:46Z</time>
      </trkpt>
      <trkpt lat="46.85912" lon="6.37467">
        <ele>887</ele>
        <time>2017-06-22T12:40:51Z</time>
      </trkpt>
      <trkpt lat="46.85923" lon="6.37491">
        <ele>887</ele>
        <time>2017-06-22T12:40:55Z</time>
      </trkpt>
      <trkpt lat="46.85938" lon="6.37517">
        <ele>887</ele>
        <time>2017-06-22T12:41:00Z</time>
      </trkpt>
      <trkpt lat="46.85951" lon="6.37549">
        <ele>889</ele>
        <time>2017-06-22T12:41:05Z</time>
      </trkpt>
      <trkpt lat="46.85957" lon="6.37581">
        <ele>890</ele>
        <time>2017-06-22T12:41:09Z</time>
      </trkpt>
      <trkpt lat="46.85963" lon="6.3761">
        <ele>891</ele>
        <time>2017-06-22T12:41:13Z</time>
      </trkpt>
      <trkpt lat="46.85973" lon="6.37642">
        <ele>893</ele>
        <time>2017-06-22T12:41:18Z</time>
      </trkpt>
      <trkpt lat="46.85989" lon="6.37663">
        <ele>895</ele>
        <time>2017-06-22T12:41:22Z</time>
      </trkpt>
      <trkpt lat="46.86007" lon="6.3768">
        <ele>895</ele>
        <time>2017-06-22T12:41:26Z</time>
      </trkpt>
      <trkpt lat="46.8603" lon="6.37694">
        <ele>896</ele>
        <time>2017-06-22T12:41:31Z</time>
      </trkpt>
      <trkpt lat="46.86052" lon="6.3771">
        <ele>898</ele>
        <time>2017-06-22T12:41:36Z</time>
      </trkpt>
      <trkpt lat="46.86075" lon="6.37726">
        <ele>900</ele>
        <time>2017-06-22T12:41:41Z</time>
      </trkpt>
      <trkpt lat="46.86091" lon="6.37741">
        <ele>901</ele>
        <time>2017-06-22T12:41:45Z</time>
      </trkpt>
      <trkpt lat="46.86106" lon="6.37759">
        <ele>902</ele>
        <time>2017-06-22T12:41:49Z</time>
      </trkpt>
      <trkpt lat="46.86127" lon="6.37782">
        <ele>902</ele>
        <time>2017-06-22T12:41:54Z</time>
      </trkpt>
      <trkpt lat="46.86146" lon="6.37798">
        <ele>903</ele>
        <time>2017-06-22T12:41:58Z</time>
      </trkpt>
      <trkpt lat="46.86169" lon="6.37818">
        <ele>905</ele>
        <time>2017-06-22T12:42:03Z</time>
      </trkpt>
      <trkpt lat="46.86187" lon="6.37835">
        <ele>907</ele>
        <time>2017-06-22T12:42:07Z</time>
      </trkpt>
      <trkpt lat="46.86203" lon="6.37854">
        <ele>908</ele>
        <time>2017-06-22T12:42:11Z</time>
      </trkpt>
      <trkpt lat="46.86224" lon="6.37869">
        <ele>909</ele>
        <time>2017-06-22T12:42:15Z</time>
      </trkpt>
      <trkpt lat="46.86251" lon="6.37888">
        <ele>912</ele>
        <time>2017-06-22T12:42:20Z</time>
      </trkpt>
      <trkpt lat="46.86264" lon="6.37911">
        <ele>913</ele>
        <time>2017-06-22T12:42:24Z</time>
      </trkpt>
      <trkpt lat="46.86273" lon="6.37957">
        <ele>917</ele>
        <time>2017-06-22T12:42:29Z</time>
      </trkpt>
      <trkpt lat="46.86267" lon="6.37996">
        <ele>912</ele>
        <time>2017-06-22T12:42:33Z</time>
      </trkpt>
      <trkpt lat="46.86256" lon="6.38031">
        <ele>909</ele>
        <time>2017-06-22T12:42:38Z</time>
      </trkpt>
      <trkpt lat="46.86239" lon="6.38057">
        <ele>909</ele>
        <time>2017-06-22T12:42:43Z</time>
      </trkpt>
      <trkpt lat="46.86223" lon="6.38073">
        <ele>910</ele>
        <time>2017-06-22T12:42:47Z</time>
      </trkpt>
      <trkpt lat="46.86203" lon="6.38078">
        <ele>911</ele>
        <time>2017-06-22T12:42:51Z</time>
      </trkpt>
      <trkpt lat="46.86178" lon="6.38081">
        <ele>912</ele>
        <time>2017-06-22T12:42:56Z</time>
      </trkpt>
      <trkpt lat="46.86158" lon="6.38078">
        <ele>910</ele>
        <time>2017-06-22T12:43:00Z</time>
      </trkpt>
      <trkpt lat="46.86135" lon="6.38076">
        <ele>910</ele>
        <time>2017-06-22T12:43:05Z</time>
      </trkpt>
      <trkpt lat="46.86116" lon="6.38074">
        <ele>912</ele>
        <time>2017-06-22T12:43:09Z</time>
      </trkpt>
      <trkpt lat="46.86095" lon="6.38076">
        <ele>912</ele>
        <time>2017-06-22T12:43:14Z</time>
      </trkpt>
      <trkpt lat="46.86077" lon="6.38081">
        <ele>911</ele>
        <time>2017-06-22T12:43:19Z</time>
      </trkpt>
      <trkpt lat="46.86064" lon="6.38089">
        <ele>912</ele>
        <time>2017-06-22T12:43:23Z</time>
      </trkpt>
      <trkpt lat="46.86049" lon="6.38096">
        <ele>913</ele>
        <time>2017-06-22T12:43:27Z</time>
      </trkpt>
      <trkpt lat="46.86029" lon="6.38101">
        <ele>911</ele>
        <time>2017-06-22T12:43:32Z</time>
      </trkpt>
      <trkpt lat="46.86012" lon="6.38097">
        <ele>916</ele>
        <time>2017-06-22T12:43:36Z</time>
      </trkpt>
      <trkpt lat="46.85995" lon="6.38085">
        <ele>915</ele>
        <time>2017-06-22T12:43:40Z</time>
      </trkpt>
      <trkpt lat="46.85977" lon="6.38068">
        <ele>914</ele>
        <time>2017-06-22T12:43:45Z</time>
      </trkpt>
      <trkpt lat="46.85963" lon="6.38053">
        <ele>919</ele>
        <time>2017-06-22T12:43:49Z</time>
      </trkpt>
      <trkpt lat="46.85952" lon="6.38036">
        <ele>923</ele>
        <time>2017-06-22T12:43:53Z</time>
      </trkpt>
      <trkpt lat="46.85937" lon="6.38014">
        <ele>927</ele>
        <time>2017-06-22T12:43:58Z</time>
      </trkpt>
      <trkpt lat="46.8592" lon="6.37996">
        <ele>927</ele>
        <time>2017-06-22T12:44:03Z</time>
      </trkpt>
      <trkpt lat="46.85907" lon="6.37983">
        <ele>928</ele>
        <time>2017-06-22T12:44:07Z</time>
      </trkpt>
      <trkpt lat="46.85892" lon="6.37971">
        <ele>922</ele>
        <time>2017-06-22T12:44:11Z</time>
      </trkpt>
      <trkpt lat="46.85876" lon="6.37968">
        <ele>927</ele>
        <time>2017-06-22T12:44:15Z</time>
      </trkpt>
      <trkpt lat="46.85855" lon="6.37963">
        <ele>934</ele>
        <time>2017-06-22T12:44:20Z</time>
      </trkpt>
      <trkpt lat="46.85833" lon="6.37959">
        <ele>933</ele>
        <time>2017-06-22T12:44:25Z</time>
      </trkpt>
      <trkpt lat="46.85812" lon="6.37946">
        <ele>934</ele>
        <time>2017-06-22T12:44:30Z</time>
      </trkpt>
      <trkpt lat="46.85797" lon="6.37929">
        <ele>934</ele>
        <time>2017-06-22T12:44:34Z</time>
      </trkpt>
      <trkpt lat="46.85783" lon="6.37904">
        <ele>940</ele>
        <time>2017-06-22T12:44:39Z</time>
      </trkpt>
      <trkpt lat="46.85771" lon="6.37883">
        <ele>944</ele>
        <time>2017-06-22T12:44:43Z</time>
      </trkpt>
      <trkpt lat="46.8577" lon="6.37856">
        <ele>948</ele>
        <time>2017-06-22T12:44:47Z</time>
      </trkpt>
      <trkpt lat="46.85771" lon="6.37824">
        <ele>949</ele>
        <time>2017-06-22T12:44:52Z</time>
      </trkpt>
      <trkpt lat="46.85768" lon="6.37799">
        <ele>953</ele>
        <time>2017-06-22T12:44:56Z</time>
      </trkpt>
      <trkpt lat="46.85763" lon="6.37774">
        <ele>961</ele>
        <time>2017-06-22T12:45:01Z</time>
      </trkpt>
      <trkpt lat="46.85762" lon="6.37752">
        <ele>962</ele>
        <time>2017-06-22T12:45:05Z</time>
      </trkpt>
      <trkpt lat="46.85768" lon="6.37716">
        <ele>970</ele>
        <time>2017-06-22T12:45:10Z</time>
      </trkpt>
      <trkpt lat="46.85778" lon="6.37672">
        <ele>967</ele>
        <time>2017-06-22T12:45:15Z</time>
      </trkpt>
      <trkpt lat="46.85771" lon="6.37652">
        <ele>965</ele>
        <time>2017-06-22T12:45:19Z</time>
      </trkpt>
      <trkpt lat="46.85761" lon="6.37635">
        <ele>966</ele>
        <time>2017-06-22T12:45:23Z</time>
      </trkpt>
      <trkpt lat="46.85746" lon="6.3762">
        <ele>962</ele>
        <time>2017-06-22T12:45:28Z</time>
      </trkpt>
      <trkpt lat="46.85727" lon="6.37616">
        <ele>961</ele>
        <time>2017-06-22T12:45:33Z</time>
      </trkpt>
      <trkpt lat="46.85709" lon="6.37629">
        <ele>961</ele>
        <time>2017-06-22T12:45:37Z</time>
      </trkpt>
      <trkpt lat="46.85693" lon="6.37612">
        <ele>965</ele>
        <time>2017-06-22T12:45:42Z</time>
      </trkpt>
      <trkpt lat="46.85677" lon="6.37607">
        <ele>971</ele>
        <time>2017-06-22T12:45:46Z</time>
      </trkpt>
      <trkpt lat="46.85661" lon="6.37602">
        <ele>971</ele>
        <time>2017-06-22T12:45:51Z</time>
      </trkpt>
      <trkpt lat="46.85644" lon="6.37603">
        <ele>972</ele>
        <time>2017-06-22T12:45:55Z</time>
      </trkpt>
      <trkpt lat="46.85627" lon="6.37598">
        <ele>979</ele>
        <time>2017-06-22T12:45:59Z</time>
      </trkpt>
      <trkpt lat="46.85603" lon="6.37597">
        <ele>979</ele>
        <time>2017-06-22T12:46:04Z</time>
      </trkpt>
      <trkpt lat="46.85585" lon="6.37598">
        <ele>977</ele>
        <time>2017-06-22T12:46:08Z</time>
      </trkpt>
      <trkpt lat="46.85569" lon="6.37608">
        <ele>978</ele>
        <time>2017-06-22T12:46:12Z</time>
      </trkpt>
      <trkpt lat="46.85552" lon="6.37618">
        <ele>977</ele>
        <time>2017-06-22T12:46:17Z</time>
      </trkpt>
      <trkpt lat="46.85533" lon="6.37628">
        <ele>968</ele>
        <time>2017-06-22T12:46:22Z</time>
      </trkpt>
      <trkpt lat="46.85512" lon="6.37647">
        <ele>965</ele>
        <time>2017-06-22T12:46:27Z</time>
      </trkpt>
      <trkpt lat="46.85499" lon="6.37656">
        <ele>956</ele>
        <time>2017-06-22T12:46:31Z</time>
      </trkpt>
      <trkpt lat="46.85484" lon="6.3767">
        <ele>961</ele>
        <time>2017-06-22T12:46:36Z</time>
      </trkpt>
      <trkpt lat="46.85464" lon="6.37682">
        <ele>906</ele>
        <time>2017-06-22T12:46:41Z</time>
      </trkpt>
      <trkpt lat="46.8545" lon="6.37692">
        <ele>932</ele>
        <time>2017-06-22T12:46:45Z</time>
      </trkpt>
      <trkpt lat="46.85435" lon="6.37698">
        <ele>947</ele>
        <time>2017-06-22T12:46:49Z</time>
      </trkpt>
      <trkpt lat="46.85418" lon="6.37704">
        <ele>957</ele>
        <time>2017-06-22T12:46:53Z</time>
      </trkpt>
      <trkpt lat="46.85401" lon="6.37715">
        <ele>960</ele>
        <time>2017-06-22T12:46:58Z</time>
      </trkpt>
      <trkpt lat="46.85391" lon="6.37734">
        <ele>956</ele>
        <time>2017-06-22T12:47:03Z</time>
      </trkpt>
      <trkpt lat="46.85379" lon="6.37748">
        <ele>958</ele>
        <time>2017-06-22T12:47:07Z</time>
      </trkpt>
      <trkpt lat="46.85361" lon="6.37758">
        <ele>963</ele>
        <time>2017-06-22T12:47:11Z</time>
      </trkpt>
      <trkpt lat="46.85338" lon="6.37771">
        <ele>963</ele>
        <time>2017-06-22T12:47:16Z</time>
      </trkpt>
      <trkpt lat="46.8531" lon="6.37782">
        <ele>968</ele>
        <time>2017-06-22T12:47:21Z</time>
      </trkpt>
      <trkpt lat="46.85294" lon="6.3779">
        <ele>973</ele>
        <time>2017-06-22T12:47:25Z</time>
      </trkpt>
      <trkpt lat="46.85279" lon="6.37795">
        <ele>973</ele>
        <time>2017-06-22T12:47:29Z</time>
      </trkpt>
      <trkpt lat="46.85258" lon="6.37804">
        <ele>974</ele>
        <time>2017-06-22T12:47:34Z</time>
      </trkpt>
      <trkpt lat="46.85239" lon="6.37816">
        <ele>975</ele>
        <time>2017-06-22T12:47:39Z</time>
      </trkpt>
      <trkpt lat="46.85221" lon="6.37831">
        <ele>979</ele>
        <time>2017-06-22T12:47:44Z</time>
      </trkpt>
      <trkpt lat="46.8521" lon="6.3784">
        <ele>981</ele>
        <time>2017-06-22T12:47:47Z</time>
      </trkpt>
      <trkpt lat="46.85195" lon="6.37849">
        <ele>982</ele>
        <time>2017-06-22T12:47:51Z</time>
      </trkpt>
      <trkpt lat="46.85173" lon="6.3785">
        <ele>985</ele>
        <time>2017-06-22T12:47:56Z</time>
      </trkpt>
      <trkpt lat="46.85153" lon="6.37845">
        <ele>984</ele>
        <time>2017-06-22T12:48:01Z</time>
      </trkpt>
      <trkpt lat="46.85136" lon="6.3784">
        <ele>985</ele>
        <time>2017-06-22T12:48:05Z</time>
      </trkpt>
      <trkpt lat="46.85119" lon="6.37839">
        <ele>989</ele>
        <time>2017-06-22T12:48:09Z</time>
      </trkpt>
      <trkpt lat="46.85099" lon="6.37847">
        <ele>993</ele>
        <time>2017-06-22T12:48:14Z</time>
      </trkpt>
      <trkpt lat="46.85079" lon="6.37861">
        <ele>996</ele>
        <time>2017-06-22T12:48:19Z</time>
      </trkpt>
      <trkpt lat="46.85064" lon="6.37875">
        <ele>998</ele>
        <time>2017-06-22T12:48:23Z</time>
      </trkpt>
      <trkpt lat="46.85047" lon="6.37893">
        <ele>1001</ele>
        <time>2017-06-22T12:48:28Z</time>
      </trkpt>
      <trkpt lat="46.85029" lon="6.37911">
        <ele>1004</ele>
        <time>2017-06-22T12:48:33Z</time>
      </trkpt>
      <trkpt lat="46.85015" lon="6.37926">
        <ele>1005</ele>
        <time>2017-06-22T12:48:37Z</time>
      </trkpt>
      <trkpt lat="46.85" lon="6.37939">
        <ele>1008</ele>
        <time>2017-06-22T12:48:41Z</time>
      </trkpt>
      <trkpt lat="46.84985" lon="6.37952">
        <ele>1010</ele>
        <time>2017-06-22T12:48:45Z</time>
      </trkpt>
      <trkpt lat="46.84968" lon="6.37961">
        <ele>1011</ele>
        <time>2017-06-22T12:48:49Z</time>
      </trkpt>
      <trkpt lat="46.84951" lon="6.37965">
        <ele>1012</ele>
        <time>2017-06-22T12:48:53Z</time>
      </trkpt>
      <trkpt lat="46.84928" lon="6.37964">
        <ele>1013</ele>
        <time>2017-06-22T12:48:58Z</time>
      </trkpt>
      <trkpt lat="46.84911" lon="6.37963">
        <ele>1013</ele>
        <time>2017-06-22T12:49:02Z</time>
      </trkpt>
      <trkpt lat="46.84894" lon="6.37963">
        <ele>1015</ele>
        <time>2017-06-22T12:49:06Z</time>
      </trkpt>
      <trkpt lat="46.84874" lon="6.37968">
        <ele>1018</ele>
        <time>2017-06-22T12:49:11Z</time>
      </trkpt>
      <trkpt lat="46.84857" lon="6.37971">
        <ele>1020</ele>
        <time>2017-06-22T12:49:15Z</time>
      </trkpt>
      <trkpt lat="46.84836" lon="6.37975">
        <ele>1021</ele>
        <time>2017-06-22T12:49:20Z</time>
      </trkpt>
      <trkpt lat="46.84819" lon="6.37977">
        <ele>1020</ele>
        <time>2017-06-22T12:49:24Z</time>
      </trkpt>
      <trkpt lat="46.84802" lon="6.37978">
        <ele>1022</ele>
        <time>2017-06-22T12:49:28Z</time>
      </trkpt>
      <trkpt lat="46.84784" lon="6.37979">
        <ele>1023</ele>
        <time>2017-06-22T12:49:32Z</time>
      </trkpt>
      <trkpt lat="46.84763" lon="6.3798">
        <ele>1025</ele>
        <time>2017-06-22T12:49:37Z</time>
      </trkpt>
      <trkpt lat="46.84742" lon="6.37982">
        <ele>1026</ele>
        <time>2017-06-22T12:49:42Z</time>
      </trkpt>
      <trkpt lat="46.84726" lon="6.37978">
        <ele>1027</ele>
        <time>2017-06-22T12:49:46Z</time>
      </trkpt>
      <trkpt lat="46.84714" lon="6.37981">
        <ele>1030</ele>
        <time>2017-06-22T12:49:49Z</time>
      </trkpt>
      <trkpt lat="46.84697" lon="6.37985">
        <ele>1031</ele>
        <time>2017-06-22T12:49:53Z</time>
      </trkpt>
      <trkpt lat="46.8468" lon="6.37994">
        <ele>1033</ele>
        <time>2017-06-22T12:49:57Z</time>
      </trkpt>
      <trkpt lat="46.84662" lon="6.3801">
        <ele>1033</ele>
        <time>2017-06-22T12:50:02Z</time>
      </trkpt>
      <trkpt lat="46.84648" lon="6.38025">
        <ele>1035</ele>
        <time>2017-06-22T12:50:06Z</time>
      </trkpt>
      <trkpt lat="46.84631" lon="6.38048">
        <ele>1037</ele>
        <time>2017-06-22T12:50:11Z</time>
      </trkpt>
      <trkpt lat="46.84621" lon="6.3806">
        <ele>1038</ele>
        <time>2017-06-22T12:50:14Z</time>
      </trkpt>
      <trkpt lat="46.84605" lon="6.38082">
        <ele>1041</ele>
        <time>2017-06-22T12:50:19Z</time>
      </trkpt>
      <trkpt lat="46.84592" lon="6.38108">
        <ele>1041</ele>
        <time>2017-06-22T12:50:24Z</time>
      </trkpt>
      <trkpt lat="46.84581" lon="6.38138">
        <ele>1043</ele>
        <time>2017-06-22T12:50:29Z</time>
      </trkpt>
      <trkpt lat="46.84573" lon="6.38162">
        <ele>1045</ele>
        <time>2017-06-22T12:50:33Z</time>
      </trkpt>
      <trkpt lat="46.84566" lon="6.38193">
        <ele>1048</ele>
        <time>2017-06-22T12:50:38Z</time>
      </trkpt>
      <trkpt lat="46.84562" lon="6.38225">
        <ele>1049</ele>
        <time>2017-06-22T12:50:43Z</time>
      </trkpt>
      <trkpt lat="46.84563" lon="6.38252">
        <ele>1049</ele>
        <time>2017-06-22T12:50:47Z</time>
      </trkpt>
      <trkpt lat="46.84567" lon="6.38272">
        <ele>1050</ele>
        <time>2017-06-22T12:50:50Z</time>
      </trkpt>
      <trkpt lat="46.8457" lon="6.38298">
        <ele>1051</ele>
        <time>2017-06-22T12:50:54Z</time>
      </trkpt>
      <trkpt lat="46.84575" lon="6.38329">
        <ele>1054</ele>
        <time>2017-06-22T12:50:59Z</time>
      </trkpt>
      <trkpt lat="46.84579" lon="6.38361">
        <ele>1055</ele>
        <time>2017-06-22T12:51:04Z</time>
      </trkpt>
      <trkpt lat="46.84582" lon="6.38386">
        <ele>1056</ele>
        <time>2017-06-22T12:51:08Z</time>
      </trkpt>
      <trkpt lat="46.84585" lon="6.38411">
        <ele>1057</ele>
        <time>2017-06-22T12:51:12Z</time>
      </trkpt>
      <trkpt lat="46.84587" lon="6.38437">
        <ele>1055</ele>
        <time>2017-06-22T12:51:16Z</time>
      </trkpt>
      <trkpt lat="46.84586" lon="6.3847">
        <ele>1056</ele>
        <time>2017-06-22T12:51:21Z</time>
      </trkpt>
      <trkpt lat="46.84582" lon="6.38496">
        <ele>1056</ele>
        <time>2017-06-22T12:51:25Z</time>
      </trkpt>
      <trkpt lat="46.84577" lon="6.3852">
        <ele>1058</ele>
        <time>2017-06-22T12:51:29Z</time>
      </trkpt>
      <trkpt lat="46.84566" lon="6.38548">
        <ele>1060</ele>
        <time>2017-06-22T12:51:34Z</time>
      </trkpt>
      <trkpt lat="46.84556" lon="6.3857">
        <ele>1061</ele>
        <time>2017-06-22T12:51:38Z</time>
      </trkpt>
      <trkpt lat="46.84547" lon="6.38593">
        <ele>1062</ele>
        <time>2017-06-22T12:51:42Z</time>
      </trkpt>
      <trkpt lat="46.84537" lon="6.38616">
        <ele>1063</ele>
        <time>2017-06-22T12:51:47Z</time>
      </trkpt>
      <trkpt lat="46.84525" lon="6.38645">
        <ele>1064</ele>
        <time>2017-06-22T12:51:51Z</time>
      </trkpt>
      <trkpt lat="46.84512" lon="6.3867">
        <ele>1066</ele>
        <time>2017-06-22T12:51:56Z</time>
      </trkpt>
      <trkpt lat="46.84501" lon="6.38689">
        <ele>1068</ele>
        <time>2017-06-22T12:52:00Z</time>
      </trkpt>
      <trkpt lat="46.84488" lon="6.38706">
        <ele>1070</ele>
        <time>2017-06-22T12:52:04Z</time>
      </trkpt>
      <trkpt lat="46.84473" lon="6.38722">
        <ele>1071</ele>
        <time>2017-06-22T12:52:08Z</time>
      </trkpt>
      <trkpt lat="46.84454" lon="6.38742">
        <ele>1072</ele>
        <time>2017-06-22T12:52:13Z</time>
      </trkpt>
      <trkpt lat="46.84439" lon="6.38756">
        <ele>1073</ele>
        <time>2017-06-22T12:52:17Z</time>
      </trkpt>
      <trkpt lat="46.84423" lon="6.3877">
        <ele>1074</ele>
        <time>2017-06-22T12:52:21Z</time>
      </trkpt>
      <trkpt lat="46.84409" lon="6.38786">
        <ele>1076</ele>
        <time>2017-06-22T12:52:25Z</time>
      </trkpt>
      <trkpt lat="46.84398" lon="6.388">
        <ele>1076</ele>
        <time>2017-06-22T12:52:28Z</time>
      </trkpt>
      <trkpt lat="46.84388" lon="6.38813">
        <ele>1078</ele>
        <time>2017-06-22T12:52:31Z</time>
      </trkpt>
      <trkpt lat="46.84372" lon="6.38838">
        <ele>1080</ele>
        <time>2017-06-22T12:52:36Z</time>
      </trkpt>
      <trkpt lat="46.84357" lon="6.38867">
        <ele>1080</ele>
        <time>2017-06-22T12:52:41Z</time>
      </trkpt>
      <trkpt lat="46.84346" lon="6.38885">
        <ele>1080</ele>
        <time>2017-06-22T12:52:44Z</time>
      </trkpt>
      <trkpt lat="46.8433" lon="6.38913">
        <ele>1067</ele>
        <time>2017-06-22T12:52:49Z</time>
      </trkpt>
      <trkpt lat="46.84317" lon="6.38935">
        <ele>1077</ele>
        <time>2017-06-22T12:52:53Z</time>
      </trkpt>
      <trkpt lat="46.84302" lon="6.38967">
        <ele>1081</ele>
        <time>2017-06-22T12:52:58Z</time>
      </trkpt>
      <trkpt lat="46.84286" lon="6.39003">
        <ele>1081</ele>
        <time>2017-06-22T12:53:03Z</time>
      </trkpt>
      <trkpt lat="46.84275" lon="6.39034">
        <ele>1083</ele>
        <time>2017-06-22T12:53:07Z</time>
      </trkpt>
      <trkpt lat="46.84264" lon="6.39067">
        <ele>1083</ele>
        <time>2017-06-22T12:53:11Z</time>
      </trkpt>
      <trkpt lat="46.84251" lon="6.39111">
        <ele>1083</ele>
        <time>2017-06-22T12:53:16Z</time>
      </trkpt>
      <trkpt lat="46.84242" lon="6.39149">
        <ele>1084</ele>
        <time>2017-06-22T12:53:20Z</time>
      </trkpt>
      <trkpt lat="46.84235" lon="6.39188">
        <ele>1084</ele>
        <time>2017-06-22T12:53:24Z</time>
      </trkpt>
      <trkpt lat="46.84229" lon="6.39225">
        <ele>1086</ele>
        <time>2017-06-22T12:53:28Z</time>
      </trkpt>
      <trkpt lat="46.84225" lon="6.39259">
        <ele>1088</ele>
        <time>2017-06-22T12:53:32Z</time>
      </trkpt>
      <trkpt lat="46.8422" lon="6.39302">
        <ele>1089</ele>
        <time>2017-06-22T12:53:37Z</time>
      </trkpt>
      <trkpt lat="46.84218" lon="6.39333">
        <ele>1090</ele>
        <time>2017-06-22T12:53:41Z</time>
      </trkpt>
      <trkpt lat="46.84213" lon="6.39366">
        <ele>1091</ele>
        <time>2017-06-22T12:53:45Z</time>
      </trkpt>
      <trkpt lat="46.84206" lon="6.39397">
        <ele>1092</ele>
        <time>2017-06-22T12:53:49Z</time>
      </trkpt>
      <trkpt lat="46.84187" lon="6.39434">
        <ele>1093</ele>
        <time>2017-06-22T12:53:54Z</time>
      </trkpt>
      <trkpt lat="46.84167" lon="6.39458">
        <ele>1093</ele>
        <time>2017-06-22T12:53:58Z</time>
      </trkpt>
      <trkpt lat="46.84148" lon="6.39471">
        <ele>1093</ele>
        <time>2017-06-22T12:54:01Z</time>
      </trkpt>
      <trkpt lat="46.84122" lon="6.39486">
        <ele>1092</ele>
        <time>2017-06-22T12:54:05Z</time>
      </trkpt>
      <trkpt lat="46.84095" lon="6.395">
        <ele>1091</ele>
        <time>2017-06-22T12:54:09Z</time>
      </trkpt>
      <trkpt lat="46.84064" lon="6.39514">
        <ele>1090</ele>
        <time>2017-06-22T12:54:13Z</time>
      </trkpt>
      <trkpt lat="46.84031" lon="6.3953">
        <ele>1088</ele>
        <time>2017-06-22T12:54:17Z</time>
      </trkpt>
      <trkpt lat="46.83998" lon="6.39545">
        <ele>1056</ele>
        <time>2017-06-22T12:54:21Z</time>
      </trkpt>
      <trkpt lat="46.83967" lon="6.39562">
        <ele>1080</ele>
        <time>2017-06-22T12:54:25Z</time>
      </trkpt>
      <trkpt lat="46.83929" lon="6.39587">
        <ele>1085</ele>
        <time>2017-06-22T12:54:30Z</time>
      </trkpt>
      <trkpt lat="46.839" lon="6.39611">
        <ele>1086</ele>
        <time>2017-06-22T12:54:34Z</time>
      </trkpt>
      <trkpt lat="46.83877" lon="6.39628">
        <ele>1087</ele>
        <time>2017-06-22T12:54:38Z</time>
      </trkpt>
      <trkpt lat="46.83832" lon="6.39659">
        <ele>1087</ele>
        <time>2017-06-22T12:54:43Z</time>
      </trkpt>
      <trkpt lat="46.83795" lon="6.39686">
        <ele>1087</ele>
        <time>2017-06-22T12:54:48Z</time>
      </trkpt>
      <trkpt lat="46.83758" lon="6.39713">
        <ele>1085</ele>
        <time>2017-06-22T12:54:53Z</time>
      </trkpt>
      <trkpt lat="46.8372" lon="6.39745">
        <ele>1086</ele>
        <time>2017-06-22T12:54:58Z</time>
      </trkpt>
      <trkpt lat="46.83691" lon="6.39772">
        <ele>1087</ele>
        <time>2017-06-22T12:55:02Z</time>
      </trkpt>
      <trkpt lat="46.83662" lon="6.39801">
        <ele>1087</ele>
        <time>2017-06-22T12:55:06Z</time>
      </trkpt>
      <trkpt lat="46.83635" lon="6.39833">
        <ele>1087</ele>
        <time>2017-06-22T12:55:10Z</time>
      </trkpt>
      <trkpt lat="46.83612" lon="6.39871">
        <ele>1088</ele>
        <time>2017-06-22T12:55:14Z</time>
      </trkpt>
      <trkpt lat="46.83591" lon="6.3991">
        <ele>1088</ele>
        <time>2017-06-22T12:55:18Z</time>
      </trkpt>
      <trkpt lat="46.83566" lon="6.39957">
        <ele>1088</ele>
        <time>2017-06-22T12:55:23Z</time>
      </trkpt>
      <trkpt lat="46.83549" lon="6.39995">
        <ele>1087</ele>
        <time>2017-06-22T12:55:27Z</time>
      </trkpt>
      <trkpt lat="46.8353" lon="6.40048">
        <ele>1086</ele>
        <time>2017-06-22T12:55:32Z</time>
      </trkpt>
      <trkpt lat="46.83517" lon="6.40091">
        <ele>1088</ele>
        <time>2017-06-22T12:55:36Z</time>
      </trkpt>
      <trkpt lat="46.83507" lon="6.40143">
        <ele>1088</ele>
        <time>2017-06-22T12:55:41Z</time>
      </trkpt>
      <trkpt lat="46.83501" lon="6.40185">
        <ele>1088</ele>
        <time>2017-06-22T12:55:45Z</time>
      </trkpt>
      <trkpt lat="46.8349" lon="6.40236">
        <ele>1089</ele>
        <time>2017-06-22T12:55:50Z</time>
      </trkpt>
      <trkpt lat="46.83473" lon="6.40284">
        <ele>1090</ele>
        <time>2017-06-22T12:55:55Z</time>
      </trkpt>
      <trkpt lat="46.8346" lon="6.40325">
        <ele>1091</ele>
        <time>2017-06-22T12:55:59Z</time>
      </trkpt>
      <trkpt lat="46.83448" lon="6.40363">
        <ele>1092</ele>
        <time>2017-06-22T12:56:03Z</time>
      </trkpt>
      <trkpt lat="46.83434" lon="6.40411">
        <ele>1095</ele>
        <time>2017-06-22T12:56:08Z</time>
      </trkpt>
      <trkpt lat="46.83417" lon="6.40459">
        <ele>1096</ele>
        <time>2017-06-22T12:56:13Z</time>
      </trkpt>
      <trkpt lat="46.83402" lon="6.4051">
        <ele>1096</ele>
        <time>2017-06-22T12:56:18Z</time>
      </trkpt>
      <trkpt lat="46.83392" lon="6.40551">
        <ele>1095</ele>
        <time>2017-06-22T12:56:22Z</time>
      </trkpt>
      <trkpt lat="46.83381" lon="6.40604">
        <ele>1094</ele>
        <time>2017-06-22T12:56:27Z</time>
      </trkpt>
      <trkpt lat="46.83371" lon="6.40646">
        <ele>1094</ele>
        <time>2017-06-22T12:56:31Z</time>
      </trkpt>
      <trkpt lat="46.83359" lon="6.40701">
        <ele>1095</ele>
        <time>2017-06-22T12:56:36Z</time>
      </trkpt>
      <trkpt lat="46.83355" lon="6.40721">
        <ele>1096</ele>
        <time>2017-06-22T12:56:38Z</time>
      </trkpt>
      <trkpt lat="46.83344" lon="6.40771">
        <ele>1097</ele>
        <time>2017-06-22T12:56:43Z</time>
      </trkpt>
      <trkpt lat="46.83334" lon="6.40818">
        <ele>1098</ele>
        <time>2017-06-22T12:56:48Z</time>
      </trkpt>
      <trkpt lat="46.83325" lon="6.40866">
        <ele>1098</ele>
        <time>2017-06-22T12:56:53Z</time>
      </trkpt>
      <trkpt lat="46.83317" lon="6.40907">
        <ele>1100</ele>
        <time>2017-06-22T12:56:58Z</time>
      </trkpt>
      <trkpt lat="46.83321" lon="6.40939">
        <ele>1102</ele>
        <time>2017-06-22T12:57:02Z</time>
      </trkpt>
      <trkpt lat="46.83329" lon="6.40977">
        <ele>1101</ele>
        <time>2017-06-22T12:57:07Z</time>
      </trkpt>
      <trkpt lat="46.8334" lon="6.41004">
        <ele>1103</ele>
        <time>2017-06-22T12:57:11Z</time>
      </trkpt>
      <trkpt lat="46.83346" lon="6.41033">
        <ele>1103</ele>
        <time>2017-06-22T12:57:15Z</time>
      </trkpt>
      <trkpt lat="46.83354" lon="6.41065">
        <ele>1103</ele>
        <time>2017-06-22T12:57:19Z</time>
      </trkpt>
      <trkpt lat="46.83356" lon="6.41072">
        <ele>1104</ele>
        <time>2017-06-22T12:57:20Z</time>
      </trkpt>
      <trkpt lat="46.83368" lon="6.41107">
        <ele>1103</ele>
        <time>2017-06-22T12:57:25Z</time>
      </trkpt>
      <trkpt lat="46.83374" lon="6.41138">
        <ele>1104</ele>
        <time>2017-06-22T12:57:29Z</time>
      </trkpt>
      <trkpt lat="46.83381" lon="6.41177">
        <ele>1103</ele>
        <time>2017-06-22T12:57:34Z</time>
      </trkpt>
      <trkpt lat="46.83393" lon="6.41216">
        <ele>1102</ele>
        <time>2017-06-22T12:57:39Z</time>
      </trkpt>
      <trkpt lat="46.83402" lon="6.41247">
        <ele>1105</ele>
        <time>2017-06-22T12:57:43Z</time>
      </trkpt>
      <trkpt lat="46.83413" lon="6.41275">
        <ele>1106</ele>
        <time>2017-06-22T12:57:47Z</time>
      </trkpt>
      <trkpt lat="46.8342" lon="6.4131">
        <ele>1109</ele>
        <time>2017-06-22T12:57:51Z</time>
      </trkpt>
      <trkpt lat="46.83431" lon="6.41349">
        <ele>1108</ele>
        <time>2017-06-22T12:57:56Z</time>
      </trkpt>
      <trkpt lat="46.8344" lon="6.41383">
        <ele>1111</ele>
        <time>2017-06-22T12:58:00Z</time>
      </trkpt>
      <trkpt lat="46.83447" lon="6.41413">
        <ele>1112</ele>
        <time>2017-06-22T12:58:04Z</time>
      </trkpt>
      <trkpt lat="46.83456" lon="6.41445">
        <ele>1112</ele>
        <time>2017-06-22T12:58:08Z</time>
      </trkpt>
      <trkpt lat="46.83468" lon="6.41485">
        <ele>1114</ele>
        <time>2017-06-22T12:58:13Z</time>
      </trkpt>
      <trkpt lat="46.83472" lon="6.41519">
        <ele>1114</ele>
        <time>2017-06-22T12:58:17Z</time>
      </trkpt>
      <trkpt lat="46.83469" lon="6.41551">
        <ele>1117</ele>
        <time>2017-06-22T12:58:21Z</time>
      </trkpt>
      <trkpt lat="46.8346" lon="6.41586">
        <ele>1118</ele>
        <time>2017-06-22T12:58:26Z</time>
      </trkpt>
      <trkpt lat="46.83448" lon="6.4162">
        <ele>1118</ele>
        <time>2017-06-22T12:58:31Z</time>
      </trkpt>
      <trkpt lat="46.83439" lon="6.41647">
        <ele>1118</ele>
        <time>2017-06-22T12:58:35Z</time>
      </trkpt>
      <trkpt lat="46.83428" lon="6.41675">
        <ele>1118</ele>
        <time>2017-06-22T12:58:39Z</time>
      </trkpt>
      <trkpt lat="46.8342" lon="6.41703">
        <ele>1118</ele>
        <time>2017-06-22T12:58:43Z</time>
      </trkpt>
      <trkpt lat="46.83413" lon="6.41734">
        <ele>1117</ele>
        <time>2017-06-22T12:58:47Z</time>
      </trkpt>
      <trkpt lat="46.83409" lon="6.41771">
        <ele>1120</ele>
        <time>2017-06-22T12:58:52Z</time>
      </trkpt>
      <trkpt lat="46.83408" lon="6.41811">
        <ele>1121</ele>
        <time>2017-06-22T12:58:57Z</time>
      </trkpt>
      <trkpt lat="46.83413" lon="6.41836">
        <ele>1122</ele>
        <time>2017-06-22T12:59:00Z</time>
      </trkpt>
      <trkpt lat="46.83418" lon="6.41879">
        <ele>1121</ele>
        <time>2017-06-22T12:59:05Z</time>
      </trkpt>
      <trkpt lat="46.83422" lon="6.41923">
        <ele>1120</ele>
        <time>2017-06-22T12:59:10Z</time>
      </trkpt>
      <trkpt lat="46.83421" lon="6.4196">
        <ele>1120</ele>
        <time>2017-06-22T12:59:14Z</time>
      </trkpt>
      <trkpt lat="46.83423" lon="6.41988">
        <ele>1118</ele>
        <time>2017-06-22T12:59:17Z</time>
      </trkpt>
      <trkpt lat="46.83427" lon="6.42023">
        <ele>1119</ele>
        <time>2017-06-22T12:59:21Z</time>
      </trkpt>
      <trkpt lat="46.83436" lon="6.42067">
        <ele>1119</ele>
        <time>2017-06-22T12:59:26Z</time>
      </trkpt>
      <trkpt lat="46.83443" lon="6.42102">
        <ele>1119</ele>
        <time>2017-06-22T12:59:30Z</time>
      </trkpt>
      <trkpt lat="46.83448" lon="6.42148">
        <ele>1121</ele>
        <time>2017-06-22T12:59:35Z</time>
      </trkpt>
      <trkpt lat="46.83451" lon="6.42176">
        <ele>1123</ele>
        <time>2017-06-22T12:59:38Z</time>
      </trkpt>
      <trkpt lat="46.83451" lon="6.42224">
        <ele>1125</ele>
        <time>2017-06-22T12:59:43Z</time>
      </trkpt>
      <trkpt lat="46.83445" lon="6.42273">
        <ele>1127</ele>
        <time>2017-06-22T12:59:48Z</time>
      </trkpt>
      <trkpt lat="46.83438" lon="6.42312">
        <ele>1129</ele>
        <time>2017-06-22T12:59:52Z</time>
      </trkpt>
      <trkpt lat="46.83427" lon="6.42358">
        <ele>1131</ele>
        <time>2017-06-22T12:59:57Z</time>
      </trkpt>
      <trkpt lat="46.83417" lon="6.42397">
        <ele>1132</ele>
        <time>2017-06-22T13:00:01Z</time>
      </trkpt>
      <trkpt lat="46.83404" lon="6.42442">
        <ele>1134</ele>
        <time>2017-06-22T13:00:06Z</time>
      </trkpt>
      <trkpt lat="46.83393" lon="6.42479">
        <ele>1134</ele>
        <time>2017-06-22T13:00:10Z</time>
      </trkpt>
      <trkpt lat="46.83375" lon="6.42522">
        <ele>1136</ele>
        <time>2017-06-22T13:00:15Z</time>
      </trkpt>
      <trkpt lat="46.8336" lon="6.42552">
        <ele>1137</ele>
        <time>2017-06-22T13:00:19Z</time>
      </trkpt>
      <trkpt lat="46.83336" lon="6.42586">
        <ele>1139</ele>
        <time>2017-06-22T13:00:24Z</time>
      </trkpt>
      <trkpt lat="46.83315" lon="6.42621">
        <ele>1141</ele>
        <time>2017-06-22T13:00:29Z</time>
      </trkpt>
      <trkpt lat="46.83302" lon="6.42645">
        <ele>1141</ele>
        <time>2017-06-22T13:00:32Z</time>
      </trkpt>
      <trkpt lat="46.83285" lon="6.42687">
        <ele>1141</ele>
        <time>2017-06-22T13:00:37Z</time>
      </trkpt>
      <trkpt lat="46.83267" lon="6.42731">
        <ele>1142</ele>
        <time>2017-06-22T13:00:42Z</time>
      </trkpt>
      <trkpt lat="46.83248" lon="6.42776">
        <ele>1142</ele>
        <time>2017-06-22T13:00:47Z</time>
      </trkpt>
      <trkpt lat="46.83233" lon="6.42811">
        <ele>1143</ele>
        <time>2017-06-22T13:00:51Z</time>
      </trkpt>
      <trkpt lat="46.83215" lon="6.42854">
        <ele>1144</ele>
        <time>2017-06-22T13:00:56Z</time>
      </trkpt>
      <trkpt lat="46.83201" lon="6.42889">
        <ele>1144</ele>
        <time>2017-06-22T13:01:00Z</time>
      </trkpt>
      <trkpt lat="46.83183" lon="6.42931">
        <ele>1145</ele>
        <time>2017-06-22T13:01:05Z</time>
      </trkpt>
      <trkpt lat="46.83165" lon="6.42975">
        <ele>1146</ele>
        <time>2017-06-22T13:01:10Z</time>
      </trkpt>
      <trkpt lat="46.83154" lon="6.43001">
        <ele>1146</ele>
        <time>2017-06-22T13:01:13Z</time>
      </trkpt>
      <trkpt lat="46.83137" lon="6.43042">
        <ele>1146</ele>
        <time>2017-06-22T13:01:18Z</time>
      </trkpt>
      <trkpt lat="46.83112" lon="6.43077">
        <ele>1147</ele>
        <time>2017-06-22T13:01:23Z</time>
      </trkpt>
      <trkpt lat="46.83095" lon="6.43092">
        <ele>1147</ele>
        <time>2017-06-22T13:01:26Z</time>
      </trkpt>
      <trkpt lat="46.83064" lon="6.43117">
        <ele>1147</ele>
        <time>2017-06-22T13:01:31Z</time>
      </trkpt>
      <trkpt lat="46.8304" lon="6.43136">
        <ele>1147</ele>
        <time>2017-06-22T13:01:35Z</time>
      </trkpt>
      <trkpt lat="46.83009" lon="6.43159">
        <ele>1146</ele>
        <time>2017-06-22T13:01:40Z</time>
      </trkpt>
      <trkpt lat="46.82984" lon="6.43177">
        <ele>1145</ele>
        <time>2017-06-22T13:01:44Z</time>
      </trkpt>
      <trkpt lat="46.82958" lon="6.43195">
        <ele>1146</ele>
        <time>2017-06-22T13:01:48Z</time>
      </trkpt>
      <trkpt lat="46.8293" lon="6.4321">
        <ele>1145</ele>
        <time>2017-06-22T13:01:52Z</time>
      </trkpt>
      <trkpt lat="46.82894" lon="6.4323">
        <ele>1144</ele>
        <time>2017-06-22T13:01:57Z</time>
      </trkpt>
      <trkpt lat="46.82855" lon="6.4325">
        <ele>1144</ele>
        <time>2017-06-22T13:02:02Z</time>
      </trkpt>
      <trkpt lat="46.82822" lon="6.43265">
        <ele>1142</ele>
        <time>2017-06-22T13:02:06Z</time>
      </trkpt>
      <trkpt lat="46.82783" lon="6.43299">
        <ele>1140</ele>
        <time>2017-06-22T13:02:11Z</time>
      </trkpt>
      <trkpt lat="46.82752" lon="6.4334">
        <ele>1138</ele>
        <time>2017-06-22T13:02:15Z</time>
      </trkpt>
      <trkpt lat="46.8271" lon="6.43398">
        <ele>1133</ele>
        <time>2017-06-22T13:02:20Z</time>
      </trkpt>
      <trkpt lat="46.82683" lon="6.43435">
        <ele>1130</ele>
        <time>2017-06-22T13:02:23Z</time>
      </trkpt>
      <trkpt lat="46.82642" lon="6.43505">
        <ele>1124</ele>
        <time>2017-06-22T13:02:28Z</time>
      </trkpt>
      <trkpt lat="46.82601" lon="6.4358">
        <ele>1123</ele>
        <time>2017-06-22T13:02:33Z</time>
      </trkpt>
      <trkpt lat="46.82561" lon="6.43631">
        <ele>1122</ele>
        <time>2017-06-22T13:02:37Z</time>
      </trkpt>
      <trkpt lat="46.82519" lon="6.43683">
        <ele>1120</ele>
        <time>2017-06-22T13:02:41Z</time>
      </trkpt>
      <trkpt lat="46.82485" lon="6.43735">
        <ele>1118</ele>
        <time>2017-06-22T13:02:45Z</time>
      </trkpt>
      <trkpt lat="46.82453" lon="6.4377">
        <ele>1117</ele>
        <time>2017-06-22T13:02:48Z</time>
      </trkpt>
      <trkpt lat="46.82418" lon="6.4383">
        <ele>1115</ele>
        <time>2017-06-22T13:02:52Z</time>
      </trkpt>
      <trkpt lat="46.82407" lon="6.43906">
        <ele>1111</ele>
        <time>2017-06-22T13:02:56Z</time>
      </trkpt>
      <trkpt lat="46.82403" lon="6.43967">
        <ele>1108</ele>
        <time>2017-06-22T13:03:00Z</time>
      </trkpt>
      <trkpt lat="46.82374" lon="6.44002">
        <ele>1108</ele>
        <time>2017-06-22T13:03:04Z</time>
      </trkpt>
      <trkpt lat="46.82337" lon="6.44022">
        <ele>1105</ele>
        <time>2017-06-22T13:03:08Z</time>
      </trkpt>
      <trkpt lat="46.82285" lon="6.44025">
        <ele>1104</ele>
        <time>2017-06-22T13:03:13Z</time>
      </trkpt>
      <trkpt lat="46.82241" lon="6.44023">
        <ele>1103</ele>
        <time>2017-06-22T13:03:17Z</time>
      </trkpt>
      <trkpt lat="46.82198" lon="6.44021">
        <ele>1104</ele>
        <time>2017-06-22T13:03:21Z</time>
      </trkpt>
      <trkpt lat="46.82147" lon="6.4402">
        <ele>1102</ele>
        <time>2017-06-22T13:03:26Z</time>
      </trkpt>
      <trkpt lat="46.82107" lon="6.44023">
        <ele>1103</ele>
        <time>2017-06-22T13:03:30Z</time>
      </trkpt>
      <trkpt lat="46.82061" lon="6.44037">
        <ele>1103</ele>
        <time>2017-06-22T13:03:35Z</time>
      </trkpt>
      <trkpt lat="46.82022" lon="6.44058">
        <ele>1104</ele>
        <time>2017-06-22T13:03:40Z</time>
      </trkpt>
      <trkpt lat="46.81992" lon="6.44082">
        <ele>1105</ele>
        <time>2017-06-22T13:03:45Z</time>
      </trkpt>
      <trkpt lat="46.81972" lon="6.44103">
        <ele>1107</ele>
        <time>2017-06-22T13:03:49Z</time>
      </trkpt>
      <trkpt lat="46.81959" lon="6.44131">
        <ele>1108</ele>
        <time>2017-06-22T13:03:53Z</time>
      </trkpt>
      <trkpt lat="46.81949" lon="6.44167">
        <ele>1107</ele>
        <time>2017-06-22T13:03:58Z</time>
      </trkpt>
      <trkpt lat="46.81941" lon="6.44208">
        <ele>1106</ele>
        <time>2017-06-22T13:04:03Z</time>
      </trkpt>
      <trkpt lat="46.81935" lon="6.44253">
        <ele>1105</ele>
        <time>2017-06-22T13:04:08Z</time>
      </trkpt>
      <trkpt lat="46.81929" lon="6.44289">
        <ele>1105</ele>
        <time>2017-06-22T13:04:12Z</time>
      </trkpt>
      <trkpt lat="46.81919" lon="6.44333">
        <ele>1104</ele>
        <time>2017-06-22T13:04:17Z</time>
      </trkpt>
      <trkpt lat="46.81911" lon="6.4437">
        <ele>1106</ele>
        <time>2017-06-22T13:04:21Z</time>
      </trkpt>
      <trkpt lat="46.81901" lon="6.44415">
        <ele>1107</ele>
        <time>2017-06-22T13:04:26Z</time>
      </trkpt>
      <trkpt lat="46.81894" lon="6.44454">
        <ele>1108</ele>
        <time>2017-06-22T13:04:30Z</time>
      </trkpt>
      <trkpt lat="46.81887" lon="6.4449">
        <ele>1109</ele>
        <time>2017-06-22T13:04:34Z</time>
      </trkpt>
      <trkpt lat="46.8188" lon="6.44528">
        <ele>1110</ele>
        <time>2017-06-22T13:04:38Z</time>
      </trkpt>
      <trkpt lat="46.81868" lon="6.44574">
        <ele>1112</ele>
        <time>2017-06-22T13:04:43Z</time>
      </trkpt>
      <trkpt lat="46.81862" lon="6.4461">
        <ele>1113</ele>
        <time>2017-06-22T13:04:47Z</time>
      </trkpt>
      <trkpt lat="46.81854" lon="6.44645">
        <ele>1113</ele>
        <time>2017-06-22T13:04:51Z</time>
      </trkpt>
      <trkpt lat="46.81848" lon="6.44681">
        <ele>1113</ele>
        <time>2017-06-22T13:04:55Z</time>
      </trkpt>
      <trkpt lat="46.81845" lon="6.44716">
        <ele>1113</ele>
        <time>2017-06-22T13:04:59Z</time>
      </trkpt>
      <trkpt lat="46.81843" lon="6.44751">
        <ele>1113</ele>
        <time>2017-06-22T13:05:03Z</time>
      </trkpt>
      <trkpt lat="46.81842" lon="6.44789">
        <ele>1115</ele>
        <time>2017-06-22T13:05:07Z</time>
      </trkpt>
      <trkpt lat="46.81842" lon="6.44838">
        <ele>1115</ele>
        <time>2017-06-22T13:05:12Z</time>
      </trkpt>
      <trkpt lat="46.81841" lon="6.44877">
        <ele>1114</ele>
        <time>2017-06-22T13:05:16Z</time>
      </trkpt>
      <trkpt lat="46.81839" lon="6.44925">
        <ele>1114</ele>
        <time>2017-06-22T13:05:21Z</time>
      </trkpt>
      <trkpt lat="46.81836" lon="6.44974">
        <ele>1114</ele>
        <time>2017-06-22T13:05:26Z</time>
      </trkpt>
      <trkpt lat="46.81835" lon="6.45014">
        <ele>1113</ele>
        <time>2017-06-22T13:05:30Z</time>
      </trkpt>
      <trkpt lat="46.81835" lon="6.45057">
        <ele>1113</ele>
        <time>2017-06-22T13:05:35Z</time>
      </trkpt>
      <trkpt lat="46.81833" lon="6.45111">
        <ele>1113</ele>
        <time>2017-06-22T13:05:39Z</time>
      </trkpt>
      <trkpt lat="46.81832" lon="6.45167">
        <ele>1114</ele>
        <time>2017-06-22T13:05:44Z</time>
      </trkpt>
      <trkpt lat="46.81832" lon="6.45209">
        <ele>1114</ele>
        <time>2017-06-22T13:05:48Z</time>
      </trkpt>
      <trkpt lat="46.8183" lon="6.45243">
        <ele>1113</ele>
        <time>2017-06-22T13:05:52Z</time>
      </trkpt>
      <trkpt lat="46.81829" lon="6.4529">
        <ele>1114</ele>
        <time>2017-06-22T13:05:57Z</time>
      </trkpt>
      <trkpt lat="46.81826" lon="6.45361">
        <ele>1115</ele>
        <time>2017-06-22T13:06:01Z</time>
      </trkpt>
      <trkpt lat="46.81825" lon="6.45407">
        <ele>1115</ele>
        <time>2017-06-22T13:06:05Z</time>
      </trkpt>
      <trkpt lat="46.81824" lon="6.45452">
        <ele>1114</ele>
        <time>2017-06-22T13:06:09Z</time>
      </trkpt>
      <trkpt lat="46.8182" lon="6.45508">
        <ele>1113</ele>
        <time>2017-06-22T13:06:14Z</time>
      </trkpt>
      <trkpt lat="46.81817" lon="6.45566">
        <ele>1113</ele>
        <time>2017-06-22T13:06:19Z</time>
      </trkpt>
      <trkpt lat="46.8181" lon="6.45624">
        <ele>1113</ele>
        <time>2017-06-22T13:06:24Z</time>
      </trkpt>
      <trkpt lat="46.81809" lon="6.45671">
        <ele>1113</ele>
        <time>2017-06-22T13:06:28Z</time>
      </trkpt>
      <trkpt lat="46.81805" lon="6.45729">
        <ele>1113</ele>
        <time>2017-06-22T13:06:33Z</time>
      </trkpt>
      <trkpt lat="46.81804" lon="6.45778">
        <ele>1114</ele>
        <time>2017-06-22T13:06:37Z</time>
      </trkpt>
      <trkpt lat="46.81798" lon="6.45841">
        <ele>1112</ele>
        <time>2017-06-22T13:06:42Z</time>
      </trkpt>
      <trkpt lat="46.81793" lon="6.45907">
        <ele>1111</ele>
        <time>2017-06-22T13:06:47Z</time>
      </trkpt>
      <trkpt lat="46.81789" lon="6.4596">
        <ele>1111</ele>
        <time>2017-06-22T13:06:51Z</time>
      </trkpt>
      <trkpt lat="46.8178" lon="6.46024">
        <ele>1109</ele>
        <time>2017-06-22T13:06:56Z</time>
      </trkpt>
      <trkpt lat="46.81773" lon="6.46071">
        <ele>1111</ele>
        <time>2017-06-22T13:07:00Z</time>
      </trkpt>
      <trkpt lat="46.8177" lon="6.46118">
        <ele>1108</ele>
        <time>2017-06-22T13:07:04Z</time>
      </trkpt>
      <trkpt lat="46.81773" lon="6.46165">
        <ele>1109</ele>
        <time>2017-06-22T13:07:08Z</time>
      </trkpt>
      <trkpt lat="46.81773" lon="6.46222">
        <ele>1110</ele>
        <time>2017-06-22T13:07:13Z</time>
      </trkpt>
      <trkpt lat="46.81779" lon="6.46281">
        <ele>1106</ele>
        <time>2017-06-22T13:07:18Z</time>
      </trkpt>
      <trkpt lat="46.81785" lon="6.46331">
        <ele>1105</ele>
        <time>2017-06-22T13:07:22Z</time>
      </trkpt>
      <trkpt lat="46.8179" lon="6.46381">
        <ele>1103</ele>
        <time>2017-06-22T13:07:26Z</time>
      </trkpt>
      <trkpt lat="46.81795" lon="6.4644">
        <ele>1102</ele>
        <time>2017-06-22T13:07:31Z</time>
      </trkpt>
      <trkpt lat="46.81801" lon="6.46485">
        <ele>1102</ele>
        <time>2017-06-22T13:07:35Z</time>
      </trkpt>
      <trkpt lat="46.81812" lon="6.46535">
        <ele>1103</ele>
        <time>2017-06-22T13:07:40Z</time>
      </trkpt>
      <trkpt lat="46.81827" lon="6.46576">
        <ele>1103</ele>
        <time>2017-06-22T13:07:44Z</time>
      </trkpt>
      <trkpt lat="46.81843" lon="6.46615">
        <ele>1102</ele>
        <time>2017-06-22T13:07:48Z</time>
      </trkpt>
      <trkpt lat="46.81861" lon="6.46665">
        <ele>1102</ele>
        <time>2017-06-22T13:07:53Z</time>
      </trkpt>
      <trkpt lat="46.81885" lon="6.46715">
        <ele>1103</ele>
        <time>2017-06-22T13:07:58Z</time>
      </trkpt>
      <trkpt lat="46.819" lon="6.46755">
        <ele>1104</ele>
        <time>2017-06-22T13:08:02Z</time>
      </trkpt>
      <trkpt lat="46.81909" lon="6.46783">
        <ele>1104</ele>
        <time>2017-06-22T13:08:05Z</time>
      </trkpt>
      <trkpt lat="46.81924" lon="6.46831">
        <ele>1104</ele>
        <time>2017-06-22T13:08:10Z</time>
      </trkpt>
      <trkpt lat="46.81932" lon="6.46871">
        <ele>1104</ele>
        <time>2017-06-22T13:08:14Z</time>
      </trkpt>
      <trkpt lat="46.81943" lon="6.46923">
        <ele>1103</ele>
        <time>2017-06-22T13:08:19Z</time>
      </trkpt>
      <trkpt lat="46.81955" lon="6.46972">
        <ele>1104</ele>
        <time>2017-06-22T13:08:24Z</time>
      </trkpt>
      <trkpt lat="46.81967" lon="6.4701">
        <ele>1106</ele>
        <time>2017-06-22T13:08:28Z</time>
      </trkpt>
      <trkpt lat="46.81976" lon="6.47051">
        <ele>1105</ele>
        <time>2017-06-22T13:08:32Z</time>
      </trkpt>
      <trkpt lat="46.81989" lon="6.47102">
        <ele>1105</ele>
        <time>2017-06-22T13:08:37Z</time>
      </trkpt>
      <trkpt lat="46.82001" lon="6.47145">
        <ele>1106</ele>
        <time>2017-06-22T13:08:41Z</time>
      </trkpt>
      <trkpt lat="46.82019" lon="6.47196">
        <ele>1106</ele>
        <time>2017-06-22T13:08:46Z</time>
      </trkpt>
      <trkpt lat="46.82051" lon="6.47238">
        <ele>1107</ele>
        <time>2017-06-22T13:08:51Z</time>
      </trkpt>
      <trkpt lat="46.82074" lon="6.47274">
        <ele>1108</ele>
        <time>2017-06-22T13:08:55Z</time>
      </trkpt>
      <trkpt lat="46.82103" lon="6.47318">
        <ele>1108</ele>
        <time>2017-06-22T13:09:00Z</time>
      </trkpt>
      <trkpt lat="46.82124" lon="6.47351">
        <ele>1108</ele>
        <time>2017-06-22T13:09:04Z</time>
      </trkpt>
      <trkpt lat="46.82139" lon="6.47377">
        <ele>1109</ele>
        <time>2017-06-22T13:09:07Z</time>
      </trkpt>
      <trkpt lat="46.82161" lon="6.47411">
        <ele>1108</ele>
        <time>2017-06-22T13:09:11Z</time>
      </trkpt>
      <trkpt lat="46.82183" lon="6.47448">
        <ele>1107</ele>
        <time>2017-06-22T13:09:15Z</time>
      </trkpt>
      <trkpt lat="46.8221" lon="6.47491">
        <ele>1107</ele>
        <time>2017-06-22T13:09:20Z</time>
      </trkpt>
      <trkpt lat="46.82236" lon="6.47535">
        <ele>1104</ele>
        <time>2017-06-22T13:09:25Z</time>
      </trkpt>
      <trkpt lat="46.82257" lon="6.4757">
        <ele>1103</ele>
        <time>2017-06-22T13:09:29Z</time>
      </trkpt>
      <trkpt lat="46.82281" lon="6.47608">
        <ele>1102</ele>
        <time>2017-06-22T13:09:33Z</time>
      </trkpt>
      <trkpt lat="46.82311" lon="6.47655">
        <ele>1100</ele>
        <time>2017-06-22T13:09:38Z</time>
      </trkpt>
      <trkpt lat="46.82348" lon="6.47692">
        <ele>1098</ele>
        <time>2017-06-22T13:09:43Z</time>
      </trkpt>
      <trkpt lat="46.82385" lon="6.47709">
        <ele>1097</ele>
        <time>2017-06-22T13:09:47Z</time>
      </trkpt>
      <trkpt lat="46.82429" lon="6.47725">
        <ele>1100</ele>
        <time>2017-06-22T13:09:52Z</time>
      </trkpt>
      <trkpt lat="46.82462" lon="6.47741">
        <ele>1101</ele>
        <time>2017-06-22T13:09:56Z</time>
      </trkpt>
      <trkpt lat="46.825" lon="6.47766">
        <ele>1098</ele>
        <time>2017-06-22T13:10:01Z</time>
      </trkpt>
      <trkpt lat="46.82525" lon="6.47796">
        <ele>1096</ele>
        <time>2017-06-22T13:10:05Z</time>
      </trkpt>
      <trkpt lat="46.8255" lon="6.4783">
        <ele>1095</ele>
        <time>2017-06-22T13:10:09Z</time>
      </trkpt>
      <trkpt lat="46.82573" lon="6.47861">
        <ele>1093</ele>
        <time>2017-06-22T13:10:13Z</time>
      </trkpt>
      <trkpt lat="46.82597" lon="6.47896">
        <ele>1094</ele>
        <time>2017-06-22T13:10:18Z</time>
      </trkpt>
      <trkpt lat="46.82621" lon="6.47928">
        <ele>1094</ele>
        <time>2017-06-22T13:10:23Z</time>
      </trkpt>
      <trkpt lat="46.82639" lon="6.47953">
        <ele>1095</ele>
        <time>2017-06-22T13:10:27Z</time>
      </trkpt>
      <trkpt lat="46.82658" lon="6.47972">
        <ele>1096</ele>
        <time>2017-06-22T13:10:31Z</time>
      </trkpt>
      <trkpt lat="46.8268" lon="6.4798">
        <ele>1097</ele>
        <time>2017-06-22T13:10:35Z</time>
      </trkpt>
      <trkpt lat="46.82703" lon="6.47965">
        <ele>1095</ele>
        <time>2017-06-22T13:10:40Z</time>
      </trkpt>
      <trkpt lat="46.82733" lon="6.47946">
        <ele>1095</ele>
        <time>2017-06-22T13:10:45Z</time>
      </trkpt>
      <trkpt lat="46.82758" lon="6.47929">
        <ele>1097</ele>
        <time>2017-06-22T13:10:49Z</time>
      </trkpt>
      <trkpt lat="46.82784" lon="6.47913">
        <ele>1097</ele>
        <time>2017-06-22T13:10:53Z</time>
      </trkpt>
      <trkpt lat="46.82818" lon="6.47897">
        <ele>1098</ele>
        <time>2017-06-22T13:10:58Z</time>
      </trkpt>
      <trkpt lat="46.82845" lon="6.47886">
        <ele>1097</ele>
        <time>2017-06-22T13:11:02Z</time>
      </trkpt>
      <trkpt lat="46.82872" lon="6.47879">
        <ele>1097</ele>
        <time>2017-06-22T13:11:06Z</time>
      </trkpt>
      <trkpt lat="46.82906" lon="6.47867">
        <ele>1097</ele>
        <time>2017-06-22T13:11:11Z</time>
      </trkpt>
      <trkpt lat="46.82939" lon="6.47856">
        <ele>1097</ele>
        <time>2017-06-22T13:11:16Z</time>
      </trkpt>
      <trkpt lat="46.82975" lon="6.47846">
        <ele>1095</ele>
        <time>2017-06-22T13:11:21Z</time>
      </trkpt>
      <trkpt lat="46.83005" lon="6.47839">
        <ele>1094</ele>
        <time>2017-06-22T13:11:25Z</time>
      </trkpt>
      <trkpt lat="46.83044" lon="6.4786">
        <ele>1093</ele>
        <time>2017-06-22T13:11:30Z</time>
      </trkpt>
      <trkpt lat="46.83069" lon="6.47894">
        <ele>1091</ele>
        <time>2017-06-22T13:11:34Z</time>
      </trkpt>
      <trkpt lat="46.83072" lon="6.47956">
        <ele>1086</ele>
        <time>2017-06-22T13:11:39Z</time>
      </trkpt>
      <trkpt lat="46.83074" lon="6.48007">
        <ele>1085</ele>
        <time>2017-06-22T13:11:43Z</time>
      </trkpt>
      <trkpt lat="46.83076" lon="6.48075">
        <ele>1083</ele>
        <time>2017-06-22T13:11:48Z</time>
      </trkpt>
      <trkpt lat="46.83077" lon="6.48141">
        <ele>1082</ele>
        <time>2017-06-22T13:11:53Z</time>
      </trkpt>
      <trkpt lat="46.83076" lon="6.48197">
        <ele>1080</ele>
        <time>2017-06-22T13:11:57Z</time>
      </trkpt>
      <trkpt lat="46.83079" lon="6.48271">
        <ele>1076</ele>
        <time>2017-06-22T13:12:02Z</time>
      </trkpt>
      <trkpt lat="46.83096" lon="6.4833">
        <ele>1073</ele>
        <time>2017-06-22T13:12:06Z</time>
      </trkpt>
      <trkpt lat="46.83119" lon="6.48388">
        <ele>1071</ele>
        <time>2017-06-22T13:12:10Z</time>
      </trkpt>
      <trkpt lat="46.83141" lon="6.48448">
        <ele>1068</ele>
        <time>2017-06-22T13:12:14Z</time>
      </trkpt>
      <trkpt lat="46.83174" lon="6.48526">
        <ele>1065</ele>
        <time>2017-06-22T13:12:19Z</time>
      </trkpt>
      <trkpt lat="46.83211" lon="6.486">
        <ele>1062</ele>
        <time>2017-06-22T13:12:24Z</time>
      </trkpt>
      <trkpt lat="46.83249" lon="6.48655">
        <ele>1059</ele>
        <time>2017-06-22T13:12:28Z</time>
      </trkpt>
      <trkpt lat="46.83296" lon="6.48723">
        <ele>1057</ele>
        <time>2017-06-22T13:12:33Z</time>
      </trkpt>
      <trkpt lat="46.83347" lon="6.48794">
        <ele>1054</ele>
        <time>2017-06-22T13:12:38Z</time>
      </trkpt>
      <trkpt lat="46.83406" lon="6.48856">
        <ele>1048</ele>
        <time>2017-06-22T13:12:43Z</time>
      </trkpt>
      <trkpt lat="46.83444" lon="6.48892">
        <ele>1046</ele>
        <time>2017-06-22T13:12:46Z</time>
      </trkpt>
      <trkpt lat="46.83489" lon="6.48954">
        <ele>1041</ele>
        <time>2017-06-22T13:12:50Z</time>
      </trkpt>
      <trkpt lat="46.83519" lon="6.49014">
        <ele>1038</ele>
        <time>2017-06-22T13:12:54Z</time>
      </trkpt>
      <trkpt lat="46.83542" lon="6.49076">
        <ele>1036</ele>
        <time>2017-06-22T13:12:59Z</time>
      </trkpt>
      <trkpt lat="46.83546" lon="6.4914">
        <ele>1042</ele>
        <time>2017-06-22T13:13:03Z</time>
      </trkpt>
      <trkpt lat="46.83558" lon="6.49179">
        <ele>1035</ele>
        <time>2017-06-22T13:13:06Z</time>
      </trkpt>
      <trkpt lat="46.83579" lon="6.49223">
        <ele>1037</ele>
        <time>2017-06-22T13:13:10Z</time>
      </trkpt>
      <trkpt lat="46.83604" lon="6.49247">
        <ele>1033</ele>
        <time>2017-06-22T13:13:15Z</time>
      </trkpt>
      <trkpt lat="46.83625" lon="6.49267">
        <ele>1032</ele>
        <time>2017-06-22T13:13:20Z</time>
      </trkpt>
      <trkpt lat="46.83639" lon="6.49285">
        <ele>1031</ele>
        <time>2017-06-22T13:13:24Z</time>
      </trkpt>
      <trkpt lat="46.83649" lon="6.49299">
        <ele>1031</ele>
        <time>2017-06-22T13:13:28Z</time>
      </trkpt>
      <trkpt lat="46.83668" lon="6.49328">
        <ele>1031</ele>
        <time>2017-06-22T13:13:33Z</time>
      </trkpt>
      <trkpt lat="46.8368" lon="6.49329">
        <ele>1037</ele>
        <time>2017-06-22T13:13:37Z</time>
      </trkpt>
      <trkpt lat="46.83691" lon="6.49349">
        <ele>1041</ele>
        <time>2017-06-22T13:13:42Z</time>
      </trkpt>
      <trkpt lat="46.83701" lon="6.49373">
        <ele>1041</ele>
        <time>2017-06-22T13:13:46Z</time>
      </trkpt>
      <trkpt lat="46.83715" lon="6.49401">
        <ele>1042</ele>
        <time>2017-06-22T13:13:51Z</time>
      </trkpt>
      <trkpt lat="46.83728" lon="6.49423">
        <ele>1042</ele>
        <time>2017-06-22T13:13:55Z</time>
      </trkpt>
      <trkpt lat="46.83739" lon="6.49444">
        <ele>1042</ele>
        <time>2017-06-22T13:13:59Z</time>
      </trkpt>
      <trkpt lat="46.83753" lon="6.49472">
        <ele>1044</ele>
        <time>2017-06-22T13:14:04Z</time>
      </trkpt>
      <trkpt lat="46.83764" lon="6.495">
        <ele>1047</ele>
        <time>2017-06-22T13:14:09Z</time>
      </trkpt>
      <trkpt lat="46.83771" lon="6.49523">
        <ele>1048</ele>
        <time>2017-06-22T13:14:13Z</time>
      </trkpt>
      <trkpt lat="46.83776" lon="6.49549">
        <ele>1050</ele>
        <time>2017-06-22T13:14:17Z</time>
      </trkpt>
      <trkpt lat="46.83783" lon="6.49578">
        <ele>1051</ele>
        <time>2017-06-22T13:14:21Z</time>
      </trkpt>
      <trkpt lat="46.83788" lon="6.49599">
        <ele>1052</ele>
        <time>2017-06-22T13:14:25Z</time>
      </trkpt>
      <trkpt lat="46.83797" lon="6.4962">
        <ele>1052</ele>
        <time>2017-06-22T13:14:30Z</time>
      </trkpt>
      <trkpt lat="46.83809" lon="6.49642">
        <ele>1053</ele>
        <time>2017-06-22T13:14:35Z</time>
      </trkpt>
      <trkpt lat="46.83821" lon="6.49664">
        <ele>1055</ele>
        <time>2017-06-22T13:14:40Z</time>
      </trkpt>
      <trkpt lat="46.8383" lon="6.49681">
        <ele>1055</ele>
        <time>2017-06-22T13:14:44Z</time>
      </trkpt>
      <trkpt lat="46.83841" lon="6.497">
        <ele>1056</ele>
        <time>2017-06-22T13:14:48Z</time>
      </trkpt>
      <trkpt lat="46.83851" lon="6.49719">
        <ele>1059</ele>
        <time>2017-06-22T13:14:52Z</time>
      </trkpt>
      <trkpt lat="46.83859" lon="6.49738">
        <ele>1058</ele>
        <time>2017-06-22T13:14:56Z</time>
      </trkpt>
      <trkpt lat="46.83868" lon="6.49765">
        <ele>1063</ele>
        <time>2017-06-22T13:15:01Z</time>
      </trkpt>
      <trkpt lat="46.83872" lon="6.49789">
        <ele>1061</ele>
        <time>2017-06-22T13:15:05Z</time>
      </trkpt>
      <trkpt lat="46.83872" lon="6.49812">
        <ele>1061</ele>
        <time>2017-06-22T13:15:09Z</time>
      </trkpt>
      <trkpt lat="46.83877" lon="6.49833">
        <ele>1063</ele>
        <time>2017-06-22T13:15:13Z</time>
      </trkpt>
      <trkpt lat="46.83882" lon="6.49854">
        <ele>1064</ele>
        <time>2017-06-22T13:15:17Z</time>
      </trkpt>
      <trkpt lat="46.83884" lon="6.49871">
        <ele>1066</ele>
        <time>2017-06-22T13:15:20Z</time>
      </trkpt>
      <trkpt lat="46.83887" lon="6.49888">
        <ele>1064</ele>
        <time>2017-06-22T13:15:23Z</time>
      </trkpt>
      <trkpt lat="46.83894" lon="6.49915">
        <ele>1066</ele>
        <time>2017-06-22T13:15:28Z</time>
      </trkpt>
      <trkpt lat="46.83904" lon="6.49939">
        <ele>1068</ele>
        <time>2017-06-22T13:15:33Z</time>
      </trkpt>
      <trkpt lat="46.83913" lon="6.49956">
        <ele>1067</ele>
        <time>2017-06-22T13:15:37Z</time>
      </trkpt>
      <trkpt lat="46.83916" lon="6.49976">
        <ele>1068</ele>
        <time>2017-06-22T13:15:42Z</time>
      </trkpt>
      <trkpt lat="46.83927" lon="6.50007">
        <ele>1069</ele>
        <time>2017-06-22T13:15:47Z</time>
      </trkpt>
      <trkpt lat="46.83947" lon="6.50048">
        <ele>1069</ele>
        <time>2017-06-22T13:15:52Z</time>
      </trkpt>
      <trkpt lat="46.83969" lon="6.50082">
        <ele>1067</ele>
        <time>2017-06-22T13:15:56Z</time>
      </trkpt>
      <trkpt lat="46.83995" lon="6.50118">
        <ele>1066</ele>
        <time>2017-06-22T13:16:00Z</time>
      </trkpt>
      <trkpt lat="46.8402" lon="6.5016">
        <ele>1064</ele>
        <time>2017-06-22T13:16:04Z</time>
      </trkpt>
      <trkpt lat="46.84054" lon="6.50212">
        <ele>1064</ele>
        <time>2017-06-22T13:16:09Z</time>
      </trkpt>
      <trkpt lat="46.84092" lon="6.50243">
        <ele>1063</ele>
        <time>2017-06-22T13:16:13Z</time>
      </trkpt>
      <trkpt lat="46.84131" lon="6.5027">
        <ele>1064</ele>
        <time>2017-06-22T13:16:17Z</time>
      </trkpt>
      <trkpt lat="46.84183" lon="6.50327">
        <ele>1061</ele>
        <time>2017-06-22T13:16:22Z</time>
      </trkpt>
      <trkpt lat="46.84237" lon="6.50385">
        <ele>1055</ele>
        <time>2017-06-22T13:16:27Z</time>
      </trkpt>
      <trkpt lat="46.84289" lon="6.504">
        <ele>1051</ele>
        <time>2017-06-22T13:16:31Z</time>
      </trkpt>
      <trkpt lat="46.8434" lon="6.50421">
        <ele>1050</ele>
        <time>2017-06-22T13:16:35Z</time>
      </trkpt>
      <trkpt lat="46.84389" lon="6.50459">
        <ele>1047</ele>
        <time>2017-06-22T13:16:39Z</time>
      </trkpt>
      <trkpt lat="46.84432" lon="6.5054">
        <ele>1044</ele>
        <time>2017-06-22T13:16:44Z</time>
      </trkpt>
      <trkpt lat="46.84484" lon="6.50609">
        <ele>1040</ele>
        <time>2017-06-22T13:16:49Z</time>
      </trkpt>
      <trkpt lat="46.84527" lon="6.50656">
        <ele>1037</ele>
        <time>2017-06-22T13:16:53Z</time>
      </trkpt>
      <trkpt lat="46.8457" lon="6.50704">
        <ele>1035</ele>
        <time>2017-06-22T13:16:57Z</time>
      </trkpt>
      <trkpt lat="46.84617" lon="6.50777">
        <ele>1032</ele>
        <time>2017-06-22T13:17:01Z</time>
      </trkpt>
      <trkpt lat="46.84645" lon="6.5084">
        <ele>1031</ele>
        <time>2017-06-22T13:17:06Z</time>
      </trkpt>
      <trkpt lat="46.84694" lon="6.50862">
        <ele>1028</ele>
        <time>2017-06-22T13:17:10Z</time>
      </trkpt>
      <trkpt lat="46.84745" lon="6.50883">
        <ele>1026</ele>
        <time>2017-06-22T13:17:14Z</time>
      </trkpt>
      <trkpt lat="46.84791" lon="6.50917">
        <ele>1026</ele>
        <time>2017-06-22T13:17:18Z</time>
      </trkpt>
      <trkpt lat="46.8484" lon="6.50942">
        <ele>1022</ele>
        <time>2017-06-22T13:17:22Z</time>
      </trkpt>
      <trkpt lat="46.84887" lon="6.50973">
        <ele>1017</ele>
        <time>2017-06-22T13:17:26Z</time>
      </trkpt>
      <trkpt lat="46.84934" lon="6.51002">
        <ele>1017</ele>
        <time>2017-06-22T13:17:29Z</time>
      </trkpt>
      <trkpt lat="46.84972" lon="6.51015">
        <ele>1015</ele>
        <time>2017-06-22T13:17:33Z</time>
      </trkpt>
      <trkpt lat="46.85037" lon="6.51008">
        <ele>1014</ele>
        <time>2017-06-22T13:17:38Z</time>
      </trkpt>
      <trkpt lat="46.85097" lon="6.51048">
        <ele>1011</ele>
        <time>2017-06-22T13:17:43Z</time>
      </trkpt>
      <trkpt lat="46.85156" lon="6.51091">
        <ele>1011</ele>
        <time>2017-06-22T13:17:48Z</time>
      </trkpt>
      <trkpt lat="46.85202" lon="6.51126">
        <ele>1010</ele>
        <time>2017-06-22T13:17:52Z</time>
      </trkpt>
      <trkpt lat="46.85272" lon="6.51162">
        <ele>1010</ele>
        <time>2017-06-22T13:17:57Z</time>
      </trkpt>
      <trkpt lat="46.85322" lon="6.51178">
        <ele>1010</ele>
        <time>2017-06-22T13:18:02Z</time>
      </trkpt>
      <trkpt lat="46.85358" lon="6.51202">
        <ele>1008</ele>
        <time>2017-06-22T13:18:05Z</time>
      </trkpt>
      <trkpt lat="46.85399" lon="6.51267">
        <ele>994</ele>
        <time>2017-06-22T13:18:09Z</time>
      </trkpt>
      <trkpt lat="46.85434" lon="6.51352">
        <ele>992</ele>
        <time>2017-06-22T13:18:14Z</time>
      </trkpt>
      <trkpt lat="46.85478" lon="6.5139">
        <ele>989</ele>
        <time>2017-06-22T13:18:18Z</time>
      </trkpt>
      <trkpt lat="46.85517" lon="6.51413">
        <ele>989</ele>
        <time>2017-06-22T13:18:22Z</time>
      </trkpt>
      <trkpt lat="46.85576" lon="6.51432">
        <ele>988</ele>
        <time>2017-06-22T13:18:27Z</time>
      </trkpt>
      <trkpt lat="46.85645" lon="6.51426">
        <ele>986</ele>
        <time>2017-06-22T13:18:32Z</time>
      </trkpt>
      <trkpt lat="46.85698" lon="6.51384">
        <ele>986</ele>
        <time>2017-06-22T13:18:36Z</time>
      </trkpt>
      <trkpt lat="46.85746" lon="6.51332">
        <ele>986</ele>
        <time>2017-06-22T13:18:40Z</time>
      </trkpt>
      <trkpt lat="46.85789" lon="6.5127">
        <ele>982</ele>
        <time>2017-06-22T13:18:44Z</time>
      </trkpt>
      <trkpt lat="46.85847" lon="6.51238">
        <ele>976</ele>
        <time>2017-06-22T13:18:48Z</time>
      </trkpt>
      <trkpt lat="46.85919" lon="6.51223">
        <ele>974</ele>
        <time>2017-06-22T13:18:53Z</time>
      </trkpt>
      <trkpt lat="46.85987" lon="6.51219">
        <ele>972</ele>
        <time>2017-06-22T13:18:57Z</time>
      </trkpt>
      <trkpt lat="46.86037" lon="6.5117">
        <ele>968</ele>
        <time>2017-06-22T13:19:01Z</time>
      </trkpt>
      <trkpt lat="46.86117" lon="6.51246">
        <ele>952</ele>
        <time>2017-06-22T13:19:06Z</time>
      </trkpt>
      <trkpt lat="46.86166" lon="6.51321">
        <ele>937</ele>
        <time>2017-06-22T13:19:11Z</time>
      </trkpt>
      <trkpt lat="46.86209" lon="6.51385">
        <ele>936</ele>
        <time>2017-06-22T13:19:15Z</time>
      </trkpt>
      <trkpt lat="46.86249" lon="6.5146">
        <ele>933</ele>
        <time>2017-06-22T13:19:19Z</time>
      </trkpt>
      <trkpt lat="46.86262" lon="6.5153">
        <ele>931</ele>
        <time>2017-06-22T13:19:22Z</time>
      </trkpt>
      <trkpt lat="46.86288" lon="6.51619">
        <ele>925</ele>
        <time>2017-06-22T13:19:27Z</time>
      </trkpt>
      <trkpt lat="46.86326" lon="6.51717">
        <ele>1005</ele>
        <time>2017-06-22T13:19:32Z</time>
      </trkpt>
      <trkpt lat="46.86368" lon="6.51783">
        <ele>958</ele>
        <time>2017-06-22T13:19:36Z</time>
      </trkpt>
      <trkpt lat="46.86407" lon="6.51848">
        <ele>934</ele>
        <time>2017-06-22T13:19:40Z</time>
      </trkpt>
      <trkpt lat="46.86435" lon="6.51948">
        <ele>918</ele>
        <time>2017-06-22T13:19:45Z</time>
      </trkpt>
      <trkpt lat="46.86475" lon="6.52006">
        <ele>907</ele>
        <time>2017-06-22T13:19:49Z</time>
      </trkpt>
      <trkpt lat="46.86529" lon="6.52009">
        <ele>909</ele>
        <time>2017-06-22T13:19:52Z</time>
      </trkpt>
      <trkpt lat="46.86566" lon="6.51926">
        <ele>908</ele>
        <time>2017-06-22T13:19:57Z</time>
      </trkpt>
      <trkpt lat="46.86609" lon="6.51906">
        <ele>904</ele>
        <time>2017-06-22T13:20:01Z</time>
      </trkpt>
      <trkpt lat="46.86678" lon="6.51932">
        <ele>899</ele>
        <time>2017-06-22T13:20:06Z</time>
      </trkpt>
      <trkpt lat="46.86739" lon="6.51918">
        <ele>892</ele>
        <time>2017-06-22T13:20:10Z</time>
      </trkpt>
      <trkpt lat="46.86807" lon="6.51888">
        <ele>880</ele>
        <time>2017-06-22T13:20:15Z</time>
      </trkpt>
      <trkpt lat="46.86881" lon="6.51897">
        <ele>873</ele>
        <time>2017-06-22T13:20:20Z</time>
      </trkpt>
      <trkpt lat="46.86938" lon="6.51923">
        <ele>872</ele>
        <time>2017-06-22T13:20:24Z</time>
      </trkpt>
      <trkpt lat="46.87001" lon="6.52001">
        <ele>835</ele>
        <time>2017-06-22T13:20:27Z</time>
      </trkpt>
      <trkpt lat="46.87055" lon="6.52049">
        <ele>831</ele>
        <time>2017-06-22T13:20:32Z</time>
      </trkpt>
      <trkpt lat="46.87124" lon="6.52074">
        <ele>827</ele>
        <time>2017-06-22T13:20:36Z</time>
      </trkpt>
      <trkpt lat="46.87184" lon="6.52118">
        <ele>824</ele>
        <time>2017-06-22T13:20:41Z</time>
      </trkpt>
      <trkpt lat="46.87232" lon="6.52174">
        <ele>822</ele>
        <time>2017-06-22T13:20:46Z</time>
      </trkpt>
      <trkpt lat="46.87251" lon="6.52216">
        <ele>820</ele>
        <time>2017-06-22T13:20:50Z</time>
      </trkpt>
      <trkpt lat="46.8728" lon="6.52288">
        <ele>815</ele>
        <time>2017-06-22T13:20:55Z</time>
      </trkpt>
      <trkpt lat="46.8731" lon="6.52346">
        <ele>809</ele>
        <time>2017-06-22T13:21:00Z</time>
      </trkpt>
      <trkpt lat="46.87333" lon="6.52389">
        <ele>806</ele>
        <time>2017-06-22T13:21:04Z</time>
      </trkpt>
      <trkpt lat="46.87359" lon="6.52449">
        <ele>804</ele>
        <time>2017-06-22T13:21:09Z</time>
      </trkpt>
      <trkpt lat="46.87377" lon="6.52493">
        <ele>803</ele>
        <time>2017-06-22T13:21:13Z</time>
      </trkpt>
      <trkpt lat="46.87398" lon="6.52557">
        <ele>801</ele>
        <time>2017-06-22T13:21:18Z</time>
      </trkpt>
      <trkpt lat="46.87428" lon="6.52617">
        <ele>798</ele>
        <time>2017-06-22T13:21:23Z</time>
      </trkpt>
      <trkpt lat="46.87441" lon="6.52672">
        <ele>792</ele>
        <time>2017-06-22T13:21:27Z</time>
      </trkpt>
      <trkpt lat="46.87467" lon="6.52727">
        <ele>795</ele>
        <time>2017-06-22T13:21:32Z</time>
      </trkpt>
      <trkpt lat="46.87489" lon="6.52788">
        <ele>795</ele>
        <time>2017-06-22T13:21:37Z</time>
      </trkpt>
      <trkpt lat="46.8752" lon="6.52838">
        <ele>797</ele>
        <time>2017-06-22T13:21:42Z</time>
      </trkpt>
      <trkpt lat="46.87549" lon="6.52875">
        <ele>799</ele>
        <time>2017-06-22T13:21:46Z</time>
      </trkpt>
      <trkpt lat="46.87579" lon="6.52899">
        <ele>800</ele>
        <time>2017-06-22T13:21:50Z</time>
      </trkpt>
      <trkpt lat="46.8762" lon="6.52935">
        <ele>796</ele>
        <time>2017-06-22T13:21:55Z</time>
      </trkpt>
      <trkpt lat="46.87658" lon="6.52984">
        <ele>793</ele>
        <time>2017-06-22T13:22:00Z</time>
      </trkpt>
      <trkpt lat="46.87693" lon="6.53034">
        <ele>792</ele>
        <time>2017-06-22T13:22:05Z</time>
      </trkpt>
      <trkpt lat="46.87722" lon="6.53072">
        <ele>788</ele>
        <time>2017-06-22T13:22:09Z</time>
      </trkpt>
      <trkpt lat="46.87756" lon="6.53113">
        <ele>790</ele>
        <time>2017-06-22T13:22:14Z</time>
      </trkpt>
      <trkpt lat="46.87788" lon="6.53164">
        <ele>790</ele>
        <time>2017-06-22T13:22:19Z</time>
      </trkpt>
      <trkpt lat="46.87819" lon="6.5321">
        <ele>789</ele>
        <time>2017-06-22T13:22:24Z</time>
      </trkpt>
      <trkpt lat="46.87846" lon="6.53245">
        <ele>788</ele>
        <time>2017-06-22T13:22:28Z</time>
      </trkpt>
      <trkpt lat="46.87867" lon="6.53282">
        <ele>789</ele>
        <time>2017-06-22T13:22:32Z</time>
      </trkpt>
      <trkpt lat="46.87895" lon="6.53316">
        <ele>787</ele>
        <time>2017-06-22T13:22:36Z</time>
      </trkpt>
      <trkpt lat="46.8792" lon="6.53366">
        <ele>789</ele>
        <time>2017-06-22T13:22:41Z</time>
      </trkpt>
      <trkpt lat="46.87945" lon="6.53399">
        <ele>789</ele>
        <time>2017-06-22T13:22:45Z</time>
      </trkpt>
      <trkpt lat="46.87967" lon="6.53437">
        <ele>787</ele>
        <time>2017-06-22T13:22:49Z</time>
      </trkpt>
      <trkpt lat="46.87997" lon="6.53479">
        <ele>788</ele>
        <time>2017-06-22T13:22:54Z</time>
      </trkpt>
      <trkpt lat="46.88023" lon="6.53518">
        <ele>789</ele>
        <time>2017-06-22T13:22:58Z</time>
      </trkpt>
      <trkpt lat="46.88051" lon="6.53558">
        <ele>789</ele>
        <time>2017-06-22T13:23:03Z</time>
      </trkpt>
      <trkpt lat="46.88078" lon="6.53583">
        <ele>789</ele>
        <time>2017-06-22T13:23:07Z</time>
      </trkpt>
      <trkpt lat="46.88101" lon="6.53587">
        <ele>789</ele>
        <time>2017-06-22T13:23:10Z</time>
      </trkpt>
      <trkpt lat="46.88141" lon="6.5362">
        <ele>791</ele>
        <time>2017-06-22T13:23:15Z</time>
      </trkpt>
      <trkpt lat="46.88164" lon="6.53655">
        <ele>791</ele>
        <time>2017-06-22T13:23:20Z</time>
      </trkpt>
      <trkpt lat="46.88188" lon="6.53692">
        <ele>792</ele>
        <time>2017-06-22T13:23:24Z</time>
      </trkpt>
      <trkpt lat="46.88218" lon="6.53743">
        <ele>791</ele>
        <time>2017-06-22T13:23:29Z</time>
      </trkpt>
      <trkpt lat="46.8824" lon="6.5378">
        <ele>788</ele>
        <time>2017-06-22T13:23:33Z</time>
      </trkpt>
      <trkpt lat="46.88264" lon="6.53818">
        <ele>782</ele>
        <time>2017-06-22T13:23:37Z</time>
      </trkpt>
      <trkpt lat="46.88291" lon="6.53868">
        <ele>779</ele>
        <time>2017-06-22T13:23:42Z</time>
      </trkpt>
      <trkpt lat="46.88312" lon="6.53911">
        <ele>784</ele>
        <time>2017-06-22T13:23:46Z</time>
      </trkpt>
      <trkpt lat="46.88339" lon="6.53963">
        <ele>781</ele>
        <time>2017-06-22T13:23:51Z</time>
      </trkpt>
      <trkpt lat="46.88348" lon="6.53985">
        <ele>777</ele>
        <time>2017-06-22T13:23:54Z</time>
      </trkpt>
      <trkpt lat="46.88377" lon="6.54037">
        <ele>773</ele>
        <time>2017-06-22T13:23:59Z</time>
      </trkpt>
      <trkpt lat="46.88401" lon="6.54094">
        <ele>771</ele>
        <time>2017-06-22T13:24:04Z</time>
      </trkpt>
      <trkpt lat="46.88419" lon="6.54134">
        <ele>771</ele>
        <time>2017-06-22T13:24:08Z</time>
      </trkpt>
      <trkpt lat="46.88439" lon="6.54174">
        <ele>771</ele>
        <time>2017-06-22T13:24:12Z</time>
      </trkpt>
      <trkpt lat="46.8846" lon="6.54216">
        <ele>770</ele>
        <time>2017-06-22T13:24:16Z</time>
      </trkpt>
      <trkpt lat="46.8848" lon="6.54258">
        <ele>771</ele>
        <time>2017-06-22T13:24:20Z</time>
      </trkpt>
      <trkpt lat="46.88502" lon="6.54314">
        <ele>770</ele>
        <time>2017-06-22T13:24:24Z</time>
      </trkpt>
      <trkpt lat="46.88518" lon="6.54357">
        <ele>771</ele>
        <time>2017-06-22T13:24:28Z</time>
      </trkpt>
      <trkpt lat="46.88531" lon="6.54389">
        <ele>770</ele>
        <time>2017-06-22T13:24:32Z</time>
      </trkpt>
      <trkpt lat="46.88552" lon="6.54453">
        <ele>771</ele>
        <time>2017-06-22T13:24:37Z</time>
      </trkpt>
      <trkpt lat="46.8857" lon="6.54491">
        <ele>772</ele>
        <time>2017-06-22T13:24:42Z</time>
      </trkpt>
      <trkpt lat="46.88579" lon="6.54523">
        <ele>773</ele>
        <time>2017-06-22T13:24:44Z</time>
      </trkpt>
      <trkpt lat="46.88595" lon="6.54561">
        <ele>773</ele>
        <time>2017-06-22T13:24:49Z</time>
      </trkpt>
      <trkpt lat="46.88611" lon="6.54599">
        <ele>777</ele>
        <time>2017-06-22T13:24:53Z</time>
      </trkpt>
      <trkpt lat="46.88627" lon="6.54637">
        <ele>776</ele>
        <time>2017-06-22T13:24:57Z</time>
      </trkpt>
      <trkpt lat="46.88644" lon="6.54673">
        <ele>775</ele>
        <time>2017-06-22T13:25:01Z</time>
      </trkpt>
      <trkpt lat="46.88662" lon="6.54715">
        <ele>772</ele>
        <time>2017-06-22T13:25:05Z</time>
      </trkpt>
      <trkpt lat="46.88676" lon="6.54753">
        <ele>772</ele>
        <time>2017-06-22T13:25:09Z</time>
      </trkpt>
      <trkpt lat="46.88687" lon="6.54792">
        <ele>773</ele>
        <time>2017-06-22T13:25:13Z</time>
      </trkpt>
      <trkpt lat="46.88696" lon="6.54826">
        <ele>772</ele>
        <time>2017-06-22T13:25:17Z</time>
      </trkpt>
      <trkpt lat="46.88706" lon="6.54859">
        <ele>773</ele>
        <time>2017-06-22T13:25:21Z</time>
      </trkpt>
      <trkpt lat="46.88721" lon="6.54899">
        <ele>773</ele>
        <time>2017-06-22T13:25:26Z</time>
      </trkpt>
      <trkpt lat="46.88735" lon="6.54928">
        <ele>773</ele>
        <time>2017-06-22T13:25:30Z</time>
      </trkpt>
      <trkpt lat="46.88729" lon="6.54947">
        <ele>774</ele>
        <time>2017-06-22T13:25:33Z</time>
      </trkpt>
      <trkpt lat="46.88713" lon="6.5497">
        <ele>775</ele>
        <time>2017-06-22T13:25:36Z</time>
      </trkpt>
      <trkpt lat="46.88697" lon="6.5499">
        <ele>777</ele>
        <time>2017-06-22T13:25:41Z</time>
      </trkpt>
      <trkpt lat="46.88686" lon="6.55006">
        <ele>775</ele>
        <time>2017-06-22T13:25:45Z</time>
      </trkpt>
      <trkpt lat="46.88694" lon="6.55036">
        <ele>774</ele>
        <time>2017-06-22T13:25:49Z</time>
      </trkpt>
      <trkpt lat="46.88702" lon="6.55074">
        <ele>773</ele>
        <time>2017-06-22T13:25:54Z</time>
      </trkpt>
      <trkpt lat="46.88708" lon="6.55112">
        <ele>772</ele>
        <time>2017-06-22T13:25:59Z</time>
      </trkpt>
      <trkpt lat="46.88713" lon="6.55142">
        <ele>771</ele>
        <time>2017-06-22T13:26:03Z</time>
      </trkpt>
      <trkpt lat="46.88717" lon="6.55169">
        <ele>769</ele>
        <time>2017-06-22T13:26:07Z</time>
      </trkpt>
      <trkpt lat="46.88715" lon="6.55182">
        <ele>773</ele>
        <time>2017-06-22T13:26:57Z</time>
      </trkpt>
      <trkpt lat="46.88709" lon="6.55189">
        <ele>771</ele>
        <time>2017-06-22T13:29:06Z</time>
      </trkpt>
      <trkpt lat="46.88695" lon="6.55205">
        <ele>771</ele>
        <time>2017-06-22T13:29:11Z</time>
      </trkpt>
      <trkpt lat="46.8868" lon="6.55216">
        <ele>771</ele>
        <time>2017-06-22T13:29:15Z</time>
      </trkpt>
      <trkpt lat="46.88653" lon="6.55218">
        <ele>771</ele>
        <time>2017-06-22T13:29:20Z</time>
      </trkpt>
      <trkpt lat="46.88635" lon="6.5523">
        <ele>771</ele>
        <time>2017-06-22T13:29:24Z</time>
      </trkpt>
      <trkpt lat="46.88623" lon="6.55254">
        <ele>772</ele>
        <time>2017-06-22T13:29:29Z</time>
      </trkpt>
      <trkpt lat="46.88615" lon="6.55274">
        <ele>771</ele>
        <time>2017-06-22T13:29:34Z</time>
      </trkpt>
      <trkpt lat="46.8861" lon="6.55295">
        <ele>771</ele>
        <time>2017-06-22T13:29:38Z</time>
      </trkpt>
      <trkpt lat="46.88608" lon="6.55318">
        <ele>772</ele>
        <time>2017-06-22T13:29:43Z</time>
      </trkpt>
      <trkpt lat="46.88604" lon="6.55339">
        <ele>773</ele>
        <time>2017-06-22T13:29:48Z</time>
      </trkpt>
      <trkpt lat="46.88598" lon="6.55352">
        <ele>775</ele>
        <time>2017-06-22T13:29:53Z</time>
      </trkpt>
      <trkpt lat="46.88584" lon="6.55361">
        <ele>777</ele>
        <time>2017-06-22T13:29:57Z</time>
      </trkpt>
      <trkpt lat="46.8857" lon="6.55369">
        <ele>780</ele>
        <time>2017-06-22T13:30:02Z</time>
      </trkpt>
      <trkpt lat="46.88561" lon="6.55376">
        <ele>781</ele>
        <time>2017-06-22T13:30:06Z</time>
      </trkpt>
      <trkpt lat="46.88553" lon="6.55384">
        <ele>783</ele>
        <time>2017-06-22T13:30:10Z</time>
      </trkpt>
      <trkpt lat="46.88542" lon="6.55395">
        <ele>784</ele>
        <time>2017-06-22T13:30:14Z</time>
      </trkpt>
      <trkpt lat="46.88536" lon="6.55401">
        <ele>785</ele>
        <time>2017-06-22T13:30:18Z</time>
      </trkpt>
      <trkpt lat="46.88525" lon="6.55414">
        <ele>787</ele>
        <time>2017-06-22T13:30:23Z</time>
      </trkpt>
      <trkpt lat="46.88519" lon="6.55421">
        <ele>788</ele>
        <time>2017-06-22T13:30:26Z</time>
      </trkpt>
      <trkpt lat="46.88511" lon="6.55431">
        <ele>789</ele>
        <time>2017-06-22T13:30:30Z</time>
      </trkpt>
      <trkpt lat="46.88501" lon="6.55441">
        <ele>790</ele>
        <time>2017-06-22T13:30:35Z</time>
      </trkpt>
      <trkpt lat="46.88492" lon="6.55452">
        <ele>791</ele>
        <time>2017-06-22T13:30:40Z</time>
      </trkpt>
      <trkpt lat="46.88483" lon="6.5546">
        <ele>791</ele>
        <time>2017-06-22T13:30:44Z</time>
      </trkpt>
      <trkpt lat="46.88472" lon="6.55468">
        <ele>793</ele>
        <time>2017-06-22T13:30:48Z</time>
      </trkpt>
      <trkpt lat="46.88458" lon="6.55467">
        <ele>793</ele>
        <time>2017-06-22T13:30:53Z</time>
      </trkpt>
      <trkpt lat="46.88449" lon="6.5546">
        <ele>793</ele>
        <time>2017-06-22T13:30:57Z</time>
      </trkpt>
      <trkpt lat="46.88443" lon="6.55456">
        <ele>794</ele>
        <time>2017-06-22T13:31:00Z</time>
      </trkpt>
      <trkpt lat="46.88436" lon="6.55457">
        <ele>798</ele>
        <time>2017-06-22T13:31:05Z</time>
      </trkpt>
      <trkpt lat="46.88433" lon="6.55471">
        <ele>800</ele>
        <time>2017-06-22T13:31:10Z</time>
      </trkpt>
      <trkpt lat="46.8844" lon="6.55475">
        <ele>810</ele>
        <time>2017-06-22T13:31:16Z</time>
      </trkpt>
      <trkpt lat="46.88447" lon="6.55476">
        <ele>815</ele>
        <time>2017-06-22T13:31:23Z</time>
      </trkpt>
      <trkpt lat="46.88453" lon="6.55483">
        <ele>823</ele>
        <time>2017-06-22T13:31:28Z</time>
      </trkpt>
      <trkpt lat="46.88461" lon="6.55488">
        <ele>827</ele>
        <time>2017-06-22T13:31:34Z</time>
      </trkpt>
      <trkpt lat="46.88467" lon="6.55495">
        <ele>836</ele>
        <time>2017-06-22T13:31:38Z</time>
      </trkpt>
      <trkpt lat="46.88476" lon="6.55516">
        <ele>827</ele>
        <time>2017-06-22T13:31:42Z</time>
      </trkpt>
      <trkpt lat="46.88486" lon="6.55537">
        <ele>818</ele>
        <time>2017-06-22T13:31:46Z</time>
      </trkpt>
      <trkpt lat="46.88496" lon="6.55558">
        <ele>819</ele>
        <time>2017-06-22T13:31:51Z</time>
      </trkpt>
      <trkpt lat="46.885" lon="6.55577">
        <ele>818</ele>
        <time>2017-06-22T13:31:55Z</time>
      </trkpt>
      <trkpt lat="46.88497" lon="6.55593">
        <ele>820</ele>
        <time>2017-06-22T13:32:00Z</time>
      </trkpt>
      <trkpt lat="46.88488" lon="6.55603">
        <ele>823</ele>
        <time>2017-06-22T13:32:05Z</time>
      </trkpt>
      <trkpt lat="46.88482" lon="6.55611">
        <ele>833</ele>
        <time>2017-06-22T13:32:11Z</time>
      </trkpt>
      <trkpt lat="46.88473" lon="6.55609">
        <ele>835</ele>
        <time>2017-06-22T13:32:17Z</time>
      </trkpt>
      <trkpt lat="46.88468" lon="6.55608">
        <ele>841</ele>
        <time>2017-06-22T13:32:20Z</time>
      </trkpt>
      <trkpt lat="46.88457" lon="6.55609">
        <ele>845</ele>
        <time>2017-06-22T13:32:24Z</time>
      </trkpt>
      <trkpt lat="46.88446" lon="6.55609">
        <ele>847</ele>
        <time>2017-06-22T13:32:29Z</time>
      </trkpt>
      <trkpt lat="46.88436" lon="6.55611">
        <ele>849</ele>
        <time>2017-06-22T13:32:32Z</time>
      </trkpt>
      <trkpt lat="46.88427" lon="6.55609">
        <ele>855</ele>
        <time>2017-06-22T13:32:36Z</time>
      </trkpt>
      <trkpt lat="46.88422" lon="6.55605">
        <ele>862</ele>
        <time>2017-06-22T13:32:41Z</time>
      </trkpt>
      <trkpt lat="46.88412" lon="6.55603">
        <ele>867</ele>
        <time>2017-06-22T13:32:46Z</time>
      </trkpt>
      <trkpt lat="46.88401" lon="6.55601">
        <ele>872</ele>
        <time>2017-06-22T13:32:50Z</time>
      </trkpt>
      <trkpt lat="46.88392" lon="6.55599">
        <ele>874</ele>
        <time>2017-06-22T13:32:56Z</time>
      </trkpt>
      <trkpt lat="46.88384" lon="6.55596">
        <ele>878</ele>
        <time>2017-06-22T13:33:00Z</time>
      </trkpt>
      <trkpt lat="46.88365" lon="6.55596">
        <ele>883</ele>
        <time>2017-06-22T13:33:05Z</time>
      </trkpt>
      <trkpt lat="46.88354" lon="6.5559">
        <ele>884</ele>
        <time>2017-06-22T13:33:09Z</time>
      </trkpt>
      <trkpt lat="46.88345" lon="6.55587">
        <ele>887</ele>
        <time>2017-06-22T13:33:12Z</time>
      </trkpt>
      <trkpt lat="46.88329" lon="6.55578">
        <ele>886</ele>
        <time>2017-06-22T13:33:17Z</time>
      </trkpt>
      <trkpt lat="46.88325" lon="6.55558">
        <ele>885</ele>
        <time>2017-06-22T13:33:22Z</time>
      </trkpt>
      <trkpt lat="46.88326" lon="6.5554">
        <ele>879</ele>
        <time>2017-06-22T13:33:26Z</time>
      </trkpt>
      <trkpt lat="46.88324" lon="6.55527">
        <ele>875</ele>
        <time>2017-06-22T13:33:30Z</time>
      </trkpt>
      <trkpt lat="46.88324" lon="6.55505">
        <ele>877</ele>
        <time>2017-06-22T13:33:34Z</time>
      </trkpt>
      <trkpt lat="46.88321" lon="6.55489">
        <ele>878</ele>
        <time>2017-06-22T13:33:38Z</time>
      </trkpt>
      <trkpt lat="46.88309" lon="6.55468">
        <ele>866</ele>
        <time>2017-06-22T13:33:43Z</time>
      </trkpt>
      <trkpt lat="46.88303" lon="6.55452">
        <ele>865</ele>
        <time>2017-06-22T13:33:47Z</time>
      </trkpt>
      <trkpt lat="46.883" lon="6.5544">
        <ele>865</ele>
        <time>2017-06-22T13:33:51Z</time>
      </trkpt>
      <trkpt lat="46.88305" lon="6.55412">
        <ele>869</ele>
        <time>2017-06-22T13:33:56Z</time>
      </trkpt>
      <trkpt lat="46.88311" lon="6.55399">
        <ele>866</ele>
        <time>2017-06-22T13:33:59Z</time>
      </trkpt>
      <trkpt lat="46.88316" lon="6.55383">
        <ele>870</ele>
        <time>2017-06-22T13:34:04Z</time>
      </trkpt>
      <trkpt lat="46.88319" lon="6.55368">
        <ele>867</ele>
        <time>2017-06-22T13:34:09Z</time>
      </trkpt>
      <trkpt lat="46.88324" lon="6.55348">
        <ele>862</ele>
        <time>2017-06-22T13:34:14Z</time>
      </trkpt>
      <trkpt lat="46.88325" lon="6.55331">
        <ele>855</ele>
        <time>2017-06-22T13:34:18Z</time>
      </trkpt>
      <trkpt lat="46.88322" lon="6.55311">
        <ele>856</ele>
        <time>2017-06-22T13:34:22Z</time>
      </trkpt>
      <trkpt lat="46.88321" lon="6.5529">
        <ele>859</ele>
        <time>2017-06-22T13:34:26Z</time>
      </trkpt>
      <trkpt lat="46.88319" lon="6.55265">
        <ele>857</ele>
        <time>2017-06-22T13:34:30Z</time>
      </trkpt>
      <trkpt lat="46.88324" lon="6.55212">
        <ele>856</ele>
        <time>2017-06-22T13:34:35Z</time>
      </trkpt>
      <trkpt lat="46.88321" lon="6.55175">
        <ele>856</ele>
        <time>2017-06-22T13:34:39Z</time>
      </trkpt>
      <trkpt lat="46.88321" lon="6.55136">
        <ele>856</ele>
        <time>2017-06-22T13:34:43Z</time>
      </trkpt>
      <trkpt lat="46.88322" lon="6.55091">
        <ele>856</ele>
        <time>2017-06-22T13:34:47Z</time>
      </trkpt>
      <trkpt lat="46.88327" lon="6.55051">
        <ele>855</ele>
        <time>2017-06-22T13:34:51Z</time>
      </trkpt>
      <trkpt lat="46.88334" lon="6.55026">
        <ele>855</ele>
        <time>2017-06-22T13:34:55Z</time>
      </trkpt>
      <trkpt lat="46.88346" lon="6.54988">
        <ele>859</ele>
        <time>2017-06-22T13:34:59Z</time>
      </trkpt>
      <trkpt lat="46.88356" lon="6.54962">
        <ele>859</ele>
        <time>2017-06-22T13:35:03Z</time>
      </trkpt>
      <trkpt lat="46.88363" lon="6.54937">
        <ele>862</ele>
        <time>2017-06-22T13:35:07Z</time>
      </trkpt>
      <trkpt lat="46.88373" lon="6.54918">
        <ele>861</ele>
        <time>2017-06-22T13:35:10Z</time>
      </trkpt>
      <trkpt lat="46.88382" lon="6.54889">
        <ele>863</ele>
        <time>2017-06-22T13:35:15Z</time>
      </trkpt>
      <trkpt lat="46.88391" lon="6.54859">
        <ele>862</ele>
        <time>2017-06-22T13:35:20Z</time>
      </trkpt>
      <trkpt lat="46.88397" lon="6.54834">
        <ele>863</ele>
        <time>2017-06-22T13:35:24Z</time>
      </trkpt>
      <trkpt lat="46.884" lon="6.54814">
        <ele>861</ele>
        <time>2017-06-22T13:35:28Z</time>
      </trkpt>
      <trkpt lat="46.88399" lon="6.54787">
        <ele>863</ele>
        <time>2017-06-22T13:35:33Z</time>
      </trkpt>
      <trkpt lat="46.88393" lon="6.54774">
        <ele>869</ele>
        <time>2017-06-22T13:35:37Z</time>
      </trkpt>
      <trkpt lat="46.8839" lon="6.5476">
        <ele>872</ele>
        <time>2017-06-22T13:35:41Z</time>
      </trkpt>
      <trkpt lat="46.88388" lon="6.54748">
        <ele>877</ele>
        <time>2017-06-22T13:35:44Z</time>
      </trkpt>
      <trkpt lat="46.8839" lon="6.54728">
        <ele>880</ele>
        <time>2017-06-22T13:35:49Z</time>
      </trkpt>
      <trkpt lat="46.88387" lon="6.54716">
        <ele>882</ele>
        <time>2017-06-22T13:35:53Z</time>
      </trkpt>
      <trkpt lat="46.88385" lon="6.54698">
        <ele>887</ele>
        <time>2017-06-22T13:35:58Z</time>
      </trkpt>
      <trkpt lat="46.88382" lon="6.54685">
        <ele>886</ele>
        <time>2017-06-22T13:36:02Z</time>
      </trkpt>
      <trkpt lat="46.88376" lon="6.54672">
        <ele>882</ele>
        <time>2017-06-22T13:36:06Z</time>
      </trkpt>
      <trkpt lat="46.8837" lon="6.54655">
        <ele>880</ele>
        <time>2017-06-22T13:36:11Z</time>
      </trkpt>
      <trkpt lat="46.8837" lon="6.54636">
        <ele>879</ele>
        <time>2017-06-22T13:36:16Z</time>
      </trkpt>
      <trkpt lat="46.8837" lon="6.54616">
        <ele>883</ele>
        <time>2017-06-22T13:36:21Z</time>
      </trkpt>
      <trkpt lat="46.8837" lon="6.54596">
        <ele>885</ele>
        <time>2017-06-22T13:36:26Z</time>
      </trkpt>
      <trkpt lat="46.88367" lon="6.5458">
        <ele>884</ele>
        <time>2017-06-22T13:36:31Z</time>
      </trkpt>
      <trkpt lat="46.88365" lon="6.54567">
        <ele>882</ele>
        <time>2017-06-22T13:36:36Z</time>
      </trkpt>
      <trkpt lat="46.88359" lon="6.54552">
        <ele>887</ele>
        <time>2017-06-22T13:36:41Z</time>
      </trkpt>
      <trkpt lat="46.88353" lon="6.54544">
        <ele>883</ele>
        <time>2017-06-22T13:36:45Z</time>
      </trkpt>
      <trkpt lat="46.88343" lon="6.54527">
        <ele>890</ele>
        <time>2017-06-22T13:36:49Z</time>
      </trkpt>
      <trkpt lat="46.88345" lon="6.54506">
        <ele>904</ele>
        <time>2017-06-22T13:36:54Z</time>
      </trkpt>
      <trkpt lat="46.88348" lon="6.54494">
        <ele>909</ele>
        <time>2017-06-22T13:36:58Z</time>
      </trkpt>
      <trkpt lat="46.8834" lon="6.54492">
        <ele>908</ele>
        <time>2017-06-22T13:37:03Z</time>
      </trkpt>
      <trkpt lat="46.88336" lon="6.54503">
        <ele>907</ele>
        <time>2017-06-22T13:37:09Z</time>
      </trkpt>
      <trkpt lat="46.8834" lon="6.54513">
        <ele>909</ele>
        <time>2017-06-22T13:37:15Z</time>
      </trkpt>
      <trkpt lat="46.88344" lon="6.54523">
        <ele>908</ele>
        <time>2017-06-22T13:37:19Z</time>
      </trkpt>
      <trkpt lat="46.88345" lon="6.54534">
        <ele>879</ele>
        <time>2017-06-22T13:37:23Z</time>
      </trkpt>
      <trkpt lat="46.88343" lon="6.54543">
        <ele>892</ele>
        <time>2017-06-22T13:37:26Z</time>
      </trkpt>
      <trkpt lat="46.8834" lon="6.54556">
        <ele>898</ele>
        <time>2017-06-22T13:37:29Z</time>
      </trkpt>
      <trkpt lat="46.88333" lon="6.54573">
        <ele>906</ele>
        <time>2017-06-22T13:37:34Z</time>
      </trkpt>
      <trkpt lat="46.88325" lon="6.54594">
        <ele>914</ele>
        <time>2017-06-22T13:37:39Z</time>
      </trkpt>
      <trkpt lat="46.88321" lon="6.54609">
        <ele>925</ele>
        <time>2017-06-22T13:37:44Z</time>
      </trkpt>
      <trkpt lat="46.88315" lon="6.54624">
        <ele>925</ele>
        <time>2017-06-22T13:37:49Z</time>
      </trkpt>
      <trkpt lat="46.88309" lon="6.54635">
        <ele>923</ele>
        <time>2017-06-22T13:37:53Z</time>
      </trkpt>
      <trkpt lat="46.88305" lon="6.54647">
        <ele>927</ele>
        <time>2017-06-22T13:37:56Z</time>
      </trkpt>
      <trkpt lat="46.88301" lon="6.54662">
        <ele>930</ele>
        <time>2017-06-22T13:38:01Z</time>
      </trkpt>
      <trkpt lat="46.88295" lon="6.54675">
        <ele>933</ele>
        <time>2017-06-22T13:38:05Z</time>
      </trkpt>
      <trkpt lat="46.88285" lon="6.54691">
        <ele>934</ele>
        <time>2017-06-22T13:38:10Z</time>
      </trkpt>
      <trkpt lat="46.88274" lon="6.54703">
        <ele>934</ele>
        <time>2017-06-22T13:38:15Z</time>
      </trkpt>
      <trkpt lat="46.88268" lon="6.54715">
        <ele>934</ele>
        <time>2017-06-22T13:38:19Z</time>
      </trkpt>
      <trkpt lat="46.8826" lon="6.54724">
        <ele>933</ele>
        <time>2017-06-22T13:38:24Z</time>
      </trkpt>
      <trkpt lat="46.88253" lon="6.54734">
        <ele>934</ele>
        <time>2017-06-22T13:38:27Z</time>
      </trkpt>
      <trkpt lat="46.88249" lon="6.54742">
        <ele>935</ele>
        <time>2017-06-22T13:38:31Z</time>
      </trkpt>
      <trkpt lat="46.8824" lon="6.54759">
        <ele>934</ele>
        <time>2017-06-22T13:38:36Z</time>
      </trkpt>
      <trkpt lat="46.8823" lon="6.5477">
        <ele>924</ele>
        <time>2017-06-22T13:38:41Z</time>
      </trkpt>
      <trkpt lat="46.88221" lon="6.54783">
        <ele>921</ele>
        <time>2017-06-22T13:38:46Z</time>
      </trkpt>
      <trkpt lat="46.88215" lon="6.54794">
        <ele>921</ele>
        <time>2017-06-22T13:38:50Z</time>
      </trkpt>
      <trkpt lat="46.88211" lon="6.54803">
        <ele>922</ele>
        <time>2017-06-22T13:38:55Z</time>
      </trkpt>
      <trkpt lat="46.88204" lon="6.54814">
        <ele>924</ele>
        <time>2017-06-22T13:38:59Z</time>
      </trkpt>
      <trkpt lat="46.88197" lon="6.54821">
        <ele>925</ele>
        <time>2017-06-22T13:39:03Z</time>
      </trkpt>
      <trkpt lat="46.8819" lon="6.5483">
        <ele>929</ele>
        <time>2017-06-22T13:39:07Z</time>
      </trkpt>
      <trkpt lat="46.88188" lon="6.54844">
        <ele>934</ele>
        <time>2017-06-22T13:39:12Z</time>
      </trkpt>
      <trkpt lat="46.88189" lon="6.54867">
        <ele>938</ele>
        <time>2017-06-22T13:39:17Z</time>
      </trkpt>
      <trkpt lat="46.88188" lon="6.54888">
        <ele>944</ele>
        <time>2017-06-22T13:39:22Z</time>
      </trkpt>
      <trkpt lat="46.8818" lon="6.54902">
        <ele>953</ele>
        <time>2017-06-22T13:39:27Z</time>
      </trkpt>
      <trkpt lat="46.88169" lon="6.54903">
        <ele>954</ele>
        <time>2017-06-22T13:39:31Z</time>
      </trkpt>
      <trkpt lat="46.88164" lon="6.54893">
        <ele>956</ele>
        <time>2017-06-22T13:39:36Z</time>
      </trkpt>
      <trkpt lat="46.88163" lon="6.54875">
        <ele>955</ele>
        <time>2017-06-22T13:39:40Z</time>
      </trkpt>
      <trkpt lat="46.88164" lon="6.54857">
        <ele>952</ele>
        <time>2017-06-22T13:39:44Z</time>
      </trkpt>
      <trkpt lat="46.8816" lon="6.54834">
        <ele>945</ele>
        <time>2017-06-22T13:39:49Z</time>
      </trkpt>
      <trkpt lat="46.8816" lon="6.54813">
        <ele>948</ele>
        <time>2017-06-22T13:39:54Z</time>
      </trkpt>
      <trkpt lat="46.88157" lon="6.54807">
        <ele>949</ele>
        <time>2017-06-22T13:39:57Z</time>
      </trkpt>
      <trkpt lat="46.88152" lon="6.54796">
        <ele>949</ele>
        <time>2017-06-22T13:40:01Z</time>
      </trkpt>
      <trkpt lat="46.88146" lon="6.54778">
        <ele>950</ele>
        <time>2017-06-22T13:40:06Z</time>
      </trkpt>
      <trkpt lat="46.88138" lon="6.54763">
        <ele>950</ele>
        <time>2017-06-22T13:40:11Z</time>
      </trkpt>
      <trkpt lat="46.88136" lon="6.54757">
        <ele>952</ele>
        <time>2017-06-22T13:40:13Z</time>
      </trkpt>
      <trkpt lat="46.88136" lon="6.54743">
        <ele>957</ele>
        <time>2017-06-22T13:40:18Z</time>
      </trkpt>
      <trkpt lat="46.88131" lon="6.54732">
        <ele>958</ele>
        <time>2017-06-22T13:40:21Z</time>
      </trkpt>
      <trkpt lat="46.88127" lon="6.54713">
        <ele>959</ele>
        <time>2017-06-22T13:40:26Z</time>
      </trkpt>
      <trkpt lat="46.88123" lon="6.54693">
        <ele>957</ele>
        <time>2017-06-22T13:40:31Z</time>
      </trkpt>
      <trkpt lat="46.88121" lon="6.5468">
        <ele>963</ele>
        <time>2017-06-22T13:40:35Z</time>
      </trkpt>
      <trkpt lat="46.88115" lon="6.54665">
        <ele>963</ele>
        <time>2017-06-22T13:40:40Z</time>
      </trkpt>
      <trkpt lat="46.88106" lon="6.54649">
        <ele>960</ele>
        <time>2017-06-22T13:40:45Z</time>
      </trkpt>
      <trkpt lat="46.881" lon="6.54637">
        <ele>952</ele>
        <time>2017-06-22T13:40:49Z</time>
      </trkpt>
      <trkpt lat="46.88097" lon="6.54611">
        <ele>953</ele>
        <time>2017-06-22T13:40:54Z</time>
      </trkpt>
      <trkpt lat="46.88099" lon="6.54591">
        <ele>955</ele>
        <time>2017-06-22T13:40:59Z</time>
      </trkpt>
      <trkpt lat="46.88095" lon="6.54576">
        <ele>956</ele>
        <time>2017-06-22T13:41:04Z</time>
      </trkpt>
      <trkpt lat="46.88088" lon="6.54566">
        <ele>956</ele>
        <time>2017-06-22T13:41:08Z</time>
      </trkpt>
      <trkpt lat="46.88083" lon="6.54558">
        <ele>955</ele>
        <time>2017-06-22T13:41:11Z</time>
      </trkpt>
      <trkpt lat="46.88076" lon="6.54547">
        <ele>953</ele>
        <time>2017-06-22T13:41:15Z</time>
      </trkpt>
      <trkpt lat="46.8807" lon="6.54531">
        <ele>954</ele>
        <time>2017-06-22T13:41:20Z</time>
      </trkpt>
      <trkpt lat="46.88063" lon="6.54518">
        <ele>956</ele>
        <time>2017-06-22T13:41:25Z</time>
      </trkpt>
      <trkpt lat="46.88058" lon="6.54508">
        <ele>961</ele>
        <time>2017-06-22T13:41:30Z</time>
      </trkpt>
      <trkpt lat="46.88055" lon="6.54496">
        <ele>968</ele>
        <time>2017-06-22T13:41:36Z</time>
      </trkpt>
      <trkpt lat="46.88052" lon="6.54487">
        <ele>968</ele>
        <time>2017-06-22T13:41:41Z</time>
      </trkpt>
      <trkpt lat="46.88047" lon="6.5447">
        <ele>970</ele>
        <time>2017-06-22T13:41:46Z</time>
      </trkpt>
      <trkpt lat="46.88043" lon="6.54457">
        <ele>969</ele>
        <time>2017-06-22T13:41:50Z</time>
      </trkpt>
      <trkpt lat="46.8804" lon="6.54444">
        <ele>970</ele>
        <time>2017-06-22T13:41:54Z</time>
      </trkpt>
      <trkpt lat="46.88034" lon="6.54429">
        <ele>969</ele>
        <time>2017-06-22T13:41:58Z</time>
      </trkpt>
      <trkpt lat="46.88029" lon="6.54414">
        <ele>970</ele>
        <time>2017-06-22T13:42:03Z</time>
      </trkpt>
      <trkpt lat="46.88022" lon="6.54402">
        <ele>969</ele>
        <time>2017-06-22T13:42:08Z</time>
      </trkpt>
      <trkpt lat="46.88016" lon="6.54392">
        <ele>969</ele>
        <time>2017-06-22T13:42:13Z</time>
      </trkpt>
      <trkpt lat="46.88008" lon="6.54386">
        <ele>968</ele>
        <time>2017-06-22T13:42:17Z</time>
      </trkpt>
      <trkpt lat="46.88001" lon="6.54385">
        <ele>972</ele>
        <time>2017-06-22T13:42:21Z</time>
      </trkpt>
      <trkpt lat="46.87992" lon="6.5439">
        <ele>977</ele>
        <time>2017-06-22T13:42:26Z</time>
      </trkpt>
      <trkpt lat="46.87985" lon="6.54397">
        <ele>980</ele>
        <time>2017-06-22T13:42:31Z</time>
      </trkpt>
      <trkpt lat="46.87981" lon="6.54406">
        <ele>987</ele>
        <time>2017-06-22T13:42:37Z</time>
      </trkpt>
      <trkpt lat="46.87983" lon="6.54418">
        <ele>990</ele>
        <time>2017-06-22T13:42:42Z</time>
      </trkpt>
      <trkpt lat="46.87988" lon="6.54429">
        <ele>997</ele>
        <time>2017-06-22T13:42:49Z</time>
      </trkpt>
      <trkpt lat="46.87992" lon="6.54438">
        <ele>1001</ele>
        <time>2017-06-22T13:42:56Z</time>
      </trkpt>
      <trkpt lat="46.87993" lon="6.5445">
        <ele>1002</ele>
        <time>2017-06-22T13:43:01Z</time>
      </trkpt>
      <trkpt lat="46.87998" lon="6.54463">
        <ele>1004</ele>
        <time>2017-06-22T13:43:05Z</time>
      </trkpt>
      <trkpt lat="46.88002" lon="6.54481">
        <ele>1007</ele>
        <time>2017-06-22T13:43:10Z</time>
      </trkpt>
      <trkpt lat="46.88005" lon="6.54497">
        <ele>1006</ele>
        <time>2017-06-22T13:43:15Z</time>
      </trkpt>
      <trkpt lat="46.88009" lon="6.5451">
        <ele>1009</ele>
        <time>2017-06-22T13:43:19Z</time>
      </trkpt>
      <trkpt lat="46.88011" lon="6.54524">
        <ele>1009</ele>
        <time>2017-06-22T13:43:23Z</time>
      </trkpt>
      <trkpt lat="46.88012" lon="6.54538">
        <ele>1007</ele>
        <time>2017-06-22T13:43:27Z</time>
      </trkpt>
      <trkpt lat="46.88013" lon="6.54554">
        <ele>1005</ele>
        <time>2017-06-22T13:43:31Z</time>
      </trkpt>
      <trkpt lat="46.88015" lon="6.54568">
        <ele>1006</ele>
        <time>2017-06-22T13:43:35Z</time>
      </trkpt>
      <trkpt lat="46.88018" lon="6.54581">
        <ele>1005</ele>
        <time>2017-06-22T13:43:40Z</time>
      </trkpt>
      <trkpt lat="46.88021" lon="6.54599">
        <ele>1003</ele>
        <time>2017-06-22T13:43:45Z</time>
      </trkpt>
      <trkpt lat="46.88023" lon="6.54614">
        <ele>1003</ele>
        <time>2017-06-22T13:43:49Z</time>
      </trkpt>
      <trkpt lat="46.88025" lon="6.54625">
        <ele>1003</ele>
        <time>2017-06-22T13:43:53Z</time>
      </trkpt>
      <trkpt lat="46.8803" lon="6.54639">
        <ele>1004</ele>
        <time>2017-06-22T13:43:57Z</time>
      </trkpt>
      <trkpt lat="46.88031" lon="6.54651">
        <ele>1008</ele>
        <time>2017-06-22T13:44:02Z</time>
      </trkpt>
      <trkpt lat="46.88032" lon="6.54663">
        <ele>1009</ele>
        <time>2017-06-22T13:44:07Z</time>
      </trkpt>
      <trkpt lat="46.88034" lon="6.54681">
        <ele>1012</ele>
        <time>2017-06-22T13:44:12Z</time>
      </trkpt>
      <trkpt lat="46.88035" lon="6.54692">
        <ele>1013</ele>
        <time>2017-06-22T13:44:17Z</time>
      </trkpt>
      <trkpt lat="46.88036" lon="6.54704">
        <ele>1013</ele>
        <time>2017-06-22T13:44:21Z</time>
      </trkpt>
      <trkpt lat="46.8804" lon="6.54718">
        <ele>1014</ele>
        <time>2017-06-22T13:44:25Z</time>
      </trkpt>
      <trkpt lat="46.88039" lon="6.54733">
        <ele>1012</ele>
        <time>2017-06-22T13:44:29Z</time>
      </trkpt>
      <trkpt lat="46.8804" lon="6.54746">
        <ele>1012</ele>
        <time>2017-06-22T13:44:33Z</time>
      </trkpt>
      <trkpt lat="46.8804" lon="6.54758">
        <ele>1014</ele>
        <time>2017-06-22T13:44:38Z</time>
      </trkpt>
      <trkpt lat="46.88041" lon="6.54763">
        <ele>1017</ele>
        <time>2017-06-22T13:44:41Z</time>
      </trkpt>
      <trkpt lat="46.88043" lon="6.54779">
        <ele>1016</ele>
        <time>2017-06-22T13:44:46Z</time>
      </trkpt>
      <trkpt lat="46.88042" lon="6.54794">
        <ele>1016</ele>
        <time>2017-06-22T13:44:50Z</time>
      </trkpt>
      <trkpt lat="46.88045" lon="6.54812">
        <ele>1016</ele>
        <time>2017-06-22T13:44:55Z</time>
      </trkpt>
      <trkpt lat="46.88043" lon="6.54827">
        <ele>1014</ele>
        <time>2017-06-22T13:44:58Z</time>
      </trkpt>
      <trkpt lat="46.88042" lon="6.54843">
        <ele>1016</ele>
        <time>2017-06-22T13:45:03Z</time>
      </trkpt>
      <trkpt lat="46.88042" lon="6.54858">
        <ele>1017</ele>
        <time>2017-06-22T13:45:06Z</time>
      </trkpt>
      <trkpt lat="46.88042" lon="6.54868">
        <ele>1020</ele>
        <time>2017-06-22T13:45:10Z</time>
      </trkpt>
      <trkpt lat="46.88041" lon="6.5488">
        <ele>1023</ele>
        <time>2017-06-22T13:45:13Z</time>
      </trkpt>
      <trkpt lat="46.8804" lon="6.54892">
        <ele>1024</ele>
        <time>2017-06-22T13:45:18Z</time>
      </trkpt>
      <trkpt lat="46.88037" lon="6.54908">
        <ele>1019</ele>
        <time>2017-06-22T13:45:23Z</time>
      </trkpt>
      <trkpt lat="46.88033" lon="6.54923">
        <ele>1020</ele>
        <time>2017-06-22T13:45:27Z</time>
      </trkpt>
      <trkpt lat="46.8803" lon="6.54938">
        <ele>1019</ele>
        <time>2017-06-22T13:45:31Z</time>
      </trkpt>
      <trkpt lat="46.88026" lon="6.54958">
        <ele>1022</ele>
        <time>2017-06-22T13:45:35Z</time>
      </trkpt>
      <trkpt lat="46.88025" lon="6.54978">
        <ele>1024</ele>
        <time>2017-06-22T13:45:40Z</time>
      </trkpt>
      <trkpt lat="46.88023" lon="6.54994">
        <ele>1025</ele>
        <time>2017-06-22T13:45:45Z</time>
      </trkpt>
      <trkpt lat="46.88023" lon="6.55002">
        <ele>1026</ele>
        <time>2017-06-22T13:45:50Z</time>
      </trkpt>
      <trkpt lat="46.88025" lon="6.55017">
        <ele>1034</ele>
        <time>2017-06-22T13:45:54Z</time>
      </trkpt>
      <trkpt lat="46.88026" lon="6.55033">
        <ele>1040</ele>
        <time>2017-06-22T13:45:59Z</time>
      </trkpt>
      <trkpt lat="46.88028" lon="6.55046">
        <ele>1040</ele>
        <time>2017-06-22T13:46:03Z</time>
      </trkpt>
      <trkpt lat="46.8803" lon="6.55055">
        <ele>1040</ele>
        <time>2017-06-22T13:46:07Z</time>
      </trkpt>
      <trkpt lat="46.88029" lon="6.55073">
        <ele>1040</ele>
        <time>2017-06-22T13:46:11Z</time>
      </trkpt>
      <trkpt lat="46.88031" lon="6.55088">
        <ele>1040</ele>
        <time>2017-06-22T13:46:15Z</time>
      </trkpt>
      <trkpt lat="46.88036" lon="6.55107">
        <ele>1039</ele>
        <time>2017-06-22T13:46:20Z</time>
      </trkpt>
      <trkpt lat="46.88034" lon="6.55125">
        <ele>1038</ele>
        <time>2017-06-22T13:46:24Z</time>
      </trkpt>
      <trkpt lat="46.88032" lon="6.5514">
        <ele>1039</ele>
        <time>2017-06-22T13:46:28Z</time>
      </trkpt>
      <trkpt lat="46.88032" lon="6.5516">
        <ele>1038</ele>
        <time>2017-06-22T13:46:32Z</time>
      </trkpt>
      <trkpt lat="46.88035" lon="6.55173">
        <ele>1042</ele>
        <time>2017-06-22T13:46:37Z</time>
      </trkpt>
      <trkpt lat="46.88037" lon="6.5519">
        <ele>1045</ele>
        <time>2017-06-22T13:46:42Z</time>
      </trkpt>
      <trkpt lat="46.88037" lon="6.55205">
        <ele>1043</ele>
        <time>2017-06-22T13:46:46Z</time>
      </trkpt>
      <trkpt lat="46.88036" lon="6.55221">
        <ele>1046</ele>
        <time>2017-06-22T13:46:51Z</time>
      </trkpt>
      <trkpt lat="46.88038" lon="6.55236">
        <ele>1048</ele>
        <time>2017-06-22T13:46:56Z</time>
      </trkpt>
      <trkpt lat="46.88039" lon="6.55254">
        <ele>1049</ele>
        <time>2017-06-22T13:47:01Z</time>
      </trkpt>
      <trkpt lat="46.88044" lon="6.55266">
        <ele>1055</ele>
        <time>2017-06-22T13:47:05Z</time>
      </trkpt>
      <trkpt lat="46.88045" lon="6.55277">
        <ele>1058</ele>
        <time>2017-06-22T13:47:09Z</time>
      </trkpt>
      <trkpt lat="46.88045" lon="6.55292">
        <ele>1061</ele>
        <time>2017-06-22T13:47:14Z</time>
      </trkpt>
      <trkpt lat="46.88044" lon="6.55305">
        <ele>1059</ele>
        <time>2017-06-22T13:47:18Z</time>
      </trkpt>
      <trkpt lat="46.88044" lon="6.55322">
        <ele>1057</ele>
        <time>2017-06-22T13:47:22Z</time>
      </trkpt>
      <trkpt lat="46.88042" lon="6.5534">
        <ele>1055</ele>
        <time>2017-06-22T13:47:26Z</time>
      </trkpt>
      <trkpt lat="46.88042" lon="6.55352">
        <ele>1057</ele>
        <time>2017-06-22T13:47:30Z</time>
      </trkpt>
      <trkpt lat="46.88043" lon="6.55369">
        <ele>1058</ele>
        <time>2017-06-22T13:47:34Z</time>
      </trkpt>
      <trkpt lat="46.88042" lon="6.55385">
        <ele>1062</ele>
        <time>2017-06-22T13:47:39Z</time>
      </trkpt>
      <trkpt lat="46.88042" lon="6.55396">
        <ele>1065</ele>
        <time>2017-06-22T13:47:44Z</time>
      </trkpt>
      <trkpt lat="46.88035" lon="6.55413">
        <ele>1060</ele>
        <time>2017-06-22T13:47:48Z</time>
      </trkpt>
      <trkpt lat="46.88031" lon="6.55426">
        <ele>1058</ele>
        <time>2017-06-22T13:47:51Z</time>
      </trkpt>
      <trkpt lat="46.88027" lon="6.55443">
        <ele>1058</ele>
        <time>2017-06-22T13:47:56Z</time>
      </trkpt>
      <trkpt lat="46.88028" lon="6.55456">
        <ele>1060</ele>
        <time>2017-06-22T13:48:01Z</time>
      </trkpt>
      <trkpt lat="46.88032" lon="6.5547">
        <ele>1058</ele>
        <time>2017-06-22T13:48:06Z</time>
      </trkpt>
      <trkpt lat="46.88029" lon="6.55487">
        <ele>1059</ele>
        <time>2017-06-22T13:48:11Z</time>
      </trkpt>
      <trkpt lat="46.88028" lon="6.55504">
        <ele>1061</ele>
        <time>2017-06-22T13:48:16Z</time>
      </trkpt>
      <trkpt lat="46.8803" lon="6.55517">
        <ele>1065</ele>
        <time>2017-06-22T13:48:20Z</time>
      </trkpt>
      <trkpt lat="46.88028" lon="6.5553">
        <ele>1069</ele>
        <time>2017-06-22T13:48:25Z</time>
      </trkpt>
      <trkpt lat="46.88027" lon="6.55541">
        <ele>1070</ele>
        <time>2017-06-22T13:48:29Z</time>
      </trkpt>
      <trkpt lat="46.88028" lon="6.5555">
        <ele>1074</ele>
        <time>2017-06-22T13:48:33Z</time>
      </trkpt>
      <trkpt lat="46.8803" lon="6.55572">
        <ele>1086</ele>
        <time>2017-06-22T13:48:38Z</time>
      </trkpt>
      <trkpt lat="46.88035" lon="6.55591">
        <ele>1088</ele>
        <time>2017-06-22T13:48:43Z</time>
      </trkpt>
      <trkpt lat="46.88036" lon="6.5561">
        <ele>1088</ele>
        <time>2017-06-22T13:48:48Z</time>
      </trkpt>
      <trkpt lat="46.88033" lon="6.55629">
        <ele>1088</ele>
        <time>2017-06-22T13:48:53Z</time>
      </trkpt>
      <trkpt lat="46.8803" lon="6.55646">
        <ele>1088</ele>
        <time>2017-06-22T13:48:58Z</time>
      </trkpt>
      <trkpt lat="46.88029" lon="6.55655">
        <ele>1087</ele>
        <time>2017-06-22T13:49:02Z</time>
      </trkpt>
      <trkpt lat="46.8803" lon="6.55674">
        <ele>1088</ele>
        <time>2017-06-22T13:49:07Z</time>
      </trkpt>
      <trkpt lat="46.88026" lon="6.55689">
        <ele>1088</ele>
        <time>2017-06-22T13:49:12Z</time>
      </trkpt>
      <trkpt lat="46.88024" lon="6.55701">
        <ele>1089</ele>
        <time>2017-06-22T13:49:17Z</time>
      </trkpt>
      <trkpt lat="46.88023" lon="6.55716">
        <ele>1090</ele>
        <time>2017-06-22T13:49:22Z</time>
      </trkpt>
      <trkpt lat="46.88022" lon="6.55729">
        <ele>1092</ele>
        <time>2017-06-22T13:49:27Z</time>
      </trkpt>
      <trkpt lat="46.88022" lon="6.55738">
        <ele>1095</ele>
        <time>2017-06-22T13:49:30Z</time>
      </trkpt>
      <trkpt lat="46.88023" lon="6.55753">
        <ele>1097</ele>
        <time>2017-06-22T13:49:34Z</time>
      </trkpt>
      <trkpt lat="46.88024" lon="6.55768">
        <ele>1097</ele>
        <time>2017-06-22T13:49:38Z</time>
      </trkpt>
      <trkpt lat="46.88022" lon="6.55788">
        <ele>1096</ele>
        <time>2017-06-22T13:49:43Z</time>
      </trkpt>
      <trkpt lat="46.88022" lon="6.55807">
        <ele>1097</ele>
        <time>2017-06-22T13:49:48Z</time>
      </trkpt>
      <trkpt lat="46.8802" lon="6.55817">
        <ele>1099</ele>
        <time>2017-06-22T13:49:51Z</time>
      </trkpt>
      <trkpt lat="46.88016" lon="6.55833">
        <ele>1098</ele>
        <time>2017-06-22T13:49:55Z</time>
      </trkpt>
      <trkpt lat="46.88005" lon="6.55848">
        <ele>1096</ele>
        <time>2017-06-22T13:50:00Z</time>
      </trkpt>
      <trkpt lat="46.8799" lon="6.55853">
        <ele>1096</ele>
        <time>2017-06-22T13:50:05Z</time>
      </trkpt>
      <trkpt lat="46.87978" lon="6.55855">
        <ele>1097</ele>
        <time>2017-06-22T13:50:09Z</time>
      </trkpt>
      <trkpt lat="46.8797" lon="6.55856">
        <ele>1096</ele>
        <time>2017-06-22T13:50:12Z</time>
      </trkpt>
      <trkpt lat="46.87961" lon="6.55858">
        <ele>1098</ele>
        <time>2017-06-22T13:50:16Z</time>
      </trkpt>
      <trkpt lat="46.87952" lon="6.55859">
        <ele>1101</ele>
        <time>2017-06-22T13:50:20Z</time>
      </trkpt>
      <trkpt lat="46.87943" lon="6.55857">
        <ele>1104</ele>
        <time>2017-06-22T13:50:25Z</time>
      </trkpt>
      <trkpt lat="46.87935" lon="6.55857">
        <ele>1104</ele>
        <time>2017-06-22T13:50:29Z</time>
      </trkpt>
      <trkpt lat="46.87926" lon="6.5586">
        <ele>1104</ele>
        <time>2017-06-22T13:50:33Z</time>
      </trkpt>
      <trkpt lat="46.87918" lon="6.55859">
        <ele>1102</ele>
        <time>2017-06-22T13:50:37Z</time>
      </trkpt>
      <trkpt lat="46.87904" lon="6.55854">
        <ele>1100</ele>
        <time>2017-06-22T13:50:42Z</time>
      </trkpt>
      <trkpt lat="46.87893" lon="6.55848">
        <ele>1105</ele>
        <time>2017-06-22T13:50:46Z</time>
      </trkpt>
      <trkpt lat="46.87884" lon="6.55841">
        <ele>1111</ele>
        <time>2017-06-22T13:50:51Z</time>
      </trkpt>
      <trkpt lat="46.87877" lon="6.55835">
        <ele>1111</ele>
        <time>2017-06-22T13:50:55Z</time>
      </trkpt>
      <trkpt lat="46.87865" lon="6.55825">
        <ele>1107</ele>
        <time>2017-06-22T13:50:59Z</time>
      </trkpt>
      <trkpt lat="46.87854" lon="6.55813">
        <ele>1108</ele>
        <time>2017-06-22T13:51:04Z</time>
      </trkpt>
      <trkpt lat="46.87845" lon="6.55804">
        <ele>1112</ele>
        <time>2017-06-22T13:51:09Z</time>
      </trkpt>
      <trkpt lat="46.87841" lon="6.55789">
        <ele>1111</ele>
        <time>2017-06-22T13:51:14Z</time>
      </trkpt>
      <trkpt lat="46.87841" lon="6.55781">
        <ele>1109</ele>
        <time>2017-06-22T13:51:17Z</time>
      </trkpt>
      <trkpt lat="46.87849" lon="6.55766">
        <ele>1112</ele>
        <time>2017-06-22T13:51:22Z</time>
      </trkpt>
      <trkpt lat="46.87856" lon="6.55773">
        <ele>1110</ele>
        <time>2017-06-22T13:51:27Z</time>
      </trkpt>
      <trkpt lat="46.87862" lon="6.55782">
        <ele>1110</ele>
        <time>2017-06-22T13:51:31Z</time>
      </trkpt>
      <trkpt lat="46.87874" lon="6.55788">
        <ele>1110</ele>
        <time>2017-06-22T13:51:35Z</time>
      </trkpt>
      <trkpt lat="46.87888" lon="6.55783">
        <ele>1118</ele>
        <time>2017-06-22T13:51:40Z</time>
      </trkpt>
      <trkpt lat="46.87899" lon="6.55777">
        <ele>1121</ele>
        <time>2017-06-22T13:51:44Z</time>
      </trkpt>
      <trkpt lat="46.87911" lon="6.55777">
        <ele>1127</ele>
        <time>2017-06-22T13:51:48Z</time>
      </trkpt>
      <trkpt lat="46.87924" lon="6.55775">
        <ele>1131</ele>
        <time>2017-06-22T13:51:53Z</time>
      </trkpt>
      <trkpt lat="46.87934" lon="6.55773">
        <ele>1132</ele>
        <time>2017-06-22T13:51:57Z</time>
      </trkpt>
      <trkpt lat="46.87942" lon="6.55767">
        <ele>1133</ele>
        <time>2017-06-22T13:52:01Z</time>
      </trkpt>
      <trkpt lat="46.87934" lon="6.55763">
        <ele>1128</ele>
        <time>2017-06-22T13:52:10Z</time>
      </trkpt>
      <trkpt lat="46.87925" lon="6.55762">
        <ele>1135</ele>
        <time>2017-06-22T13:52:24Z</time>
      </trkpt>
      <trkpt lat="46.87919" lon="6.55758">
        <ele>1137</ele>
        <time>2017-06-22T13:52:29Z</time>
      </trkpt>
      <trkpt lat="46.8791" lon="6.55756">
        <ele>1136</ele>
        <time>2017-06-22T13:52:34Z</time>
      </trkpt>
      <trkpt lat="46.87902" lon="6.55752">
        <ele>1138</ele>
        <time>2017-06-22T13:52:38Z</time>
      </trkpt>
      <trkpt lat="46.87892" lon="6.55745">
        <ele>1140</ele>
        <time>2017-06-22T13:52:43Z</time>
      </trkpt>
      <trkpt lat="46.87881" lon="6.55736">
        <ele>1139</ele>
        <time>2017-06-22T13:52:48Z</time>
      </trkpt>
      <trkpt lat="46.87874" lon="6.55727">
        <ele>1140</ele>
        <time>2017-06-22T13:52:52Z</time>
      </trkpt>
      <trkpt lat="46.87862" lon="6.55721">
        <ele>1145</ele>
        <time>2017-06-22T13:52:57Z</time>
      </trkpt>
      <trkpt lat="46.87854" lon="6.55718">
        <ele>1146</ele>
        <time>2017-06-22T13:53:01Z</time>
      </trkpt>
      <trkpt lat="46.87845" lon="6.5571">
        <ele>1151</ele>
        <time>2017-06-22T13:53:06Z</time>
      </trkpt>
      <trkpt lat="46.87838" lon="6.55705">
        <ele>1148</ele>
        <time>2017-06-22T13:53:11Z</time>
      </trkpt>
      <trkpt lat="46.87827" lon="6.55697">
        <ele>1153</ele>
        <time>2017-06-22T13:53:16Z</time>
      </trkpt>
      <trkpt lat="46.87821" lon="6.55693">
        <ele>1156</ele>
        <time>2017-06-22T13:53:21Z</time>
      </trkpt>
      <trkpt lat="46.87815" lon="6.55681">
        <ele>1160</ele>
        <time>2017-06-22T13:53:26Z</time>
      </trkpt>
      <trkpt lat="46.8781" lon="6.55672">
        <ele>1164</ele>
        <time>2017-06-22T13:53:31Z</time>
      </trkpt>
      <trkpt lat="46.87803" lon="6.55663">
        <ele>1164</ele>
        <time>2017-06-22T13:53:36Z</time>
      </trkpt>
      <trkpt lat="46.87795" lon="6.55656">
        <ele>1164</ele>
        <time>2017-06-22T13:53:40Z</time>
      </trkpt>
      <trkpt lat="46.87787" lon="6.55648">
        <ele>1167</ele>
        <time>2017-06-22T13:53:44Z</time>
      </trkpt>
      <trkpt lat="46.87778" lon="6.55635">
        <ele>1165</ele>
        <time>2017-06-22T13:53:48Z</time>
      </trkpt>
      <trkpt lat="46.87773" lon="6.55624">
        <ele>1165</ele>
        <time>2017-06-22T13:53:52Z</time>
      </trkpt>
      <trkpt lat="46.87765" lon="6.55618">
        <ele>1169</ele>
        <time>2017-06-22T13:53:56Z</time>
      </trkpt>
      <trkpt lat="46.87762" lon="6.55605">
        <ele>1175</ele>
        <time>2017-06-22T13:54:01Z</time>
      </trkpt>
      <trkpt lat="46.87761" lon="6.55596">
        <ele>1176</ele>
        <time>2017-06-22T13:54:05Z</time>
      </trkpt>
      <trkpt lat="46.8776" lon="6.55584">
        <ele>1182</ele>
        <time>2017-06-22T13:54:10Z</time>
      </trkpt>
      <trkpt lat="46.87759" lon="6.55573">
        <ele>1187</ele>
        <time>2017-06-22T13:54:17Z</time>
      </trkpt>
      <trkpt lat="46.87753" lon="6.55564">
        <ele>1184</ele>
        <time>2017-06-22T13:54:21Z</time>
      </trkpt>
      <trkpt lat="46.87746" lon="6.55549">
        <ele>1178</ele>
        <time>2017-06-22T13:54:26Z</time>
      </trkpt>
      <trkpt lat="46.87738" lon="6.55535">
        <ele>1177</ele>
        <time>2017-06-22T13:54:31Z</time>
      </trkpt>
      <trkpt lat="46.87733" lon="6.55524">
        <ele>1177</ele>
        <time>2017-06-22T13:54:35Z</time>
      </trkpt>
      <trkpt lat="46.87728" lon="6.55513">
        <ele>1177</ele>
        <time>2017-06-22T13:54:39Z</time>
      </trkpt>
      <trkpt lat="46.87722" lon="6.55506">
        <ele>1178</ele>
        <time>2017-06-22T13:54:43Z</time>
      </trkpt>
      <trkpt lat="46.87716" lon="6.55494">
        <ele>1177</ele>
        <time>2017-06-22T13:54:48Z</time>
      </trkpt>
      <trkpt lat="46.87716" lon="6.55476">
        <ele>1170</ele>
        <time>2017-06-22T13:54:53Z</time>
      </trkpt>
      <trkpt lat="46.87727" lon="6.5546">
        <ele>1169</ele>
        <time>2017-06-22T13:54:57Z</time>
      </trkpt>
      <trkpt lat="46.87738" lon="6.55457">
        <ele>1170</ele>
        <time>2017-06-22T13:55:02Z</time>
      </trkpt>
      <trkpt lat="46.87746" lon="6.55457">
        <ele>1171</ele>
        <time>2017-06-22T13:55:05Z</time>
      </trkpt>
      <trkpt lat="46.87755" lon="6.55457">
        <ele>1173</ele>
        <time>2017-06-22T13:55:09Z</time>
      </trkpt>
      <trkpt lat="46.87767" lon="6.55453">
        <ele>1175</ele>
        <time>2017-06-22T13:55:14Z</time>
      </trkpt>
      <trkpt lat="46.87775" lon="6.55448">
        <ele>1177</ele>
        <time>2017-06-22T13:55:18Z</time>
      </trkpt>
      <trkpt lat="46.87778" lon="6.5544">
        <ele>1176</ele>
        <time>2017-06-22T13:55:21Z</time>
      </trkpt>
      <trkpt lat="46.87778" lon="6.55425">
        <ele>1174</ele>
        <time>2017-06-22T13:55:26Z</time>
      </trkpt>
      <trkpt lat="46.87772" lon="6.5541">
        <ele>1175</ele>
        <time>2017-06-22T13:55:31Z</time>
      </trkpt>
      <trkpt lat="46.87766" lon="6.55402">
        <ele>1176</ele>
        <time>2017-06-22T13:55:36Z</time>
      </trkpt>
      <trkpt lat="46.87759" lon="6.55394">
        <ele>1177</ele>
        <time>2017-06-22T13:55:41Z</time>
      </trkpt>
      <trkpt lat="46.87754" lon="6.55385">
        <ele>1178</ele>
        <time>2017-06-22T13:55:47Z</time>
      </trkpt>
      <trkpt lat="46.8775" lon="6.55377">
        <ele>1178</ele>
        <time>2017-06-22T13:55:51Z</time>
      </trkpt>
      <trkpt lat="46.87744" lon="6.55366">
        <ele>1179</ele>
        <time>2017-06-22T13:55:56Z</time>
      </trkpt>
      <trkpt lat="46.8774" lon="6.55353">
        <ele>1181</ele>
        <time>2017-06-22T13:56:01Z</time>
      </trkpt>
      <trkpt lat="46.87734" lon="6.55342">
        <ele>1182</ele>
        <time>2017-06-22T13:56:05Z</time>
      </trkpt>
      <trkpt lat="46.8773" lon="6.55335">
        <ele>1183</ele>
        <time>2017-06-22T13:56:09Z</time>
      </trkpt>
      <trkpt lat="46.87725" lon="6.55323">
        <ele>1184</ele>
        <time>2017-06-22T13:56:14Z</time>
      </trkpt>
      <trkpt lat="46.87721" lon="6.55311">
        <ele>1188</ele>
        <time>2017-06-22T13:56:19Z</time>
      </trkpt>
      <trkpt lat="46.87717" lon="6.55302">
        <ele>1190</ele>
        <time>2017-06-22T13:56:23Z</time>
      </trkpt>
      <trkpt lat="46.87712" lon="6.55294">
        <ele>1192</ele>
        <time>2017-06-22T13:56:27Z</time>
      </trkpt>
      <trkpt lat="46.87705" lon="6.55285">
        <ele>1192</ele>
        <time>2017-06-22T13:56:32Z</time>
      </trkpt>
      <trkpt lat="46.87697" lon="6.55278">
        <ele>1194</ele>
        <time>2017-06-22T13:56:37Z</time>
      </trkpt>
      <trkpt lat="46.87687" lon="6.55269">
        <ele>1194</ele>
        <time>2017-06-22T13:56:42Z</time>
      </trkpt>
      <trkpt lat="46.87683" lon="6.5526">
        <ele>1195</ele>
        <time>2017-06-22T13:56:45Z</time>
      </trkpt>
      <trkpt lat="46.87693" lon="6.55246">
        <ele>1196</ele>
        <time>2017-06-22T13:56:50Z</time>
      </trkpt>
      <trkpt lat="46.87708" lon="6.55249">
        <ele>1195</ele>
        <time>2017-06-22T13:56:55Z</time>
      </trkpt>
      <trkpt lat="46.8772" lon="6.55253">
        <ele>1196</ele>
        <time>2017-06-22T13:56:59Z</time>
      </trkpt>
      <trkpt lat="46.87733" lon="6.55258">
        <ele>1199</ele>
        <time>2017-06-22T13:57:04Z</time>
      </trkpt>
      <trkpt lat="46.87747" lon="6.55266">
        <ele>1200</ele>
        <time>2017-06-22T13:57:09Z</time>
      </trkpt>
      <trkpt lat="46.87761" lon="6.55269">
        <ele>1203</ele>
        <time>2017-06-22T13:57:14Z</time>
      </trkpt>
      <trkpt lat="46.87771" lon="6.55265">
        <ele>1200</ele>
        <time>2017-06-22T13:57:18Z</time>
      </trkpt>
      <trkpt lat="46.87768" lon="6.5525">
        <ele>1202</ele>
        <time>2017-06-22T13:57:21Z</time>
      </trkpt>
      <trkpt lat="46.87757" lon="6.55242">
        <ele>1202</ele>
        <time>2017-06-22T13:57:26Z</time>
      </trkpt>
      <trkpt lat="46.87746" lon="6.55231">
        <ele>1203</ele>
        <time>2017-06-22T13:57:30Z</time>
      </trkpt>
      <trkpt lat="46.87738" lon="6.5522">
        <ele>1204</ele>
        <time>2017-06-22T13:57:34Z</time>
      </trkpt>
      <trkpt lat="46.87732" lon="6.5521">
        <ele>1206</ele>
        <time>2017-06-22T13:57:38Z</time>
      </trkpt>
      <trkpt lat="46.87727" lon="6.55203">
        <ele>1207</ele>
        <time>2017-06-22T13:57:42Z</time>
      </trkpt>
      <trkpt lat="46.87719" lon="6.5519">
        <ele>1208</ele>
        <time>2017-06-22T13:57:47Z</time>
      </trkpt>
      <trkpt lat="46.87711" lon="6.55178">
        <ele>1208</ele>
        <time>2017-06-22T13:57:52Z</time>
      </trkpt>
      <trkpt lat="46.87703" lon="6.55167">
        <ele>1211</ele>
        <time>2017-06-22T13:57:57Z</time>
      </trkpt>
      <trkpt lat="46.87696" lon="6.55158">
        <ele>1211</ele>
        <time>2017-06-22T13:58:01Z</time>
      </trkpt>
      <trkpt lat="46.87687" lon="6.55147">
        <ele>1212</ele>
        <time>2017-06-22T13:58:06Z</time>
      </trkpt>
      <trkpt lat="46.87681" lon="6.55137">
        <ele>1213</ele>
        <time>2017-06-22T13:58:10Z</time>
      </trkpt>
      <trkpt lat="46.87673" lon="6.55124">
        <ele>1214</ele>
        <time>2017-06-22T13:58:15Z</time>
      </trkpt>
      <trkpt lat="46.87666" lon="6.55111">
        <ele>1215</ele>
        <time>2017-06-22T13:58:20Z</time>
      </trkpt>
      <trkpt lat="46.8766" lon="6.55099">
        <ele>1216</ele>
        <time>2017-06-22T13:58:24Z</time>
      </trkpt>
      <trkpt lat="46.87654" lon="6.55083">
        <ele>1217</ele>
        <time>2017-06-22T13:58:29Z</time>
      </trkpt>
      <trkpt lat="46.87651" lon="6.55074">
        <ele>1218</ele>
        <time>2017-06-22T13:58:32Z</time>
      </trkpt>
      <trkpt lat="46.87644" lon="6.5506">
        <ele>1219</ele>
        <time>2017-06-22T13:58:37Z</time>
      </trkpt>
      <trkpt lat="46.87637" lon="6.55045">
        <ele>1220</ele>
        <time>2017-06-22T13:58:41Z</time>
      </trkpt>
      <trkpt lat="46.8763" lon="6.55035">
        <ele>1220</ele>
        <time>2017-06-22T13:58:45Z</time>
      </trkpt>
      <trkpt lat="46.87622" lon="6.55023">
        <ele>1219</ele>
        <time>2017-06-22T13:58:49Z</time>
      </trkpt>
      <trkpt lat="46.87615" lon="6.55011">
        <ele>1220</ele>
        <time>2017-06-22T13:58:54Z</time>
      </trkpt>
      <trkpt lat="46.87609" lon="6.54995">
        <ele>1221</ele>
        <time>2017-06-22T13:58:58Z</time>
      </trkpt>
      <trkpt lat="46.87599" lon="6.54977">
        <ele>1223</ele>
        <time>2017-06-22T13:59:02Z</time>
      </trkpt>
      <trkpt lat="46.87589" lon="6.5496">
        <ele>1223</ele>
        <time>2017-06-22T13:59:07Z</time>
      </trkpt>
      <trkpt lat="46.87581" lon="6.54947">
        <ele>1224</ele>
        <time>2017-06-22T13:59:12Z</time>
      </trkpt>
      <trkpt lat="46.87567" lon="6.54943">
        <ele>1226</ele>
        <time>2017-06-22T13:59:16Z</time>
      </trkpt>
      <trkpt lat="46.87559" lon="6.54946">
        <ele>1227</ele>
        <time>2017-06-22T13:59:21Z</time>
      </trkpt>
      <trkpt lat="46.87553" lon="6.54953">
        <ele>1227</ele>
        <time>2017-06-22T13:59:25Z</time>
      </trkpt>
      <trkpt lat="46.87546" lon="6.54964">
        <ele>1228</ele>
        <time>2017-06-22T13:59:29Z</time>
      </trkpt>
      <trkpt lat="46.87543" lon="6.54975">
        <ele>1227</ele>
        <time>2017-06-22T13:59:33Z</time>
      </trkpt>
      <trkpt lat="46.87539" lon="6.54986">
        <ele>1228</ele>
        <time>2017-06-22T13:59:37Z</time>
      </trkpt>
      <trkpt lat="46.87537" lon="6.54995">
        <ele>1231</ele>
        <time>2017-06-22T13:59:41Z</time>
      </trkpt>
      <trkpt lat="46.87536" lon="6.55005">
        <ele>1231</ele>
        <time>2017-06-22T13:59:44Z</time>
      </trkpt>
      <trkpt lat="46.87535" lon="6.5502">
        <ele>1233</ele>
        <time>2017-06-22T13:59:49Z</time>
      </trkpt>
      <trkpt lat="46.87532" lon="6.55035">
        <ele>1233</ele>
        <time>2017-06-22T13:59:54Z</time>
      </trkpt>
      <trkpt lat="46.87529" lon="6.55048">
        <ele>1236</ele>
        <time>2017-06-22T13:59:58Z</time>
      </trkpt>
      <trkpt lat="46.87529" lon="6.55062">
        <ele>1236</ele>
        <time>2017-06-22T14:00:02Z</time>
      </trkpt>
      <trkpt lat="46.87528" lon="6.5508">
        <ele>1238</ele>
        <time>2017-06-22T14:00:07Z</time>
      </trkpt>
      <trkpt lat="46.87528" lon="6.55097">
        <ele>1240</ele>
        <time>2017-06-22T14:00:12Z</time>
      </trkpt>
      <trkpt lat="46.87527" lon="6.55114">
        <ele>1240</ele>
        <time>2017-06-22T14:00:17Z</time>
      </trkpt>
      <trkpt lat="46.87526" lon="6.55128">
        <ele>1241</ele>
        <time>2017-06-22T14:00:21Z</time>
      </trkpt>
      <trkpt lat="46.87526" lon="6.55149">
        <ele>1243</ele>
        <time>2017-06-22T14:00:26Z</time>
      </trkpt>
      <trkpt lat="46.87527" lon="6.55167">
        <ele>1244</ele>
        <time>2017-06-22T14:00:31Z</time>
      </trkpt>
      <trkpt lat="46.87529" lon="6.5518">
        <ele>1246</ele>
        <time>2017-06-22T14:00:35Z</time>
      </trkpt>
      <trkpt lat="46.87528" lon="6.55194">
        <ele>1247</ele>
        <time>2017-06-22T14:00:39Z</time>
      </trkpt>
      <trkpt lat="46.87528" lon="6.55205">
        <ele>1247</ele>
        <time>2017-06-22T14:00:43Z</time>
      </trkpt>
      <trkpt lat="46.87529" lon="6.55222">
        <ele>1247</ele>
        <time>2017-06-22T14:00:48Z</time>
      </trkpt>
      <trkpt lat="46.87528" lon="6.5524">
        <ele>1249</ele>
        <time>2017-06-22T14:00:53Z</time>
      </trkpt>
      <trkpt lat="46.87528" lon="6.55257">
        <ele>1255</ele>
        <time>2017-06-22T14:00:58Z</time>
      </trkpt>
      <trkpt lat="46.87527" lon="6.55271">
        <ele>1255</ele>
        <time>2017-06-22T14:01:02Z</time>
      </trkpt>
      <trkpt lat="46.87526" lon="6.55285">
        <ele>1255</ele>
        <time>2017-06-22T14:01:06Z</time>
      </trkpt>
      <trkpt lat="46.87525" lon="6.55303">
        <ele>1256</ele>
        <time>2017-06-22T14:01:11Z</time>
      </trkpt>
      <trkpt lat="46.87523" lon="6.55317">
        <ele>1257</ele>
        <time>2017-06-22T14:01:15Z</time>
      </trkpt>
      <trkpt lat="46.87522" lon="6.55332">
        <ele>1258</ele>
        <time>2017-06-22T14:01:20Z</time>
      </trkpt>
      <trkpt lat="46.87521" lon="6.55347">
        <ele>1259</ele>
        <time>2017-06-22T14:01:25Z</time>
      </trkpt>
      <trkpt lat="46.87519" lon="6.55359">
        <ele>1259</ele>
        <time>2017-06-22T14:01:29Z</time>
      </trkpt>
      <trkpt lat="46.87516" lon="6.55375">
        <ele>1260</ele>
        <time>2017-06-22T14:01:33Z</time>
      </trkpt>
      <trkpt lat="46.87514" lon="6.55391">
        <ele>1260</ele>
        <time>2017-06-22T14:01:38Z</time>
      </trkpt>
      <trkpt lat="46.87512" lon="6.55407">
        <ele>1264</ele>
        <time>2017-06-22T14:01:43Z</time>
      </trkpt>
      <trkpt lat="46.8751" lon="6.55421">
        <ele>1263</ele>
        <time>2017-06-22T14:01:48Z</time>
      </trkpt>
      <trkpt lat="46.87508" lon="6.55433">
        <ele>1264</ele>
        <time>2017-06-22T14:01:52Z</time>
      </trkpt>
      <trkpt lat="46.87506" lon="6.55442">
        <ele>1266</ele>
        <time>2017-06-22T14:01:55Z</time>
      </trkpt>
      <trkpt lat="46.87504" lon="6.55454">
        <ele>1267</ele>
        <time>2017-06-22T14:02:00Z</time>
      </trkpt>
      <trkpt lat="46.87501" lon="6.55462">
        <ele>1267</ele>
        <time>2017-06-22T14:02:02Z</time>
      </trkpt>
      <trkpt lat="46.87497" lon="6.55476">
        <ele>1268</ele>
        <time>2017-06-22T14:02:07Z</time>
      </trkpt>
      <trkpt lat="46.87494" lon="6.55491">
        <ele>1269</ele>
        <time>2017-06-22T14:02:12Z</time>
      </trkpt>
      <trkpt lat="46.87492" lon="6.55503">
        <ele>1270</ele>
        <time>2017-06-22T14:02:16Z</time>
      </trkpt>
      <trkpt lat="46.87492" lon="6.55506">
        <ele>1270</ele>
        <time>2017-06-22T14:02:17Z</time>
      </trkpt>
      <trkpt lat="46.8749" lon="6.55518">
        <ele>1271</ele>
        <time>2017-06-22T14:02:22Z</time>
      </trkpt>
      <trkpt lat="46.87492" lon="6.55534">
        <ele>1272</ele>
        <time>2017-06-22T14:02:27Z</time>
      </trkpt>
      <trkpt lat="46.87492" lon="6.55552">
        <ele>1273</ele>
        <time>2017-06-22T14:02:32Z</time>
      </trkpt>
      <trkpt lat="46.87491" lon="6.55566">
        <ele>1274</ele>
        <time>2017-06-22T14:02:36Z</time>
      </trkpt>
      <trkpt lat="46.87489" lon="6.5558">
        <ele>1274</ele>
        <time>2017-06-22T14:02:40Z</time>
      </trkpt>
      <trkpt lat="46.87487" lon="6.55596">
        <ele>1275</ele>
        <time>2017-06-22T14:02:45Z</time>
      </trkpt>
      <trkpt lat="46.87487" lon="6.55612">
        <ele>1277</ele>
        <time>2017-06-22T14:02:50Z</time>
      </trkpt>
      <trkpt lat="46.87486" lon="6.55625">
        <ele>1278</ele>
        <time>2017-06-22T14:02:54Z</time>
      </trkpt>
      <trkpt lat="46.87485" lon="6.5564">
        <ele>1279</ele>
        <time>2017-06-22T14:02:59Z</time>
      </trkpt>
      <trkpt lat="46.87484" lon="6.55654">
        <ele>1281</ele>
        <time>2017-06-22T14:03:04Z</time>
      </trkpt>
      <trkpt lat="46.87482" lon="6.55663">
        <ele>1281</ele>
        <time>2017-06-22T14:03:07Z</time>
      </trkpt>
      <trkpt lat="46.8748" lon="6.55672">
        <ele>1281</ele>
        <time>2017-06-22T14:03:10Z</time>
      </trkpt>
      <trkpt lat="46.87479" lon="6.55686">
        <ele>1284</ele>
        <time>2017-06-22T14:03:15Z</time>
      </trkpt>
      <trkpt lat="46.87478" lon="6.557">
        <ele>1288</ele>
        <time>2017-06-22T14:03:20Z</time>
      </trkpt>
      <trkpt lat="46.87477" lon="6.55711">
        <ele>1288</ele>
        <time>2017-06-22T14:03:24Z</time>
      </trkpt>
      <trkpt lat="46.87473" lon="6.55728">
        <ele>1289</ele>
        <time>2017-06-22T14:03:29Z</time>
      </trkpt>
      <trkpt lat="46.87472" lon="6.55738">
        <ele>1274</ele>
        <time>2017-06-22T14:03:34Z</time>
      </trkpt>
      <trkpt lat="46.87471" lon="6.55751">
        <ele>1289</ele>
        <time>2017-06-22T14:03:39Z</time>
      </trkpt>
      <trkpt lat="46.87469" lon="6.55763">
        <ele>1296</ele>
        <time>2017-06-22T14:03:44Z</time>
      </trkpt>
      <trkpt lat="46.87466" lon="6.55776">
        <ele>1302</ele>
        <time>2017-06-22T14:03:50Z</time>
      </trkpt>
      <trkpt lat="46.87462" lon="6.55788">
        <ele>1307</ele>
        <time>2017-06-22T14:03:55Z</time>
      </trkpt>
      <trkpt lat="46.87456" lon="6.558">
        <ele>1310</ele>
        <time>2017-06-22T14:04:00Z</time>
      </trkpt>
      <trkpt lat="46.87453" lon="6.55812">
        <ele>1315</ele>
        <time>2017-06-22T14:04:05Z</time>
      </trkpt>
      <trkpt lat="46.87451" lon="6.55825">
        <ele>1317</ele>
        <time>2017-06-22T14:04:10Z</time>
      </trkpt>
      <trkpt lat="46.87448" lon="6.55836">
        <ele>1316</ele>
        <time>2017-06-22T14:04:14Z</time>
      </trkpt>
      <trkpt lat="46.87446" lon="6.55848">
        <ele>1316</ele>
        <time>2017-06-22T14:04:18Z</time>
      </trkpt>
      <trkpt lat="46.87448" lon="6.55859">
        <ele>1320</ele>
        <time>2017-06-22T14:04:22Z</time>
      </trkpt>
      <trkpt lat="46.87447" lon="6.55874">
        <ele>1312</ele>
        <time>2017-06-22T14:04:27Z</time>
      </trkpt>
      <trkpt lat="46.87446" lon="6.55887">
        <ele>1313</ele>
        <time>2017-06-22T14:04:31Z</time>
      </trkpt>
      <trkpt lat="46.87445" lon="6.55904">
        <ele>1316</ele>
        <time>2017-06-22T14:04:36Z</time>
      </trkpt>
      <trkpt lat="46.8744" lon="6.55918">
        <ele>1323</ele>
        <time>2017-06-22T14:04:40Z</time>
      </trkpt>
      <trkpt lat="46.87435" lon="6.55932">
        <ele>1329</ele>
        <time>2017-06-22T14:04:45Z</time>
      </trkpt>
      <trkpt lat="46.87424" lon="6.55945">
        <ele>1330</ele>
        <time>2017-06-22T14:04:49Z</time>
      </trkpt>
      <trkpt lat="46.8741" lon="6.5595">
        <ele>1326</ele>
        <time>2017-06-22T14:04:53Z</time>
      </trkpt>
      <trkpt lat="46.87402" lon="6.55964">
        <ele>1325</ele>
        <time>2017-06-22T14:04:57Z</time>
      </trkpt>
      <trkpt lat="46.87396" lon="6.55984">
        <ele>1324</ele>
        <time>2017-06-22T14:05:01Z</time>
      </trkpt>
      <trkpt lat="46.87383" lon="6.56013">
        <ele>1323</ele>
        <time>2017-06-22T14:05:05Z</time>
      </trkpt>
      <trkpt lat="46.87365" lon="6.56038">
        <ele>1324</ele>
        <time>2017-06-22T14:05:10Z</time>
      </trkpt>
      <trkpt lat="46.87354" lon="6.56047">
        <ele>1324</ele>
        <time>2017-06-22T14:05:13Z</time>
      </trkpt>
      <trkpt lat="46.87342" lon="6.56053">
        <ele>1324</ele>
        <time>2017-06-22T14:05:17Z</time>
      </trkpt>
      <trkpt lat="46.87326" lon="6.56059">
        <ele>1325</ele>
        <time>2017-06-22T14:05:21Z</time>
      </trkpt>
      <trkpt lat="46.87306" lon="6.56064">
        <ele>1323</ele>
        <time>2017-06-22T14:05:25Z</time>
      </trkpt>
      <trkpt lat="46.87291" lon="6.56068">
        <ele>1326</ele>
        <time>2017-06-22T14:05:29Z</time>
      </trkpt>
      <trkpt lat="46.87276" lon="6.56076">
        <ele>1326</ele>
        <time>2017-06-22T14:05:33Z</time>
      </trkpt>
      <trkpt lat="46.87265" lon="6.56092">
        <ele>1327</ele>
        <time>2017-06-22T14:05:38Z</time>
      </trkpt>
      <trkpt lat="46.8726" lon="6.56118">
        <ele>1321</ele>
        <time>2017-06-22T14:05:43Z</time>
      </trkpt>
      <trkpt lat="46.87258" lon="6.56142">
        <ele>1321</ele>
        <time>2017-06-22T14:05:48Z</time>
      </trkpt>
      <trkpt lat="46.87258" lon="6.56162">
        <ele>1322</ele>
        <time>2017-06-22T14:05:52Z</time>
      </trkpt>
      <trkpt lat="46.87257" lon="6.56181">
        <ele>1323</ele>
        <time>2017-06-22T14:05:56Z</time>
      </trkpt>
      <trkpt lat="46.87255" lon="6.56204">
        <ele>1324</ele>
        <time>2017-06-22T14:06:01Z</time>
      </trkpt>
      <trkpt lat="46.87255" lon="6.56221">
        <ele>1324</ele>
        <time>2017-06-22T14:06:05Z</time>
      </trkpt>
      <trkpt lat="46.87253" lon="6.56241">
        <ele>1326</ele>
        <time>2017-06-22T14:06:09Z</time>
      </trkpt>
      <trkpt lat="46.87252" lon="6.56264">
        <ele>1327</ele>
        <time>2017-06-22T14:06:13Z</time>
      </trkpt>
      <trkpt lat="46.87251" lon="6.56281">
        <ele>1328</ele>
        <time>2017-06-22T14:06:18Z</time>
      </trkpt>
      <trkpt lat="46.87249" lon="6.56303">
        <ele>1329</ele>
        <time>2017-06-22T14:06:23Z</time>
      </trkpt>
      <trkpt lat="46.87242" lon="6.56325">
        <ele>1331</ele>
        <time>2017-06-22T14:06:28Z</time>
      </trkpt>
      <trkpt lat="46.87229" lon="6.56331">
        <ele>1331</ele>
        <time>2017-06-22T14:06:32Z</time>
      </trkpt>
      <trkpt lat="46.87218" lon="6.5632">
        <ele>1332</ele>
        <time>2017-06-22T14:06:35Z</time>
      </trkpt>
      <trkpt lat="46.87215" lon="6.56306">
        <ele>1332</ele>
        <time>2017-06-22T14:06:39Z</time>
      </trkpt>
      <trkpt lat="46.87211" lon="6.56284">
        <ele>1333</ele>
        <time>2017-06-22T14:06:43Z</time>
      </trkpt>
      <trkpt lat="46.87204" lon="6.56256">
        <ele>1333</ele>
        <time>2017-06-22T14:06:48Z</time>
      </trkpt>
      <trkpt lat="46.87199" lon="6.56241">
        <ele>1335</ele>
        <time>2017-06-22T14:06:51Z</time>
      </trkpt>
      <trkpt lat="46.87192" lon="6.56221">
        <ele>1336</ele>
        <time>2017-06-22T14:06:56Z</time>
      </trkpt>
      <trkpt lat="46.87185" lon="6.56205">
        <ele>1337</ele>
        <time>2017-06-22T14:07:00Z</time>
      </trkpt>
      <trkpt lat="46.87176" lon="6.56184">
        <ele>1337</ele>
        <time>2017-06-22T14:07:04Z</time>
      </trkpt>
      <trkpt lat="46.87167" lon="6.5616">
        <ele>1338</ele>
        <time>2017-06-22T14:07:09Z</time>
      </trkpt>
      <trkpt lat="46.87159" lon="6.5614">
        <ele>1341</ele>
        <time>2017-06-22T14:07:14Z</time>
      </trkpt>
      <trkpt lat="46.8715" lon="6.56119">
        <ele>1341</ele>
        <time>2017-06-22T14:07:18Z</time>
      </trkpt>
      <trkpt lat="46.87139" lon="6.5609">
        <ele>1340</ele>
        <time>2017-06-22T14:07:22Z</time>
      </trkpt>
      <trkpt lat="46.87131" lon="6.56068">
        <ele>1340</ele>
        <time>2017-06-22T14:07:27Z</time>
      </trkpt>
      <trkpt lat="46.8712" lon="6.56044">
        <ele>1340</ele>
        <time>2017-06-22T14:07:31Z</time>
      </trkpt>
      <trkpt lat="46.87111" lon="6.56025">
        <ele>1339</ele>
        <time>2017-06-22T14:07:36Z</time>
      </trkpt>
      <trkpt lat="46.87101" lon="6.56007">
        <ele>1338</ele>
        <time>2017-06-22T14:07:40Z</time>
      </trkpt>
      <trkpt lat="46.8709" lon="6.55981">
        <ele>1339</ele>
        <time>2017-06-22T14:07:44Z</time>
      </trkpt>
      <trkpt lat="46.87081" lon="6.55954">
        <ele>1339</ele>
        <time>2017-06-22T14:07:49Z</time>
      </trkpt>
      <trkpt lat="46.87074" lon="6.55932">
        <ele>1339</ele>
        <time>2017-06-22T14:07:54Z</time>
      </trkpt>
      <trkpt lat="46.8707" lon="6.55914">
        <ele>1338</ele>
        <time>2017-06-22T14:07:57Z</time>
      </trkpt>
      <trkpt lat="46.87065" lon="6.55891">
        <ele>1337</ele>
        <time>2017-06-22T14:08:01Z</time>
      </trkpt>
      <trkpt lat="46.87056" lon="6.55873">
        <ele>1336</ele>
        <time>2017-06-22T14:08:06Z</time>
      </trkpt>
      <trkpt lat="46.87045" lon="6.5586">
        <ele>1336</ele>
        <time>2017-06-22T14:08:11Z</time>
      </trkpt>
      <trkpt lat="46.8705" lon="6.55864">
        <ele>1336</ele>
        <time>2017-06-22T14:08:17Z</time>
      </trkpt>
      <trkpt lat="46.87057" lon="6.55874">
        <ele>1337</ele>
        <time>2017-06-22T14:08:21Z</time>
      </trkpt>
      <trkpt lat="46.8705" lon="6.55866">
        <ele>1337</ele>
        <time>2017-06-22T14:17:09Z</time>
      </trkpt>
      <trkpt lat="46.8704" lon="6.55856">
        <ele>1337</ele>
        <time>2017-06-22T14:17:14Z</time>
      </trkpt>
      <trkpt lat="46.8703" lon="6.55847">
        <ele>1338</ele>
        <time>2017-06-22T14:17:18Z</time>
      </trkpt>
      <trkpt lat="46.87017" lon="6.55833">
        <ele>1338</ele>
        <time>2017-06-22T14:17:23Z</time>
      </trkpt>
      <trkpt lat="46.87004" lon="6.55819">
        <ele>1338</ele>
        <time>2017-06-22T14:17:27Z</time>
      </trkpt>
      <trkpt lat="46.86991" lon="6.55803">
        <ele>1338</ele>
        <time>2017-06-22T14:17:31Z</time>
      </trkpt>
      <trkpt lat="46.86981" lon="6.55791">
        <ele>1340</ele>
        <time>2017-06-22T14:17:34Z</time>
      </trkpt>
      <trkpt lat="46.86972" lon="6.5578">
        <ele>1339</ele>
        <time>2017-06-22T14:17:38Z</time>
      </trkpt>
      <trkpt lat="46.86963" lon="6.55759">
        <ele>1339</ele>
        <time>2017-06-22T14:17:42Z</time>
      </trkpt>
      <trkpt lat="46.86956" lon="6.55737">
        <ele>1339</ele>
        <time>2017-06-22T14:17:46Z</time>
      </trkpt>
      <trkpt lat="46.86949" lon="6.55716">
        <ele>1339</ele>
        <time>2017-06-22T14:17:50Z</time>
      </trkpt>
      <trkpt lat="46.86941" lon="6.55692">
        <ele>1339</ele>
        <time>2017-06-22T14:17:54Z</time>
      </trkpt>
      <trkpt lat="46.86931" lon="6.55669">
        <ele>1339</ele>
        <time>2017-06-22T14:17:58Z</time>
      </trkpt>
      <trkpt lat="46.86917" lon="6.55636">
        <ele>1337</ele>
        <time>2017-06-22T14:18:02Z</time>
      </trkpt>
      <trkpt lat="46.86897" lon="6.55618">
        <ele>1339</ele>
        <time>2017-06-22T14:18:07Z</time>
      </trkpt>
      <trkpt lat="46.86883" lon="6.55603">
        <ele>1339</ele>
        <time>2017-06-22T14:18:11Z</time>
      </trkpt>
      <trkpt lat="46.86868" lon="6.55583">
        <ele>1339</ele>
        <time>2017-06-22T14:18:15Z</time>
      </trkpt>
      <trkpt lat="46.86859" lon="6.55567">
        <ele>1340</ele>
        <time>2017-06-22T14:18:19Z</time>
      </trkpt>
      <trkpt lat="46.86843" lon="6.55541">
        <ele>1339</ele>
        <time>2017-06-22T14:18:24Z</time>
      </trkpt>
      <trkpt lat="46.86831" lon="6.55519">
        <ele>1342</ele>
        <time>2017-06-22T14:18:28Z</time>
      </trkpt>
      <trkpt lat="46.86812" lon="6.5549">
        <ele>1340</ele>
        <time>2017-06-22T14:18:33Z</time>
      </trkpt>
      <trkpt lat="46.86796" lon="6.55467">
        <ele>1339</ele>
        <time>2017-06-22T14:18:38Z</time>
      </trkpt>
      <trkpt lat="46.8678" lon="6.55452">
        <ele>1340</ele>
        <time>2017-06-22T14:18:42Z</time>
      </trkpt>
      <trkpt lat="46.86765" lon="6.55437">
        <ele>1342</ele>
        <time>2017-06-22T14:18:46Z</time>
      </trkpt>
      <trkpt lat="46.86746" lon="6.55418">
        <ele>1341</ele>
        <time>2017-06-22T14:18:51Z</time>
      </trkpt>
      <trkpt lat="46.86727" lon="6.55401">
        <ele>1342</ele>
        <time>2017-06-22T14:18:56Z</time>
      </trkpt>
      <trkpt lat="46.86711" lon="6.55389">
        <ele>1342</ele>
        <time>2017-06-22T14:19:00Z</time>
      </trkpt>
      <trkpt lat="46.86697" lon="6.55382">
        <ele>1344</ele>
        <time>2017-06-22T14:19:03Z</time>
      </trkpt>
      <trkpt lat="46.86676" lon="6.55376">
        <ele>1347</ele>
        <time>2017-06-22T14:19:08Z</time>
      </trkpt>
      <trkpt lat="46.86659" lon="6.55383">
        <ele>1348</ele>
        <time>2017-06-22T14:19:12Z</time>
      </trkpt>
      <trkpt lat="46.86647" lon="6.55402">
        <ele>1347</ele>
        <time>2017-06-22T14:19:16Z</time>
      </trkpt>
      <trkpt lat="46.86642" lon="6.55433">
        <ele>1346</ele>
        <time>2017-06-22T14:19:21Z</time>
      </trkpt>
      <trkpt lat="46.86635" lon="6.55461">
        <ele>1346</ele>
        <time>2017-06-22T14:19:26Z</time>
      </trkpt>
      <trkpt lat="46.86632" lon="6.55481">
        <ele>1347</ele>
        <time>2017-06-22T14:19:30Z</time>
      </trkpt>
      <trkpt lat="46.86629" lon="6.55502">
        <ele>1348</ele>
        <time>2017-06-22T14:19:34Z</time>
      </trkpt>
      <trkpt lat="46.86629" lon="6.55512">
        <ele>1351</ele>
        <time>2017-06-22T14:19:36Z</time>
      </trkpt>
      <trkpt lat="46.86627" lon="6.55533">
        <ele>1358</ele>
        <time>2017-06-22T14:19:41Z</time>
      </trkpt>
      <trkpt lat="46.86618" lon="6.55557">
        <ele>1360</ele>
        <time>2017-06-22T14:19:45Z</time>
      </trkpt>
      <trkpt lat="46.86613" lon="6.55585">
        <ele>1360</ele>
        <time>2017-06-22T14:19:50Z</time>
      </trkpt>
      <trkpt lat="46.86615" lon="6.55614">
        <ele>1366</ele>
        <time>2017-06-22T14:19:55Z</time>
      </trkpt>
      <trkpt lat="46.86611" lon="6.55635">
        <ele>1366</ele>
        <time>2017-06-22T14:19:59Z</time>
      </trkpt>
      <trkpt lat="46.86606" lon="6.55659">
        <ele>1361</ele>
        <time>2017-06-22T14:20:03Z</time>
      </trkpt>
      <trkpt lat="46.86602" lon="6.55685">
        <ele>1361</ele>
        <time>2017-06-22T14:20:08Z</time>
      </trkpt>
      <trkpt lat="46.86601" lon="6.55722">
        <ele>1364</ele>
        <time>2017-06-22T14:20:12Z</time>
      </trkpt>
      <trkpt lat="46.86599" lon="6.55752">
        <ele>1367</ele>
        <time>2017-06-22T14:20:17Z</time>
      </trkpt>
      <trkpt lat="46.86595" lon="6.55774">
        <ele>1367</ele>
        <time>2017-06-22T14:20:20Z</time>
      </trkpt>
      <trkpt lat="46.86586" lon="6.55808">
        <ele>1370</ele>
        <time>2017-06-22T14:20:25Z</time>
      </trkpt>
      <trkpt lat="46.86576" lon="6.55831">
        <ele>1372</ele>
        <time>2017-06-22T14:20:29Z</time>
      </trkpt>
      <trkpt lat="46.86564" lon="6.55857">
        <ele>1368</ele>
        <time>2017-06-22T14:20:33Z</time>
      </trkpt>
      <trkpt lat="46.86552" lon="6.55881">
        <ele>1363</ele>
        <time>2017-06-22T14:20:37Z</time>
      </trkpt>
      <trkpt lat="46.86545" lon="6.55908">
        <ele>1361</ele>
        <time>2017-06-22T14:20:41Z</time>
      </trkpt>
      <trkpt lat="46.86545" lon="6.55942">
        <ele>1363</ele>
        <time>2017-06-22T14:20:46Z</time>
      </trkpt>
      <trkpt lat="46.86546" lon="6.55971">
        <ele>1362</ele>
        <time>2017-06-22T14:20:50Z</time>
      </trkpt>
      <trkpt lat="46.86552" lon="6.56008">
        <ele>1360</ele>
        <time>2017-06-22T14:20:54Z</time>
      </trkpt>
      <trkpt lat="46.86556" lon="6.56032">
        <ele>1360</ele>
        <time>2017-06-22T14:20:58Z</time>
      </trkpt>
      <trkpt lat="46.86553" lon="6.56072">
        <ele>1361</ele>
        <time>2017-06-22T14:21:02Z</time>
      </trkpt>
      <trkpt lat="46.86549" lon="6.56093">
        <ele>1358</ele>
        <time>2017-06-22T14:21:06Z</time>
      </trkpt>
      <trkpt lat="46.86553" lon="6.56123">
        <ele>1358</ele>
        <time>2017-06-22T14:21:11Z</time>
      </trkpt>
      <trkpt lat="46.86563" lon="6.56152">
        <ele>1359</ele>
        <time>2017-06-22T14:21:16Z</time>
      </trkpt>
      <trkpt lat="46.8657" lon="6.56179">
        <ele>1361</ele>
        <time>2017-06-22T14:21:21Z</time>
      </trkpt>
      <trkpt lat="46.86571" lon="6.56206">
        <ele>1364</ele>
        <time>2017-06-22T14:21:25Z</time>
      </trkpt>
      <trkpt lat="46.86562" lon="6.56221">
        <ele>1366</ele>
        <time>2017-06-22T14:21:29Z</time>
      </trkpt>
      <trkpt lat="46.86544" lon="6.56221">
        <ele>1367</ele>
        <time>2017-06-22T14:21:34Z</time>
      </trkpt>
      <trkpt lat="46.86527" lon="6.56221">
        <ele>1369</ele>
        <time>2017-06-22T14:21:39Z</time>
      </trkpt>
      <trkpt lat="46.86515" lon="6.56235">
        <ele>1371</ele>
        <time>2017-06-22T14:21:44Z</time>
      </trkpt>
      <trkpt lat="46.86513" lon="6.56249">
        <ele>1372</ele>
        <time>2017-06-22T14:21:47Z</time>
      </trkpt>
      <trkpt lat="46.86513" lon="6.56263">
        <ele>1372</ele>
        <time>2017-06-22T14:21:51Z</time>
      </trkpt>
      <trkpt lat="46.86511" lon="6.56287">
        <ele>1374</ele>
        <time>2017-06-22T14:21:55Z</time>
      </trkpt>
      <trkpt lat="46.86506" lon="6.56309">
        <ele>1375</ele>
        <time>2017-06-22T14:22:00Z</time>
      </trkpt>
      <trkpt lat="46.86497" lon="6.56322">
        <ele>1377</ele>
        <time>2017-06-22T14:22:05Z</time>
      </trkpt>
      <trkpt lat="46.86481" lon="6.5633">
        <ele>1379</ele>
        <time>2017-06-22T14:22:09Z</time>
      </trkpt>
      <trkpt lat="46.86464" lon="6.56329">
        <ele>1381</ele>
        <time>2017-06-22T14:22:14Z</time>
      </trkpt>
      <trkpt lat="46.86452" lon="6.56322">
        <ele>1381</ele>
        <time>2017-06-22T14:22:19Z</time>
      </trkpt>
      <trkpt lat="46.86441" lon="6.56314">
        <ele>1384</ele>
        <time>2017-06-22T14:22:23Z</time>
      </trkpt>
      <trkpt lat="46.86429" lon="6.56303">
        <ele>1388</ele>
        <time>2017-06-22T14:22:28Z</time>
      </trkpt>
      <trkpt lat="46.8642" lon="6.56285">
        <ele>1388</ele>
        <time>2017-06-22T14:22:33Z</time>
      </trkpt>
      <trkpt lat="46.86412" lon="6.56266">
        <ele>1389</ele>
        <time>2017-06-22T14:22:38Z</time>
      </trkpt>
      <trkpt lat="46.86403" lon="6.56254">
        <ele>1391</ele>
        <time>2017-06-22T14:22:42Z</time>
      </trkpt>
      <trkpt lat="46.86394" lon="6.56242">
        <ele>1392</ele>
        <time>2017-06-22T14:22:46Z</time>
      </trkpt>
      <trkpt lat="46.8638" lon="6.56227">
        <ele>1391</ele>
        <time>2017-06-22T14:22:51Z</time>
      </trkpt>
      <trkpt lat="46.86368" lon="6.56218">
        <ele>1394</ele>
        <time>2017-06-22T14:22:55Z</time>
      </trkpt>
      <trkpt lat="46.86356" lon="6.56198">
        <ele>1393</ele>
        <time>2017-06-22T14:23:00Z</time>
      </trkpt>
      <trkpt lat="46.86344" lon="6.56176">
        <ele>1394</ele>
        <time>2017-06-22T14:23:04Z</time>
      </trkpt>
      <trkpt lat="46.86327" lon="6.56167">
        <ele>1395</ele>
        <time>2017-06-22T14:23:09Z</time>
      </trkpt>
      <trkpt lat="46.86324" lon="6.56203">
        <ele>1391</ele>
        <time>2017-06-22T14:23:13Z</time>
      </trkpt>
      <trkpt lat="46.86332" lon="6.56248">
        <ele>1390</ele>
        <time>2017-06-22T14:23:18Z</time>
      </trkpt>
      <trkpt lat="46.86337" lon="6.56308">
        <ele>1388</ele>
        <time>2017-06-22T14:23:23Z</time>
      </trkpt>
      <trkpt lat="46.86342" lon="6.56335">
        <ele>1389</ele>
        <time>2017-06-22T14:23:27Z</time>
      </trkpt>
      <trkpt lat="46.86345" lon="6.56386">
        <ele>1390</ele>
        <time>2017-06-22T14:23:32Z</time>
      </trkpt>
      <trkpt lat="46.86343" lon="6.5641">
        <ele>1389</ele>
        <time>2017-06-22T14:23:36Z</time>
      </trkpt>
      <trkpt lat="46.8633" lon="6.56444">
        <ele>1391</ele>
        <time>2017-06-22T14:23:41Z</time>
      </trkpt>
      <trkpt lat="46.86317" lon="6.56451">
        <ele>1391</ele>
        <time>2017-06-22T14:23:45Z</time>
      </trkpt>
      <trkpt lat="46.86302" lon="6.56452">
        <ele>1392</ele>
        <time>2017-06-22T14:23:48Z</time>
      </trkpt>
      <trkpt lat="46.86287" lon="6.5645">
        <ele>1394</ele>
        <time>2017-06-22T14:23:53Z</time>
      </trkpt>
      <trkpt lat="46.86267" lon="6.56447">
        <ele>1398</ele>
        <time>2017-06-22T14:23:58Z</time>
      </trkpt>
      <trkpt lat="46.86254" lon="6.56444">
        <ele>1399</ele>
        <time>2017-06-22T14:24:02Z</time>
      </trkpt>
      <trkpt lat="46.86242" lon="6.56443">
        <ele>1404</ele>
        <time>2017-06-22T14:24:06Z</time>
      </trkpt>
      <trkpt lat="46.86227" lon="6.56435">
        <ele>1404</ele>
        <time>2017-06-22T14:24:11Z</time>
      </trkpt>
      <trkpt lat="46.86219" lon="6.56426">
        <ele>1403</ele>
        <time>2017-06-22T14:24:15Z</time>
      </trkpt>
      <trkpt lat="46.86204" lon="6.5641">
        <ele>1405</ele>
        <time>2017-06-22T14:24:20Z</time>
      </trkpt>
      <trkpt lat="46.86198" lon="6.56399">
        <ele>1407</ele>
        <time>2017-06-22T14:24:23Z</time>
      </trkpt>
      <trkpt lat="46.86192" lon="6.5639">
        <ele>1407</ele>
        <time>2017-06-22T14:24:27Z</time>
      </trkpt>
      <trkpt lat="46.86182" lon="6.56373">
        <ele>1409</ele>
        <time>2017-06-22T14:24:32Z</time>
      </trkpt>
      <trkpt lat="46.86173" lon="6.56362">
        <ele>1411</ele>
        <time>2017-06-22T14:24:36Z</time>
      </trkpt>
      <trkpt lat="46.86159" lon="6.56351">
        <ele>1410</ele>
        <time>2017-06-22T14:24:41Z</time>
      </trkpt>
      <trkpt lat="46.86154" lon="6.56331">
        <ele>1414</ele>
        <time>2017-06-22T14:24:46Z</time>
      </trkpt>
      <trkpt lat="46.86146" lon="6.56319">
        <ele>1415</ele>
        <time>2017-06-22T14:24:50Z</time>
      </trkpt>
      <trkpt lat="46.86139" lon="6.56301">
        <ele>1416</ele>
        <time>2017-06-22T14:24:54Z</time>
      </trkpt>
      <trkpt lat="46.86131" lon="6.56283">
        <ele>1418</ele>
        <time>2017-06-22T14:24:59Z</time>
      </trkpt>
      <trkpt lat="46.86125" lon="6.56267">
        <ele>1418</ele>
        <time>2017-06-22T14:25:03Z</time>
      </trkpt>
      <trkpt lat="46.86121" lon="6.56257">
        <ele>1420</ele>
        <time>2017-06-22T14:25:07Z</time>
      </trkpt>
      <trkpt lat="46.86113" lon="6.56238">
        <ele>1421</ele>
        <time>2017-06-22T14:25:11Z</time>
      </trkpt>
      <trkpt lat="46.86108" lon="6.56222">
        <ele>1423</ele>
        <time>2017-06-22T14:25:16Z</time>
      </trkpt>
      <trkpt lat="46.86103" lon="6.56209">
        <ele>1424</ele>
        <time>2017-06-22T14:25:19Z</time>
      </trkpt>
      <trkpt lat="46.86101" lon="6.56206">
        <ele>1424</ele>
        <time>2017-06-22T14:25:21Z</time>
      </trkpt>
      <trkpt lat="46.86092" lon="6.5619">
        <ele>1426</ele>
        <time>2017-06-22T14:25:25Z</time>
      </trkpt>
      <trkpt lat="46.86081" lon="6.56181">
        <ele>1427</ele>
        <time>2017-06-22T14:25:30Z</time>
      </trkpt>
      <trkpt lat="46.86071" lon="6.56186">
        <ele>1429</ele>
        <time>2017-06-22T14:25:34Z</time>
      </trkpt>
      <trkpt lat="46.86062" lon="6.56201">
        <ele>1427</ele>
        <time>2017-06-22T14:25:38Z</time>
      </trkpt>
      <trkpt lat="46.86059" lon="6.56216">
        <ele>1428</ele>
        <time>2017-06-22T14:25:42Z</time>
      </trkpt>
      <trkpt lat="46.86062" lon="6.56237">
        <ele>1426</ele>
        <time>2017-06-22T14:25:46Z</time>
      </trkpt>
      <trkpt lat="46.86066" lon="6.56265">
        <ele>1427</ele>
        <time>2017-06-22T14:25:51Z</time>
      </trkpt>
      <trkpt lat="46.86067" lon="6.56278">
        <ele>1427</ele>
        <time>2017-06-22T14:25:53Z</time>
      </trkpt>
      <trkpt lat="46.86068" lon="6.56313">
        <ele>1426</ele>
        <time>2017-06-22T14:25:58Z</time>
      </trkpt>
      <trkpt lat="46.86068" lon="6.56347">
        <ele>1426</ele>
        <time>2017-06-22T14:26:03Z</time>
      </trkpt>
      <trkpt lat="46.86051" lon="6.56387">
        <ele>1423</ele>
        <time>2017-06-22T14:26:08Z</time>
      </trkpt>
      <trkpt lat="46.86019" lon="6.56409">
        <ele>1424</ele>
        <time>2017-06-22T14:26:13Z</time>
      </trkpt>
      <trkpt lat="46.85988" lon="6.56416">
        <ele>1424</ele>
        <time>2017-06-22T14:26:17Z</time>
      </trkpt>
      <trkpt lat="46.85966" lon="6.56403">
        <ele>1424</ele>
        <time>2017-06-22T14:26:21Z</time>
      </trkpt>
      <trkpt lat="46.85915" lon="6.56368">
        <ele>1418</ele>
        <time>2017-06-22T14:26:26Z</time>
      </trkpt>
      <trkpt lat="46.85869" lon="6.56341">
        <ele>1414</ele>
        <time>2017-06-22T14:26:31Z</time>
      </trkpt>
      <trkpt lat="46.85834" lon="6.56302">
        <ele>1411</ele>
        <time>2017-06-22T14:26:35Z</time>
      </trkpt>
      <trkpt lat="46.85802" lon="6.56253">
        <ele>1407</ele>
        <time>2017-06-22T14:26:39Z</time>
      </trkpt>
      <trkpt lat="46.85775" lon="6.56194">
        <ele>1401</ele>
        <time>2017-06-22T14:26:43Z</time>
      </trkpt>
      <trkpt lat="46.85741" lon="6.56138">
        <ele>1398</ele>
        <time>2017-06-22T14:26:48Z</time>
      </trkpt>
      <trkpt lat="46.85696" lon="6.56082">
        <ele>1395</ele>
        <time>2017-06-22T14:26:52Z</time>
      </trkpt>
      <trkpt lat="46.85658" lon="6.56027">
        <ele>1385</ele>
        <time>2017-06-22T14:26:56Z</time>
      </trkpt>
      <trkpt lat="46.85614" lon="6.55964">
        <ele>1380</ele>
        <time>2017-06-22T14:27:00Z</time>
      </trkpt>
      <trkpt lat="46.85571" lon="6.5591">
        <ele>1374</ele>
        <time>2017-06-22T14:27:05Z</time>
      </trkpt>
      <trkpt lat="46.85537" lon="6.55871">
        <ele>1372</ele>
        <time>2017-06-22T14:27:08Z</time>
      </trkpt>
      <trkpt lat="46.85489" lon="6.55835">
        <ele>1367</ele>
        <time>2017-06-22T14:27:12Z</time>
      </trkpt>
      <trkpt lat="46.85455" lon="6.55806">
        <ele>1363</ele>
        <time>2017-06-22T14:27:16Z</time>
      </trkpt>
      <trkpt lat="46.85419" lon="6.55776">
        <ele>1360</ele>
        <time>2017-06-22T14:27:20Z</time>
      </trkpt>
      <trkpt lat="46.85376" lon="6.55742">
        <ele>1360</ele>
        <time>2017-06-22T14:27:25Z</time>
      </trkpt>
      <trkpt lat="46.85333" lon="6.55725">
        <ele>1359</ele>
        <time>2017-06-22T14:27:29Z</time>
      </trkpt>
      <trkpt lat="46.85282" lon="6.55698">
        <ele>1357</ele>
        <time>2017-06-22T14:27:34Z</time>
      </trkpt>
      <trkpt lat="46.85237" lon="6.55669">
        <ele>1355</ele>
        <time>2017-06-22T14:27:39Z</time>
      </trkpt>
      <trkpt lat="46.85186" lon="6.55663">
        <ele>1355</ele>
        <time>2017-06-22T14:27:44Z</time>
      </trkpt>
      <trkpt lat="46.8515" lon="6.55655">
        <ele>1355</ele>
        <time>2017-06-22T14:27:48Z</time>
      </trkpt>
      <trkpt lat="46.85122" lon="6.55639">
        <ele>1354</ele>
        <time>2017-06-22T14:27:52Z</time>
      </trkpt>
      <trkpt lat="46.85065" lon="6.55598">
        <ele>1348</ele>
        <time>2017-06-22T14:27:57Z</time>
      </trkpt>
      <trkpt lat="46.85019" lon="6.55557">
        <ele>1346</ele>
        <time>2017-06-22T14:28:02Z</time>
      </trkpt>
      <trkpt lat="46.8498" lon="6.55532">
        <ele>1344</ele>
        <time>2017-06-22T14:28:06Z</time>
      </trkpt>
      <trkpt lat="46.84949" lon="6.55497">
        <ele>1345</ele>
        <time>2017-06-22T14:28:10Z</time>
      </trkpt>
      <trkpt lat="46.84911" lon="6.55473">
        <ele>1343</ele>
        <time>2017-06-22T14:28:14Z</time>
      </trkpt>
      <trkpt lat="46.84886" lon="6.55449">
        <ele>1341</ele>
        <time>2017-06-22T14:28:18Z</time>
      </trkpt>
      <trkpt lat="46.84845" lon="6.55418">
        <ele>1341</ele>
        <time>2017-06-22T14:28:23Z</time>
      </trkpt>
      <trkpt lat="46.84811" lon="6.55407">
        <ele>1341</ele>
        <time>2017-06-22T14:28:27Z</time>
      </trkpt>
      <trkpt lat="46.84771" lon="6.55394">
        <ele>1341</ele>
        <time>2017-06-22T14:28:32Z</time>
      </trkpt>
      <trkpt lat="46.8473" lon="6.55394">
        <ele>1340</ele>
        <time>2017-06-22T14:28:37Z</time>
      </trkpt>
      <trkpt lat="46.84697" lon="6.55389">
        <ele>1342</ele>
        <time>2017-06-22T14:28:41Z</time>
      </trkpt>
      <trkpt lat="46.84662" lon="6.55379">
        <ele>1344</ele>
        <time>2017-06-22T14:28:45Z</time>
      </trkpt>
      <trkpt lat="46.84629" lon="6.55351">
        <ele>1342</ele>
        <time>2017-06-22T14:28:48Z</time>
      </trkpt>
      <trkpt lat="46.84593" lon="6.55338">
        <ele>1340</ele>
        <time>2017-06-22T14:28:53Z</time>
      </trkpt>
      <trkpt lat="46.84558" lon="6.55345">
        <ele>1332</ele>
        <time>2017-06-22T14:28:57Z</time>
      </trkpt>
      <trkpt lat="46.84527" lon="6.55354">
        <ele>1326</ele>
        <time>2017-06-22T14:29:01Z</time>
      </trkpt>
      <trkpt lat="46.84466" lon="6.55362">
        <ele>1328</ele>
        <time>2017-06-22T14:29:06Z</time>
      </trkpt>
      <trkpt lat="46.84414" lon="6.55333">
        <ele>1329</ele>
        <time>2017-06-22T14:29:11Z</time>
      </trkpt>
      <trkpt lat="46.84391" lon="6.5534">
        <ele>1323</ele>
        <time>2017-06-22T14:29:16Z</time>
      </trkpt>
      <trkpt lat="46.84398" lon="6.55373">
        <ele>1320</ele>
        <time>2017-06-22T14:29:19Z</time>
      </trkpt>
      <trkpt lat="46.84419" lon="6.55414">
        <ele>1319</ele>
        <time>2017-06-22T14:29:22Z</time>
      </trkpt>
      <trkpt lat="46.84444" lon="6.55481">
        <ele>1317</ele>
        <time>2017-06-22T14:29:27Z</time>
      </trkpt>
      <trkpt lat="46.84464" lon="6.5555">
        <ele>1309</ele>
        <time>2017-06-22T14:29:32Z</time>
      </trkpt>
      <trkpt lat="46.84486" lon="6.55598">
        <ele>1307</ele>
        <time>2017-06-22T14:29:36Z</time>
      </trkpt>
      <trkpt lat="46.84499" lon="6.55633">
        <ele>1304</ele>
        <time>2017-06-22T14:29:39Z</time>
      </trkpt>
      <trkpt lat="46.84506" lon="6.55684">
        <ele>1301</ele>
        <time>2017-06-22T14:29:43Z</time>
      </trkpt>
      <trkpt lat="46.84534" lon="6.55733">
        <ele>1297</ele>
        <time>2017-06-22T14:29:47Z</time>
      </trkpt>
      <trkpt lat="46.8457" lon="6.55773">
        <ele>1295</ele>
        <time>2017-06-22T14:29:51Z</time>
      </trkpt>
      <trkpt lat="46.84624" lon="6.55831">
        <ele>1295</ele>
        <time>2017-06-22T14:29:56Z</time>
      </trkpt>
      <trkpt lat="46.84655" lon="6.55877">
        <ele>1297</ele>
        <time>2017-06-22T14:30:00Z</time>
      </trkpt>
      <trkpt lat="46.84673" lon="6.55895">
        <ele>1295</ele>
        <time>2017-06-22T14:30:03Z</time>
      </trkpt>
      <trkpt lat="46.84705" lon="6.55974">
        <ele>1281</ele>
        <time>2017-06-22T14:30:08Z</time>
      </trkpt>
      <trkpt lat="46.84712" lon="6.56013">
        <ele>1277</ele>
        <time>2017-06-22T14:30:12Z</time>
      </trkpt>
      <trkpt lat="46.84728" lon="6.56077">
        <ele>1269</ele>
        <time>2017-06-22T14:30:16Z</time>
      </trkpt>
      <trkpt lat="46.84756" lon="6.56168">
        <ele>1267</ele>
        <time>2017-06-22T14:30:20Z</time>
      </trkpt>
      <trkpt lat="46.84775" lon="6.56247">
        <ele>1276</ele>
        <time>2017-06-22T14:30:25Z</time>
      </trkpt>
      <trkpt lat="46.84791" lon="6.56288">
        <ele>1269</ele>
        <time>2017-06-22T14:30:29Z</time>
      </trkpt>
      <trkpt lat="46.84749" lon="6.56302">
        <ele>1257</ele>
        <time>2017-06-22T14:30:34Z</time>
      </trkpt>
      <trkpt lat="46.84714" lon="6.56285">
        <ele>1250</ele>
        <time>2017-06-22T14:30:38Z</time>
      </trkpt>
      <trkpt lat="46.84651" lon="6.56262">
        <ele>1243</ele>
        <time>2017-06-22T14:30:43Z</time>
      </trkpt>
      <trkpt lat="46.84596" lon="6.56244">
        <ele>1237</ele>
        <time>2017-06-22T14:30:48Z</time>
      </trkpt>
      <trkpt lat="46.84573" lon="6.56239">
        <ele>1235</ele>
        <time>2017-06-22T14:30:50Z</time>
      </trkpt>
      <trkpt lat="46.84528" lon="6.56244">
        <ele>1233</ele>
        <time>2017-06-22T14:30:55Z</time>
      </trkpt>
      <trkpt lat="46.84477" lon="6.5624">
        <ele>1230</ele>
        <time>2017-06-22T14:30:59Z</time>
      </trkpt>
      <trkpt lat="46.84436" lon="6.56214">
        <ele>1223</ele>
        <time>2017-06-22T14:31:04Z</time>
      </trkpt>
      <trkpt lat="46.84409" lon="6.56189">
        <ele>1227</ele>
        <time>2017-06-22T14:31:08Z</time>
      </trkpt>
      <trkpt lat="46.84383" lon="6.56196">
        <ele>1220</ele>
        <time>2017-06-22T14:31:13Z</time>
      </trkpt>
      <trkpt lat="46.84364" lon="6.56215">
        <ele>1215</ele>
        <time>2017-06-22T14:31:17Z</time>
      </trkpt>
      <trkpt lat="46.84347" lon="6.56239">
        <ele>1215</ele>
        <time>2017-06-22T14:31:21Z</time>
      </trkpt>
      <trkpt lat="46.8433" lon="6.56269">
        <ele>1215</ele>
        <time>2017-06-22T14:31:26Z</time>
      </trkpt>
      <trkpt lat="46.84302" lon="6.56273">
        <ele>1212</ele>
        <time>2017-06-22T14:31:30Z</time>
      </trkpt>
      <trkpt lat="46.84278" lon="6.56262">
        <ele>1210</ele>
        <time>2017-06-22T14:31:33Z</time>
      </trkpt>
      <trkpt lat="46.84244" lon="6.56257">
        <ele>1209</ele>
        <time>2017-06-22T14:31:37Z</time>
      </trkpt>
      <trkpt lat="46.84218" lon="6.56287">
        <ele>1209</ele>
        <time>2017-06-22T14:31:41Z</time>
      </trkpt>
      <trkpt lat="46.84187" lon="6.56339">
        <ele>1207</ele>
        <time>2017-06-22T14:31:46Z</time>
      </trkpt>
      <trkpt lat="46.84157" lon="6.56369">
        <ele>1207</ele>
        <time>2017-06-22T14:31:51Z</time>
      </trkpt>
      <trkpt lat="46.84129" lon="6.56382">
        <ele>1208</ele>
        <time>2017-06-22T14:31:55Z</time>
      </trkpt>
      <trkpt lat="46.84109" lon="6.56386">
        <ele>1208</ele>
        <time>2017-06-22T14:31:59Z</time>
      </trkpt>
      <trkpt lat="46.84093" lon="6.56392">
        <ele>1209</ele>
        <time>2017-06-22T14:32:01Z</time>
      </trkpt>
      <trkpt lat="46.84057" lon="6.5641">
        <ele>1207</ele>
        <time>2017-06-22T14:32:06Z</time>
      </trkpt>
      <trkpt lat="46.84018" lon="6.56413">
        <ele>1205</ele>
        <time>2017-06-22T14:32:11Z</time>
      </trkpt>
      <trkpt lat="46.83982" lon="6.56409">
        <ele>1204</ele>
        <time>2017-06-22T14:32:15Z</time>
      </trkpt>
      <trkpt lat="46.83945" lon="6.56406">
        <ele>1204</ele>
        <time>2017-06-22T14:32:19Z</time>
      </trkpt>
      <trkpt lat="46.83899" lon="6.56425">
        <ele>1205</ele>
        <time>2017-06-22T14:32:24Z</time>
      </trkpt>
      <trkpt lat="46.83874" lon="6.56458">
        <ele>1203</ele>
        <time>2017-06-22T14:32:29Z</time>
      </trkpt>
      <trkpt lat="46.83846" lon="6.5648">
        <ele>1203</ele>
        <time>2017-06-22T14:32:33Z</time>
      </trkpt>
      <trkpt lat="46.83817" lon="6.56497">
        <ele>1202</ele>
        <time>2017-06-22T14:32:37Z</time>
      </trkpt>
      <trkpt lat="46.83794" lon="6.56509">
        <ele>1201</ele>
        <time>2017-06-22T14:32:41Z</time>
      </trkpt>
      <trkpt lat="46.83764" lon="6.56513">
        <ele>1201</ele>
        <time>2017-06-22T14:32:45Z</time>
      </trkpt>
      <trkpt lat="46.83745" lon="6.56496">
        <ele>1201</ele>
        <time>2017-06-22T14:32:48Z</time>
      </trkpt>
      <trkpt lat="46.83723" lon="6.56467">
        <ele>1201</ele>
        <time>2017-06-22T14:32:52Z</time>
      </trkpt>
      <trkpt lat="46.83694" lon="6.56431">
        <ele>1199</ele>
        <time>2017-06-22T14:32:57Z</time>
      </trkpt>
      <trkpt lat="46.83664" lon="6.56392">
        <ele>1199</ele>
        <time>2017-06-22T14:33:02Z</time>
      </trkpt>
      <trkpt lat="46.83639" lon="6.5636">
        <ele>1198</ele>
        <time>2017-06-22T14:33:06Z</time>
      </trkpt>
      <trkpt lat="46.83609" lon="6.56318">
        <ele>1196</ele>
        <time>2017-06-22T14:33:11Z</time>
      </trkpt>
      <trkpt lat="46.83576" lon="6.56278">
        <ele>1194</ele>
        <time>2017-06-22T14:33:16Z</time>
      </trkpt>
      <trkpt lat="46.83534" lon="6.56267">
        <ele>1193</ele>
        <time>2017-06-22T14:33:21Z</time>
      </trkpt>
      <trkpt lat="46.83499" lon="6.56288">
        <ele>1191</ele>
        <time>2017-06-22T14:33:25Z</time>
      </trkpt>
      <trkpt lat="46.83444" lon="6.5633">
        <ele>1188</ele>
        <time>2017-06-22T14:33:30Z</time>
      </trkpt>
      <trkpt lat="46.83402" lon="6.56321">
        <ele>1186</ele>
        <time>2017-06-22T14:33:35Z</time>
      </trkpt>
      <trkpt lat="46.83381" lon="6.5626">
        <ele>1183</ele>
        <time>2017-06-22T14:33:39Z</time>
      </trkpt>
      <trkpt lat="46.83365" lon="6.56199">
        <ele>1180</ele>
        <time>2017-06-22T14:33:43Z</time>
      </trkpt>
      <trkpt lat="46.83327" lon="6.56135">
        <ele>1176</ele>
        <time>2017-06-22T14:33:48Z</time>
      </trkpt>
      <trkpt lat="46.83291" lon="6.56084">
        <ele>1172</ele>
        <time>2017-06-22T14:33:52Z</time>
      </trkpt>
      <trkpt lat="46.83266" lon="6.56019">
        <ele>1171</ele>
        <time>2017-06-22T14:33:56Z</time>
      </trkpt>
      <trkpt lat="46.83242" lon="6.55927">
        <ele>1167</ele>
        <time>2017-06-22T14:34:01Z</time>
      </trkpt>
      <trkpt lat="46.83214" lon="6.55812">
        <ele>1161</ele>
        <time>2017-06-22T14:34:06Z</time>
      </trkpt>
      <trkpt lat="46.83202" lon="6.55754">
        <ele>1159</ele>
        <time>2017-06-22T14:34:10Z</time>
      </trkpt>
      <trkpt lat="46.83184" lon="6.55656">
        <ele>1154</ele>
        <time>2017-06-22T14:34:14Z</time>
      </trkpt>
      <trkpt lat="46.83176" lon="6.55602">
        <ele>1154</ele>
        <time>2017-06-22T14:34:18Z</time>
      </trkpt>
      <trkpt lat="46.83145" lon="6.5551">
        <ele>1151</ele>
        <time>2017-06-22T14:34:23Z</time>
      </trkpt>
      <trkpt lat="46.83102" lon="6.55458">
        <ele>1150</ele>
        <time>2017-06-22T14:34:28Z</time>
      </trkpt>
      <trkpt lat="46.83066" lon="6.55421">
        <ele>1150</ele>
        <time>2017-06-22T14:34:32Z</time>
      </trkpt>
      <trkpt lat="46.83041" lon="6.55397">
        <ele>1151</ele>
        <time>2017-06-22T14:34:35Z</time>
      </trkpt>
      <trkpt lat="46.8302" lon="6.55369">
        <ele>1151</ele>
        <time>2017-06-22T14:34:39Z</time>
      </trkpt>
      <trkpt lat="46.82994" lon="6.55326">
        <ele>1148</ele>
        <time>2017-06-22T14:34:43Z</time>
      </trkpt>
      <trkpt lat="46.82976" lon="6.55297">
        <ele>1149</ele>
        <time>2017-06-22T14:34:46Z</time>
      </trkpt>
      <trkpt lat="46.82951" lon="6.55254">
        <ele>1150</ele>
        <time>2017-06-22T14:34:51Z</time>
      </trkpt>
      <trkpt lat="46.82934" lon="6.55222">
        <ele>1151</ele>
        <time>2017-06-22T14:34:55Z</time>
      </trkpt>
      <trkpt lat="46.82922" lon="6.55199">
        <ele>1151</ele>
        <time>2017-06-22T14:34:58Z</time>
      </trkpt>
      <trkpt lat="46.82903" lon="6.55156">
        <ele>1151</ele>
        <time>2017-06-22T14:35:03Z</time>
      </trkpt>
      <trkpt lat="46.82889" lon="6.55124">
        <ele>1152</ele>
        <time>2017-06-22T14:35:07Z</time>
      </trkpt>
      <trkpt lat="46.82882" lon="6.55098">
        <ele>1153</ele>
        <time>2017-06-22T14:35:10Z</time>
      </trkpt>
      <trkpt lat="46.8287" lon="6.55055">
        <ele>1154</ele>
        <time>2017-06-22T14:35:15Z</time>
      </trkpt>
      <trkpt lat="46.82859" lon="6.55008">
        <ele>1153</ele>
        <time>2017-06-22T14:35:20Z</time>
      </trkpt>
      <trkpt lat="46.8285" lon="6.54971">
        <ele>1154</ele>
        <time>2017-06-22T14:35:24Z</time>
      </trkpt>
      <trkpt lat="46.82836" lon="6.54918">
        <ele>1156</ele>
        <time>2017-06-22T14:35:29Z</time>
      </trkpt>
      <trkpt lat="46.82827" lon="6.54873">
        <ele>1157</ele>
        <time>2017-06-22T14:35:34Z</time>
      </trkpt>
      <trkpt lat="46.82823" lon="6.54836">
        <ele>1158</ele>
        <time>2017-06-22T14:35:38Z</time>
      </trkpt>
      <trkpt lat="46.82821" lon="6.54817">
        <ele>1160</ele>
        <time>2017-06-22T14:35:40Z</time>
      </trkpt>
      <trkpt lat="46.82817" lon="6.54791">
        <ele>1160</ele>
        <time>2017-06-22T14:35:44Z</time>
      </trkpt>
      <trkpt lat="46.82812" lon="6.54756">
        <ele>1161</ele>
        <time>2017-06-22T14:35:48Z</time>
      </trkpt>
      <trkpt lat="46.82805" lon="6.54711">
        <ele>1163</ele>
        <time>2017-06-22T14:35:52Z</time>
      </trkpt>
      <trkpt lat="46.82799" lon="6.54667">
        <ele>1162</ele>
        <time>2017-06-22T14:35:57Z</time>
      </trkpt>
      <trkpt lat="46.82794" lon="6.54631">
        <ele>1165</ele>
        <time>2017-06-22T14:36:01Z</time>
      </trkpt>
      <trkpt lat="46.82789" lon="6.54596">
        <ele>1165</ele>
        <time>2017-06-22T14:36:06Z</time>
      </trkpt>
      <trkpt lat="46.82784" lon="6.54551">
        <ele>1167</ele>
        <time>2017-06-22T14:36:11Z</time>
      </trkpt>
      <trkpt lat="46.82781" lon="6.54496">
        <ele>1168</ele>
        <time>2017-06-22T14:36:16Z</time>
      </trkpt>
      <trkpt lat="46.82781" lon="6.54469">
        <ele>1169</ele>
        <time>2017-06-22T14:36:20Z</time>
      </trkpt>
      <trkpt lat="46.82783" lon="6.54427">
        <ele>1170</ele>
        <time>2017-06-22T14:36:25Z</time>
      </trkpt>
      <trkpt lat="46.82786" lon="6.54374">
        <ele>1172</ele>
        <time>2017-06-22T14:36:30Z</time>
      </trkpt>
      <trkpt lat="46.82789" lon="6.5434">
        <ele>1174</ele>
        <time>2017-06-22T14:36:34Z</time>
      </trkpt>
      <trkpt lat="46.82794" lon="6.54309">
        <ele>1174</ele>
        <time>2017-06-22T14:36:38Z</time>
      </trkpt>
      <trkpt lat="46.828" lon="6.5428">
        <ele>1175</ele>
        <time>2017-06-22T14:36:42Z</time>
      </trkpt>
      <trkpt lat="46.82804" lon="6.54257">
        <ele>1176</ele>
        <time>2017-06-22T14:36:46Z</time>
      </trkpt>
      <trkpt lat="46.82812" lon="6.54221">
        <ele>1176</ele>
        <time>2017-06-22T14:36:51Z</time>
      </trkpt>
      <trkpt lat="46.82823" lon="6.54185">
        <ele>1176</ele>
        <time>2017-06-22T14:36:55Z</time>
      </trkpt>
      <trkpt lat="46.82839" lon="6.54158">
        <ele>1182</ele>
        <time>2017-06-22T14:37:00Z</time>
      </trkpt>
      <trkpt lat="46.82847" lon="6.54152">
        <ele>1182</ele>
        <time>2017-06-22T14:37:02Z</time>
      </trkpt>
      <trkpt lat="46.82867" lon="6.54146">
        <ele>1183</ele>
        <time>2017-06-22T14:37:06Z</time>
      </trkpt>
      <trkpt lat="46.82887" lon="6.54143">
        <ele>1183</ele>
        <time>2017-06-22T14:37:11Z</time>
      </trkpt>
      <trkpt lat="46.82907" lon="6.54127">
        <ele>1185</ele>
        <time>2017-06-22T14:37:15Z</time>
      </trkpt>
      <trkpt lat="46.82915" lon="6.54102">
        <ele>1187</ele>
        <time>2017-06-22T14:37:19Z</time>
      </trkpt>
      <trkpt lat="46.82918" lon="6.54064">
        <ele>1189</ele>
        <time>2017-06-22T14:37:24Z</time>
      </trkpt>
      <trkpt lat="46.82919" lon="6.54031">
        <ele>1190</ele>
        <time>2017-06-22T14:37:28Z</time>
      </trkpt>
      <trkpt lat="46.8292" lon="6.54007">
        <ele>1190</ele>
        <time>2017-06-22T14:37:32Z</time>
      </trkpt>
      <trkpt lat="46.8292" lon="6.53966">
        <ele>1192</ele>
        <time>2017-06-22T14:37:37Z</time>
      </trkpt>
      <trkpt lat="46.82914" lon="6.53931">
        <ele>1191</ele>
        <time>2017-06-22T14:37:40Z</time>
      </trkpt>
      <trkpt lat="46.82906" lon="6.53907">
        <ele>1193</ele>
        <time>2017-06-22T14:37:44Z</time>
      </trkpt>
      <trkpt lat="46.82897" lon="6.53869">
        <ele>1190</ele>
        <time>2017-06-22T14:37:48Z</time>
      </trkpt>
      <trkpt lat="46.82883" lon="6.53814">
        <ele>1190</ele>
        <time>2017-06-22T14:37:53Z</time>
      </trkpt>
      <trkpt lat="46.82871" lon="6.53774">
        <ele>1190</ele>
        <time>2017-06-22T14:37:57Z</time>
      </trkpt>
      <trkpt lat="46.8286" lon="6.53721">
        <ele>1189</ele>
        <time>2017-06-22T14:38:02Z</time>
      </trkpt>
      <trkpt lat="46.82854" lon="6.53699">
        <ele>1190</ele>
        <time>2017-06-22T14:38:05Z</time>
      </trkpt>
      <trkpt lat="46.82838" lon="6.53647">
        <ele>1189</ele>
        <time>2017-06-22T14:38:10Z</time>
      </trkpt>
      <trkpt lat="46.82824" lon="6.53592">
        <ele>1188</ele>
        <time>2017-06-22T14:38:15Z</time>
      </trkpt>
      <trkpt lat="46.82815" lon="6.53558">
        <ele>1187</ele>
        <time>2017-06-22T14:38:18Z</time>
      </trkpt>
      <trkpt lat="46.82801" lon="6.53501">
        <ele>1186</ele>
        <time>2017-06-22T14:38:23Z</time>
      </trkpt>
      <trkpt lat="46.82789" lon="6.53451">
        <ele>1186</ele>
        <time>2017-06-22T14:38:27Z</time>
      </trkpt>
      <trkpt lat="46.82778" lon="6.53396">
        <ele>1184</ele>
        <time>2017-06-22T14:38:31Z</time>
      </trkpt>
      <trkpt lat="46.82763" lon="6.53319">
        <ele>1180</ele>
        <time>2017-06-22T14:38:35Z</time>
      </trkpt>
      <trkpt lat="46.82751" lon="6.53239">
        <ele>1176</ele>
        <time>2017-06-22T14:38:40Z</time>
      </trkpt>
      <trkpt lat="46.82749" lon="6.53188">
        <ele>1173</ele>
        <time>2017-06-22T14:38:44Z</time>
      </trkpt>
      <trkpt lat="46.82748" lon="6.53126">
        <ele>1173</ele>
        <time>2017-06-22T14:38:48Z</time>
      </trkpt>
      <trkpt lat="46.82747" lon="6.53064">
        <ele>1172</ele>
        <time>2017-06-22T14:38:52Z</time>
      </trkpt>
      <trkpt lat="46.82746" lon="6.52987">
        <ele>1170</ele>
        <time>2017-06-22T14:38:57Z</time>
      </trkpt>
      <trkpt lat="46.82745" lon="6.52926">
        <ele>1169</ele>
        <time>2017-06-22T14:39:01Z</time>
      </trkpt>
      <trkpt lat="46.82741" lon="6.52866">
        <ele>1168</ele>
        <time>2017-06-22T14:39:05Z</time>
      </trkpt>
      <trkpt lat="46.82723" lon="6.52813">
        <ele>1166</ele>
        <time>2017-06-22T14:39:09Z</time>
      </trkpt>
      <trkpt lat="46.82696" lon="6.52756">
        <ele>1165</ele>
        <time>2017-06-22T14:39:13Z</time>
      </trkpt>
      <trkpt lat="46.8266" lon="6.52725">
        <ele>1164</ele>
        <time>2017-06-22T14:39:18Z</time>
      </trkpt>
      <trkpt lat="46.82625" lon="6.52695">
        <ele>1164</ele>
        <time>2017-06-22T14:39:22Z</time>
      </trkpt>
      <trkpt lat="46.82588" lon="6.52636">
        <ele>1161</ele>
        <time>2017-06-22T14:39:26Z</time>
      </trkpt>
      <trkpt lat="46.82553" lon="6.52572">
        <ele>1160</ele>
        <time>2017-06-22T14:39:31Z</time>
      </trkpt>
      <trkpt lat="46.82527" lon="6.5252">
        <ele>1158</ele>
        <time>2017-06-22T14:39:36Z</time>
      </trkpt>
      <trkpt lat="46.82488" lon="6.52447">
        <ele>1155</ele>
        <time>2017-06-22T14:39:41Z</time>
      </trkpt>
      <trkpt lat="46.82466" lon="6.52382">
        <ele>1154</ele>
        <time>2017-06-22T14:39:46Z</time>
      </trkpt>
      <trkpt lat="46.82455" lon="6.52325">
        <ele>1152</ele>
        <time>2017-06-22T14:39:50Z</time>
      </trkpt>
      <trkpt lat="46.82442" lon="6.52266">
        <ele>1152</ele>
        <time>2017-06-22T14:39:54Z</time>
      </trkpt>
      <trkpt lat="46.82428" lon="6.5219">
        <ele>1152</ele>
        <time>2017-06-22T14:39:59Z</time>
      </trkpt>
      <trkpt lat="46.82421" lon="6.52128">
        <ele>1149</ele>
        <time>2017-06-22T14:40:03Z</time>
      </trkpt>
      <trkpt lat="46.82414" lon="6.52046">
        <ele>1145</ele>
        <time>2017-06-22T14:40:08Z</time>
      </trkpt>
      <trkpt lat="46.82409" lon="6.51967">
        <ele>1143</ele>
        <time>2017-06-22T14:40:13Z</time>
      </trkpt>
      <trkpt lat="46.82396" lon="6.51904">
        <ele>1141</ele>
        <time>2017-06-22T14:40:17Z</time>
      </trkpt>
      <trkpt lat="46.82377" lon="6.51842">
        <ele>1140</ele>
        <time>2017-06-22T14:40:21Z</time>
      </trkpt>
      <trkpt lat="46.82353" lon="6.51761">
        <ele>1139</ele>
        <time>2017-06-22T14:40:26Z</time>
      </trkpt>
      <trkpt lat="46.82342" lon="6.5169">
        <ele>1137</ele>
        <time>2017-06-22T14:40:30Z</time>
      </trkpt>
      <trkpt lat="46.82329" lon="6.51617">
        <ele>1134</ele>
        <time>2017-06-22T14:40:34Z</time>
      </trkpt>
      <trkpt lat="46.82318" lon="6.51563">
        <ele>1133</ele>
        <time>2017-06-22T14:40:37Z</time>
      </trkpt>
      <trkpt lat="46.82303" lon="6.51478">
        <ele>1125</ele>
        <time>2017-06-22T14:40:42Z</time>
      </trkpt>
      <trkpt lat="46.82301" lon="6.51394">
        <ele>1128</ele>
        <time>2017-06-22T14:40:47Z</time>
      </trkpt>
      <trkpt lat="46.82296" lon="6.51327">
        <ele>1127</ele>
        <time>2017-06-22T14:40:51Z</time>
      </trkpt>
      <trkpt lat="46.82288" lon="6.5126">
        <ele>1123</ele>
        <time>2017-06-22T14:40:55Z</time>
      </trkpt>
      <trkpt lat="46.82286" lon="6.51188">
        <ele>1121</ele>
        <time>2017-06-22T14:40:59Z</time>
      </trkpt>
      <trkpt lat="46.82315" lon="6.51105">
        <ele>1117</ele>
        <time>2017-06-22T14:41:04Z</time>
      </trkpt>
      <trkpt lat="46.82376" lon="6.51065">
        <ele>1113</ele>
        <time>2017-06-22T14:41:09Z</time>
      </trkpt>
      <trkpt lat="46.82442" lon="6.51042">
        <ele>1111</ele>
        <time>2017-06-22T14:41:14Z</time>
      </trkpt>
      <trkpt lat="46.82477" lon="6.50987">
        <ele>1107</ele>
        <time>2017-06-22T14:41:19Z</time>
      </trkpt>
      <trkpt lat="46.82441" lon="6.50898">
        <ele>1103</ele>
        <time>2017-06-22T14:41:23Z</time>
      </trkpt>
      <trkpt lat="46.82403" lon="6.50838">
        <ele>1097</ele>
        <time>2017-06-22T14:41:27Z</time>
      </trkpt>
      <trkpt lat="46.82364" lon="6.50758">
        <ele>1096</ele>
        <time>2017-06-22T14:41:32Z</time>
      </trkpt>
      <trkpt lat="46.82332" lon="6.50687">
        <ele>1091</ele>
        <time>2017-06-22T14:41:36Z</time>
      </trkpt>
      <trkpt lat="46.82315" lon="6.50651">
        <ele>1088</ele>
        <time>2017-06-22T14:41:39Z</time>
      </trkpt>
      <trkpt lat="46.82283" lon="6.50547">
        <ele>1089</ele>
        <time>2017-06-22T14:41:44Z</time>
      </trkpt>
      <trkpt lat="46.82266" lon="6.50466">
        <ele>1088</ele>
        <time>2017-06-22T14:41:49Z</time>
      </trkpt>
      <trkpt lat="46.82254" lon="6.50421">
        <ele>1087</ele>
        <time>2017-06-22T14:41:53Z</time>
      </trkpt>
      <trkpt lat="46.82231" lon="6.50359">
        <ele>1088</ele>
        <time>2017-06-22T14:41:58Z</time>
      </trkpt>
      <trkpt lat="46.82212" lon="6.50303">
        <ele>1087</ele>
        <time>2017-06-22T14:42:03Z</time>
      </trkpt>
      <trkpt lat="46.82197" lon="6.50245">
        <ele>1086</ele>
        <time>2017-06-22T14:42:08Z</time>
      </trkpt>
      <trkpt lat="46.82189" lon="6.5022">
        <ele>1085</ele>
        <time>2017-06-22T14:42:12Z</time>
      </trkpt>
      <trkpt lat="46.82193" lon="6.50188">
        <ele>1087</ele>
        <time>2017-06-22T14:42:17Z</time>
      </trkpt>
      <trkpt lat="46.82211" lon="6.50161">
        <ele>1087</ele>
        <time>2017-06-22T14:42:22Z</time>
      </trkpt>
      <trkpt lat="46.82231" lon="6.50148">
        <ele>1086</ele>
        <time>2017-06-22T14:42:26Z</time>
      </trkpt>
      <trkpt lat="46.82251" lon="6.50138">
        <ele>1086</ele>
        <time>2017-06-22T14:42:30Z</time>
      </trkpt>
      <trkpt lat="46.82277" lon="6.50135">
        <ele>1086</ele>
        <time>2017-06-22T14:42:34Z</time>
      </trkpt>
      <trkpt lat="46.82303" lon="6.50126">
        <ele>1087</ele>
        <time>2017-06-22T14:42:39Z</time>
      </trkpt>
      <trkpt lat="46.82327" lon="6.50123">
        <ele>1088</ele>
        <time>2017-06-22T14:42:43Z</time>
      </trkpt>
      <trkpt lat="46.82358" lon="6.50118">
        <ele>1084</ele>
        <time>2017-06-22T14:42:48Z</time>
      </trkpt>
      <trkpt lat="46.82369" lon="6.50115">
        <ele>1084</ele>
        <time>2017-06-22T14:42:51Z</time>
      </trkpt>
      <trkpt lat="46.82397" lon="6.50108">
        <ele>1085</ele>
        <time>2017-06-22T14:42:56Z</time>
      </trkpt>
      <trkpt lat="46.82423" lon="6.50102">
        <ele>1087</ele>
        <time>2017-06-22T14:43:00Z</time>
      </trkpt>
      <trkpt lat="46.8244" lon="6.50079">
        <ele>1086</ele>
        <time>2017-06-22T14:43:05Z</time>
      </trkpt>
      <trkpt lat="46.82451" lon="6.50062">
        <ele>1087</ele>
        <time>2017-06-22T14:43:09Z</time>
      </trkpt>
      <trkpt lat="46.82459" lon="6.50043">
        <ele>1090</ele>
        <time>2017-06-22T14:43:13Z</time>
      </trkpt>
      <trkpt lat="46.82466" lon="6.50027">
        <ele>1092</ele>
        <time>2017-06-22T14:43:18Z</time>
      </trkpt>
      <trkpt lat="46.82474" lon="6.50013">
        <ele>1094</ele>
        <time>2017-06-22T14:43:22Z</time>
      </trkpt>
      <trkpt lat="46.82481" lon="6.50004">
        <ele>1094</ele>
        <time>2017-06-22T14:43:24Z</time>
      </trkpt>
      <trkpt lat="46.8249" lon="6.49992">
        <ele>1096</ele>
        <time>2017-06-22T14:43:29Z</time>
      </trkpt>
      <trkpt lat="46.82496" lon="6.49977">
        <ele>1096</ele>
        <time>2017-06-22T14:43:33Z</time>
      </trkpt>
      <trkpt lat="46.82506" lon="6.49965">
        <ele>1098</ele>
        <time>2017-06-22T14:43:37Z</time>
      </trkpt>
      <trkpt lat="46.82515" lon="6.49953">
        <ele>1101</ele>
        <time>2017-06-22T14:43:41Z</time>
      </trkpt>
      <trkpt lat="46.82525" lon="6.49941">
        <ele>1102</ele>
        <time>2017-06-22T14:43:46Z</time>
      </trkpt>
      <trkpt lat="46.82537" lon="6.49927">
        <ele>1103</ele>
        <time>2017-06-22T14:43:51Z</time>
      </trkpt>
      <trkpt lat="46.82546" lon="6.49916">
        <ele>1103</ele>
        <time>2017-06-22T14:43:54Z</time>
      </trkpt>
      <trkpt lat="46.82549" lon="6.4991">
        <ele>1104</ele>
        <time>2017-06-22T14:43:57Z</time>
      </trkpt>
      <trkpt lat="46.82556" lon="6.49896">
        <ele>1104</ele>
        <time>2017-06-22T14:44:01Z</time>
      </trkpt>
      <trkpt lat="46.82563" lon="6.49881">
        <ele>1105</ele>
        <time>2017-06-22T14:44:05Z</time>
      </trkpt>
      <trkpt lat="46.82571" lon="6.49867">
        <ele>1107</ele>
        <time>2017-06-22T14:44:09Z</time>
      </trkpt>
      <trkpt lat="46.82579" lon="6.49849">
        <ele>1107</ele>
        <time>2017-06-22T14:44:13Z</time>
      </trkpt>
      <trkpt lat="46.82586" lon="6.4983">
        <ele>1108</ele>
        <time>2017-06-22T14:44:18Z</time>
      </trkpt>
      <trkpt lat="46.82593" lon="6.49822">
        <ele>1109</ele>
        <time>2017-06-22T14:44:22Z</time>
      </trkpt>
      <trkpt lat="46.82604" lon="6.49806">
        <ele>1115</ele>
        <time>2017-06-22T14:44:27Z</time>
      </trkpt>
      <trkpt lat="46.82618" lon="6.49795">
        <ele>1119</ele>
        <time>2017-06-22T14:44:31Z</time>
      </trkpt>
      <trkpt lat="46.82633" lon="6.4979">
        <ele>1124</ele>
        <time>2017-06-22T14:44:36Z</time>
      </trkpt>
      <trkpt lat="46.82641" lon="6.49788">
        <ele>1124</ele>
        <time>2017-06-22T14:44:40Z</time>
      </trkpt>
      <trkpt lat="46.82656" lon="6.49786">
        <ele>1127</ele>
        <time>2017-06-22T14:44:45Z</time>
      </trkpt>
      <trkpt lat="46.82665" lon="6.49785">
        <ele>1131</ele>
        <time>2017-06-22T14:44:48Z</time>
      </trkpt>
      <trkpt lat="46.82681" lon="6.49788">
        <ele>1130</ele>
        <time>2017-06-22T14:44:53Z</time>
      </trkpt>
      <trkpt lat="46.82697" lon="6.49794">
        <ele>1128</ele>
        <time>2017-06-22T14:44:58Z</time>
      </trkpt>
      <trkpt lat="46.82703" lon="6.49796">
        <ele>1129</ele>
        <time>2017-06-22T14:45:00Z</time>
      </trkpt>
      <trkpt lat="46.82715" lon="6.49792">
        <ele>1130</ele>
        <time>2017-06-22T14:45:04Z</time>
      </trkpt>
      <trkpt lat="46.82725" lon="6.49787">
        <ele>1133</ele>
        <time>2017-06-22T14:45:08Z</time>
      </trkpt>
      <trkpt lat="46.82736" lon="6.49775">
        <ele>1133</ele>
        <time>2017-06-22T14:45:13Z</time>
      </trkpt>
      <trkpt lat="46.82747" lon="6.49764">
        <ele>1132</ele>
        <time>2017-06-22T14:45:18Z</time>
      </trkpt>
      <trkpt lat="46.82752" lon="6.49754">
        <ele>1131</ele>
        <time>2017-06-22T14:45:22Z</time>
      </trkpt>
      <trkpt lat="46.82752" lon="6.49739">
        <ele>1131</ele>
        <time>2017-06-22T14:45:26Z</time>
      </trkpt>
      <trkpt lat="46.82751" lon="6.49719">
        <ele>1133</ele>
        <time>2017-06-22T14:45:31Z</time>
      </trkpt>
      <trkpt lat="46.82754" lon="6.49704">
        <ele>1133</ele>
        <time>2017-06-22T14:45:35Z</time>
      </trkpt>
      <trkpt lat="46.82757" lon="6.49694">
        <ele>1132</ele>
        <time>2017-06-22T14:45:38Z</time>
      </trkpt>
      <trkpt lat="46.82764" lon="6.49682">
        <ele>1132</ele>
        <time>2017-06-22T14:45:42Z</time>
      </trkpt>
      <trkpt lat="46.82775" lon="6.49669">
        <ele>1133</ele>
        <time>2017-06-22T14:45:47Z</time>
      </trkpt>
      <trkpt lat="46.82785" lon="6.49661">
        <ele>1133</ele>
        <time>2017-06-22T14:45:51Z</time>
      </trkpt>
      <trkpt lat="46.82799" lon="6.49654">
        <ele>1134</ele>
        <time>2017-06-22T14:45:56Z</time>
      </trkpt>
      <trkpt lat="46.82813" lon="6.49648">
        <ele>1136</ele>
        <time>2017-06-22T14:46:01Z</time>
      </trkpt>
      <trkpt lat="46.82824" lon="6.49643">
        <ele>1137</ele>
        <time>2017-06-22T14:46:05Z</time>
      </trkpt>
      <trkpt lat="46.82835" lon="6.49639">
        <ele>1138</ele>
        <time>2017-06-22T14:46:09Z</time>
      </trkpt>
      <trkpt lat="46.82846" lon="6.49636">
        <ele>1138</ele>
        <time>2017-06-22T14:46:13Z</time>
      </trkpt>
      <trkpt lat="46.82857" lon="6.49631">
        <ele>1138</ele>
        <time>2017-06-22T14:46:17Z</time>
      </trkpt>
      <trkpt lat="46.8287" lon="6.49623">
        <ele>1140</ele>
        <time>2017-06-22T14:46:21Z</time>
      </trkpt>
      <trkpt lat="46.82881" lon="6.49619">
        <ele>1141</ele>
        <time>2017-06-22T14:46:25Z</time>
      </trkpt>
      <trkpt lat="46.8289" lon="6.49619">
        <ele>1141</ele>
        <time>2017-06-22T14:46:30Z</time>
      </trkpt>
      <trkpt lat="46.82906" lon="6.49611">
        <ele>1144</ele>
        <time>2017-06-22T14:46:35Z</time>
      </trkpt>
      <trkpt lat="46.82925" lon="6.49601">
        <ele>1145</ele>
        <time>2017-06-22T14:46:40Z</time>
      </trkpt>
      <trkpt lat="46.82941" lon="6.49574">
        <ele>1146</ele>
        <time>2017-06-22T14:46:44Z</time>
      </trkpt>
      <trkpt lat="46.82953" lon="6.49555">
        <ele>1148</ele>
        <time>2017-06-22T14:46:49Z</time>
      </trkpt>
      <trkpt lat="46.82971" lon="6.4953">
        <ele>1150</ele>
        <time>2017-06-22T14:46:54Z</time>
      </trkpt>
      <trkpt lat="46.82985" lon="6.49506">
        <ele>1151</ele>
        <time>2017-06-22T14:46:58Z</time>
      </trkpt>
      <trkpt lat="46.83006" lon="6.49471">
        <ele>1150</ele>
        <time>2017-06-22T14:47:03Z</time>
      </trkpt>
      <trkpt lat="46.83019" lon="6.49416">
        <ele>1149</ele>
        <time>2017-06-22T14:47:08Z</time>
      </trkpt>
      <trkpt lat="46.83006" lon="6.49344">
        <ele>1146</ele>
        <time>2017-06-22T14:47:12Z</time>
      </trkpt>
      <trkpt lat="46.82996" lon="6.4928">
        <ele>1135</ele>
        <time>2017-06-22T14:47:17Z</time>
      </trkpt>
      <trkpt lat="46.83" lon="6.49192">
        <ele>1142</ele>
        <time>2017-06-22T14:47:21Z</time>
      </trkpt>
      <trkpt lat="46.83007" lon="6.49119">
        <ele>1135</ele>
        <time>2017-06-22T14:47:26Z</time>
      </trkpt>
      <trkpt lat="46.82962" lon="6.49062">
        <ele>1131</ele>
        <time>2017-06-22T14:47:30Z</time>
      </trkpt>
      <trkpt lat="46.82908" lon="6.49013">
        <ele>1124</ele>
        <time>2017-06-22T14:47:35Z</time>
      </trkpt>
      <trkpt lat="46.82851" lon="6.48948">
        <ele>1121</ele>
        <time>2017-06-22T14:47:40Z</time>
      </trkpt>
      <trkpt lat="46.82798" lon="6.48895">
        <ele>1115</ele>
        <time>2017-06-22T14:47:44Z</time>
      </trkpt>
      <trkpt lat="46.82772" lon="6.48869">
        <ele>1115</ele>
        <time>2017-06-22T14:47:48Z</time>
      </trkpt>
      <trkpt lat="46.82719" lon="6.48759">
        <ele>1110</ele>
        <time>2017-06-22T14:47:53Z</time>
      </trkpt>
      <trkpt lat="46.82682" lon="6.4864">
        <ele>1108</ele>
        <time>2017-06-22T14:47:58Z</time>
      </trkpt>
      <trkpt lat="46.82638" lon="6.48579">
        <ele>1102</ele>
        <time>2017-06-22T14:48:02Z</time>
      </trkpt>
      <trkpt lat="46.82599" lon="6.4851">
        <ele>1098</ele>
        <time>2017-06-22T14:48:06Z</time>
      </trkpt>
      <trkpt lat="46.82554" lon="6.48418">
        <ele>1092</ele>
        <time>2017-06-22T14:48:11Z</time>
      </trkpt>
      <trkpt lat="46.82528" lon="6.48329">
        <ele>1087</ele>
        <time>2017-06-22T14:48:16Z</time>
      </trkpt>
      <trkpt lat="46.82521" lon="6.48277">
        <ele>1084</ele>
        <time>2017-06-22T14:48:19Z</time>
      </trkpt>
      <trkpt lat="46.8251" lon="6.48218">
        <ele>1080</ele>
        <time>2017-06-22T14:48:22Z</time>
      </trkpt>
      <trkpt lat="46.82487" lon="6.48158">
        <ele>1078</ele>
        <time>2017-06-22T14:48:27Z</time>
      </trkpt>
      <trkpt lat="46.82445" lon="6.4808">
        <ele>1069</ele>
        <time>2017-06-22T14:48:32Z</time>
      </trkpt>
      <trkpt lat="46.8242" lon="6.47985">
        <ele>1067</ele>
        <time>2017-06-22T14:48:37Z</time>
      </trkpt>
      <trkpt lat="46.82406" lon="6.47907">
        <ele>1067</ele>
        <time>2017-06-22T14:48:40Z</time>
      </trkpt>
      <trkpt lat="46.82377" lon="6.47831">
        <ele>1066</ele>
        <time>2017-06-22T14:48:45Z</time>
      </trkpt>
      <trkpt lat="46.82351" lon="6.47789">
        <ele>1066</ele>
        <time>2017-06-22T14:48:49Z</time>
      </trkpt>
      <trkpt lat="46.82328" lon="6.47755">
        <ele>1067</ele>
        <time>2017-06-22T14:48:54Z</time>
      </trkpt>
      <trkpt lat="46.82304" lon="6.47719">
        <ele>1068</ele>
        <time>2017-06-22T14:48:59Z</time>
      </trkpt>
      <trkpt lat="46.82282" lon="6.47689">
        <ele>1070</ele>
        <time>2017-06-22T14:49:04Z</time>
      </trkpt>
      <trkpt lat="46.82263" lon="6.4766">
        <ele>1072</ele>
        <time>2017-06-22T14:49:08Z</time>
      </trkpt>
      <trkpt lat="46.82249" lon="6.47637">
        <ele>1075</ele>
        <time>2017-06-22T14:49:12Z</time>
      </trkpt>
      <trkpt lat="46.82237" lon="6.47613">
        <ele>1074</ele>
        <time>2017-06-22T14:49:16Z</time>
      </trkpt>
      <trkpt lat="46.82227" lon="6.47597">
        <ele>1076</ele>
        <time>2017-06-22T14:49:20Z</time>
      </trkpt>
      <trkpt lat="46.8221" lon="6.47563">
        <ele>1077</ele>
        <time>2017-06-22T14:49:25Z</time>
      </trkpt>
      <trkpt lat="46.822" lon="6.47548">
        <ele>1077</ele>
        <time>2017-06-22T14:49:29Z</time>
      </trkpt>
      <trkpt lat="46.82185" lon="6.47518">
        <ele>1078</ele>
        <time>2017-06-22T14:49:34Z</time>
      </trkpt>
      <trkpt lat="46.82173" lon="6.47498">
        <ele>1080</ele>
        <time>2017-06-22T14:49:39Z</time>
      </trkpt>
      <trkpt lat="46.82156" lon="6.47468">
        <ele>1084</ele>
        <time>2017-06-22T14:49:43Z</time>
      </trkpt>
      <trkpt lat="46.8214" lon="6.47443">
        <ele>1085</ele>
        <time>2017-06-22T14:49:48Z</time>
      </trkpt>
      <trkpt lat="46.82128" lon="6.47423">
        <ele>1087</ele>
        <time>2017-06-22T14:49:52Z</time>
      </trkpt>
      <trkpt lat="46.82119" lon="6.47408">
        <ele>1088</ele>
        <time>2017-06-22T14:49:56Z</time>
      </trkpt>
      <trkpt lat="46.82111" lon="6.47392">
        <ele>1088</ele>
        <time>2017-06-22T14:50:00Z</time>
      </trkpt>
      <trkpt lat="46.82095" lon="6.47363">
        <ele>1090</ele>
        <time>2017-06-22T14:50:04Z</time>
      </trkpt>
      <trkpt lat="46.82084" lon="6.47343">
        <ele>1092</ele>
        <time>2017-06-22T14:50:08Z</time>
      </trkpt>
      <trkpt lat="46.8207" lon="6.47315">
        <ele>1093</ele>
        <time>2017-06-22T14:50:12Z</time>
      </trkpt>
      <trkpt lat="46.82059" lon="6.47285">
        <ele>1096</ele>
        <time>2017-06-22T14:50:17Z</time>
      </trkpt>
      <trkpt lat="46.82048" lon="6.47262">
        <ele>1097</ele>
        <time>2017-06-22T14:50:21Z</time>
      </trkpt>
      <trkpt lat="46.82035" lon="6.4723">
        <ele>1098</ele>
        <time>2017-06-22T14:50:26Z</time>
      </trkpt>
      <trkpt lat="46.82025" lon="6.47205">
        <ele>1099</ele>
        <time>2017-06-22T14:50:30Z</time>
      </trkpt>
      <trkpt lat="46.82013" lon="6.47175">
        <ele>1100</ele>
        <time>2017-06-22T14:50:35Z</time>
      </trkpt>
      <trkpt lat="46.82001" lon="6.47148">
        <ele>1100</ele>
        <time>2017-06-22T14:50:39Z</time>
      </trkpt>
      <trkpt lat="46.8199" lon="6.47117">
        <ele>1101</ele>
        <time>2017-06-22T14:50:44Z</time>
      </trkpt>
      <trkpt lat="46.81979" lon="6.47084">
        <ele>1103</ele>
        <time>2017-06-22T14:50:49Z</time>
      </trkpt>
      <trkpt lat="46.81971" lon="6.47057">
        <ele>1105</ele>
        <time>2017-06-22T14:50:53Z</time>
      </trkpt>
      <trkpt lat="46.81964" lon="6.47029">
        <ele>1106</ele>
        <time>2017-06-22T14:50:57Z</time>
      </trkpt>
      <trkpt lat="46.81957" lon="6.46999">
        <ele>1108</ele>
        <time>2017-06-22T14:51:01Z</time>
      </trkpt>
      <trkpt lat="46.81946" lon="6.46956">
        <ele>1109</ele>
        <time>2017-06-22T14:51:06Z</time>
      </trkpt>
      <trkpt lat="46.81938" lon="6.46921">
        <ele>1110</ele>
        <time>2017-06-22T14:51:10Z</time>
      </trkpt>
      <trkpt lat="46.81929" lon="6.46884">
        <ele>1111</ele>
        <time>2017-06-22T14:51:14Z</time>
      </trkpt>
      <trkpt lat="46.81921" lon="6.46844">
        <ele>1111</ele>
        <time>2017-06-22T14:51:18Z</time>
      </trkpt>
      <trkpt lat="46.81906" lon="6.46792">
        <ele>1111</ele>
        <time>2017-06-22T14:51:23Z</time>
      </trkpt>
      <trkpt lat="46.81886" lon="6.46736">
        <ele>1110</ele>
        <time>2017-06-22T14:51:28Z</time>
      </trkpt>
      <trkpt lat="46.81868" lon="6.46692">
        <ele>1108</ele>
        <time>2017-06-22T14:51:32Z</time>
      </trkpt>
      <trkpt lat="46.81847" lon="6.46644">
        <ele>1108</ele>
        <time>2017-06-22T14:51:37Z</time>
      </trkpt>
      <trkpt lat="46.8183" lon="6.46604">
        <ele>1110</ele>
        <time>2017-06-22T14:51:41Z</time>
      </trkpt>
      <trkpt lat="46.8181" lon="6.46557">
        <ele>1113</ele>
        <time>2017-06-22T14:51:46Z</time>
      </trkpt>
      <trkpt lat="46.818" lon="6.46521">
        <ele>1110</ele>
        <time>2017-06-22T14:51:50Z</time>
      </trkpt>
      <trkpt lat="46.81793" lon="6.46477">
        <ele>1108</ele>
        <time>2017-06-22T14:51:54Z</time>
      </trkpt>
      <trkpt lat="46.81788" lon="6.46429">
        <ele>1107</ele>
        <time>2017-06-22T14:51:58Z</time>
      </trkpt>
      <trkpt lat="46.81782" lon="6.46373">
        <ele>1107</ele>
        <time>2017-06-22T14:52:03Z</time>
      </trkpt>
      <trkpt lat="46.81778" lon="6.46319">
        <ele>1107</ele>
        <time>2017-06-22T14:52:08Z</time>
      </trkpt>
      <trkpt lat="46.81773" lon="6.46271">
        <ele>1108</ele>
        <time>2017-06-22T14:52:13Z</time>
      </trkpt>
      <trkpt lat="46.81769" lon="6.46232">
        <ele>1109</ele>
        <time>2017-06-22T14:52:17Z</time>
      </trkpt>
      <trkpt lat="46.81767" lon="6.46194">
        <ele>1108</ele>
        <time>2017-06-22T14:52:21Z</time>
      </trkpt>
      <trkpt lat="46.81765" lon="6.46145">
        <ele>1109</ele>
        <time>2017-06-22T14:52:26Z</time>
      </trkpt>
      <trkpt lat="46.81764" lon="6.46106">
        <ele>1110</ele>
        <time>2017-06-22T14:52:30Z</time>
      </trkpt>
      <trkpt lat="46.81769" lon="6.46065">
        <ele>1110</ele>
        <time>2017-06-22T14:52:34Z</time>
      </trkpt>
      <trkpt lat="46.81775" lon="6.46024">
        <ele>1109</ele>
        <time>2017-06-22T14:52:38Z</time>
      </trkpt>
      <trkpt lat="46.81781" lon="6.45974">
        <ele>1109</ele>
        <time>2017-06-22T14:52:43Z</time>
      </trkpt>
      <trkpt lat="46.81785" lon="6.45923">
        <ele>1109</ele>
        <time>2017-06-22T14:52:48Z</time>
      </trkpt>
      <trkpt lat="46.81788" lon="6.45883">
        <ele>1110</ele>
        <time>2017-06-22T14:52:52Z</time>
      </trkpt>
      <trkpt lat="46.81792" lon="6.45835">
        <ele>1111</ele>
        <time>2017-06-22T14:52:57Z</time>
      </trkpt>
      <trkpt lat="46.81795" lon="6.45797">
        <ele>1112</ele>
        <time>2017-06-22T14:53:01Z</time>
      </trkpt>
      <trkpt lat="46.818" lon="6.45752">
        <ele>1111</ele>
        <time>2017-06-22T14:53:06Z</time>
      </trkpt>
      <trkpt lat="46.81803" lon="6.45717">
        <ele>1110</ele>
        <time>2017-06-22T14:53:10Z</time>
      </trkpt>
      <trkpt lat="46.81808" lon="6.45671">
        <ele>1109</ele>
        <time>2017-06-22T14:53:15Z</time>
      </trkpt>
      <trkpt lat="46.81806" lon="6.45622">
        <ele>1110</ele>
        <time>2017-06-22T14:53:20Z</time>
      </trkpt>
      <trkpt lat="46.81809" lon="6.45579">
        <ele>1113</ele>
        <time>2017-06-22T14:53:24Z</time>
      </trkpt>
      <trkpt lat="46.81815" lon="6.45547">
        <ele>1111</ele>
        <time>2017-06-22T14:53:28Z</time>
      </trkpt>
      <trkpt lat="46.81821" lon="6.455">
        <ele>1111</ele>
        <time>2017-06-22T14:53:33Z</time>
      </trkpt>
      <trkpt lat="46.81825" lon="6.45448">
        <ele>1110</ele>
        <time>2017-06-22T14:53:38Z</time>
      </trkpt>
      <trkpt lat="46.81828" lon="6.45408">
        <ele>1111</ele>
        <time>2017-06-22T14:53:42Z</time>
      </trkpt>
      <trkpt lat="46.8183" lon="6.45367">
        <ele>1114</ele>
        <time>2017-06-22T14:53:46Z</time>
      </trkpt>
      <trkpt lat="46.8183" lon="6.45325">
        <ele>1114</ele>
        <time>2017-06-22T14:53:50Z</time>
      </trkpt>
      <trkpt lat="46.81832" lon="6.45286">
        <ele>1114</ele>
        <time>2017-06-22T14:53:54Z</time>
      </trkpt>
      <trkpt lat="46.81833" lon="6.45246">
        <ele>1114</ele>
        <time>2017-06-22T14:53:58Z</time>
      </trkpt>
      <trkpt lat="46.81835" lon="6.452">
        <ele>1116</ele>
        <time>2017-06-22T14:54:03Z</time>
      </trkpt>
      <trkpt lat="46.81835" lon="6.45162">
        <ele>1116</ele>
        <time>2017-06-22T14:54:07Z</time>
      </trkpt>
      <trkpt lat="46.81838" lon="6.45114">
        <ele>1117</ele>
        <time>2017-06-22T14:54:12Z</time>
      </trkpt>
      <trkpt lat="46.81839" lon="6.45065">
        <ele>1117</ele>
        <time>2017-06-22T14:54:17Z</time>
      </trkpt>
      <trkpt lat="46.8184" lon="6.45024">
        <ele>1117</ele>
        <time>2017-06-22T14:54:21Z</time>
      </trkpt>
      <trkpt lat="46.81844" lon="6.44969">
        <ele>1116</ele>
        <time>2017-06-22T14:54:26Z</time>
      </trkpt>
      <trkpt lat="46.81845" lon="6.44926">
        <ele>1116</ele>
        <time>2017-06-22T14:54:30Z</time>
      </trkpt>
      <trkpt lat="46.81847" lon="6.44885">
        <ele>1116</ele>
        <time>2017-06-22T14:54:34Z</time>
      </trkpt>
      <trkpt lat="46.81849" lon="6.44833">
        <ele>1117</ele>
        <time>2017-06-22T14:54:39Z</time>
      </trkpt>
      <trkpt lat="46.81852" lon="6.44781">
        <ele>1118</ele>
        <time>2017-06-22T14:54:44Z</time>
      </trkpt>
      <trkpt lat="46.81851" lon="6.44729">
        <ele>1118</ele>
        <time>2017-06-22T14:54:49Z</time>
      </trkpt>
      <trkpt lat="46.81854" lon="6.44684">
        <ele>1117</ele>
        <time>2017-06-22T14:54:53Z</time>
      </trkpt>
      <trkpt lat="46.81863" lon="6.44627">
        <ele>1117</ele>
        <time>2017-06-22T14:54:58Z</time>
      </trkpt>
      <trkpt lat="46.81871" lon="6.44583">
        <ele>1116</ele>
        <time>2017-06-22T14:55:02Z</time>
      </trkpt>
      <trkpt lat="46.81881" lon="6.44538">
        <ele>1116</ele>
        <time>2017-06-22T14:55:06Z</time>
      </trkpt>
      <trkpt lat="46.81891" lon="6.44479">
        <ele>1115</ele>
        <time>2017-06-22T14:55:11Z</time>
      </trkpt>
      <trkpt lat="46.81902" lon="6.44422">
        <ele>1115</ele>
        <time>2017-06-22T14:55:16Z</time>
      </trkpt>
      <trkpt lat="46.8191" lon="6.44377">
        <ele>1115</ele>
        <time>2017-06-22T14:55:20Z</time>
      </trkpt>
      <trkpt lat="46.81921" lon="6.44319">
        <ele>1114</ele>
        <time>2017-06-22T14:55:25Z</time>
      </trkpt>
      <trkpt lat="46.81932" lon="6.44262">
        <ele>1114</ele>
        <time>2017-06-22T14:55:30Z</time>
      </trkpt>
      <trkpt lat="46.8194" lon="6.44217">
        <ele>1113</ele>
        <time>2017-06-22T14:55:34Z</time>
      </trkpt>
      <trkpt lat="46.81954" lon="6.44161">
        <ele>1113</ele>
        <time>2017-06-22T14:55:39Z</time>
      </trkpt>
      <trkpt lat="46.81974" lon="6.44116">
        <ele>1112</ele>
        <time>2017-06-22T14:55:43Z</time>
      </trkpt>
      <trkpt lat="46.82003" lon="6.4408">
        <ele>1110</ele>
        <time>2017-06-22T14:55:47Z</time>
      </trkpt>
      <trkpt lat="46.82052" lon="6.4405">
        <ele>1103</ele>
        <time>2017-06-22T14:55:52Z</time>
      </trkpt>
      <trkpt lat="46.82092" lon="6.44032">
        <ele>1099</ele>
        <time>2017-06-22T14:55:56Z</time>
      </trkpt>
      <trkpt lat="46.82132" lon="6.44026">
        <ele>1096</ele>
        <time>2017-06-22T14:56:00Z</time>
      </trkpt>
      <trkpt lat="46.82173" lon="6.44027">
        <ele>1096</ele>
        <time>2017-06-22T14:56:04Z</time>
      </trkpt>
      <trkpt lat="46.82221" lon="6.4403">
        <ele>1097</ele>
        <time>2017-06-22T14:56:09Z</time>
      </trkpt>
      <trkpt lat="46.82258" lon="6.44034">
        <ele>1097</ele>
        <time>2017-06-22T14:56:13Z</time>
      </trkpt>
      <trkpt lat="46.82288" lon="6.44034">
        <ele>1098</ele>
        <time>2017-06-22T14:56:17Z</time>
      </trkpt>
      <trkpt lat="46.82311" lon="6.44032">
        <ele>1100</ele>
        <time>2017-06-22T14:56:21Z</time>
      </trkpt>
      <trkpt lat="46.82333" lon="6.4403">
        <ele>1100</ele>
        <time>2017-06-22T14:56:25Z</time>
      </trkpt>
      <trkpt lat="46.82354" lon="6.4402">
        <ele>1101</ele>
        <time>2017-06-22T14:56:29Z</time>
      </trkpt>
      <trkpt lat="46.82375" lon="6.44008">
        <ele>1101</ele>
        <time>2017-06-22T14:56:33Z</time>
      </trkpt>
      <trkpt lat="46.82395" lon="6.4398">
        <ele>1104</ele>
        <time>2017-06-22T14:56:38Z</time>
      </trkpt>
      <trkpt lat="46.82408" lon="6.43944">
        <ele>1104</ele>
        <time>2017-06-22T14:56:43Z</time>
      </trkpt>
      <trkpt lat="46.82413" lon="6.43913">
        <ele>1105</ele>
        <time>2017-06-22T14:56:47Z</time>
      </trkpt>
      <trkpt lat="46.82417" lon="6.43884">
        <ele>1105</ele>
        <time>2017-06-22T14:56:51Z</time>
      </trkpt>
      <trkpt lat="46.82422" lon="6.43846">
        <ele>1107</ele>
        <time>2017-06-22T14:56:56Z</time>
      </trkpt>
      <trkpt lat="46.8243" lon="6.43821">
        <ele>1109</ele>
        <time>2017-06-22T14:57:00Z</time>
      </trkpt>
      <trkpt lat="46.82439" lon="6.43795">
        <ele>1108</ele>
        <time>2017-06-22T14:57:04Z</time>
      </trkpt>
      <trkpt lat="46.82452" lon="6.43776">
        <ele>1110</ele>
        <time>2017-06-22T14:57:08Z</time>
      </trkpt>
      <trkpt lat="46.82468" lon="6.43759">
        <ele>1110</ele>
        <time>2017-06-22T14:57:12Z</time>
      </trkpt>
      <trkpt lat="46.82489" lon="6.4374">
        <ele>1110</ele>
        <time>2017-06-22T14:57:17Z</time>
      </trkpt>
      <trkpt lat="46.82504" lon="6.43725">
        <ele>1112</ele>
        <time>2017-06-22T14:57:21Z</time>
      </trkpt>
      <trkpt lat="46.82519" lon="6.43707">
        <ele>1112</ele>
        <time>2017-06-22T14:57:25Z</time>
      </trkpt>
      <trkpt lat="46.82536" lon="6.43678">
        <ele>1113</ele>
        <time>2017-06-22T14:57:30Z</time>
      </trkpt>
      <trkpt lat="46.82555" lon="6.43654">
        <ele>1113</ele>
        <time>2017-06-22T14:57:35Z</time>
      </trkpt>
      <trkpt lat="46.82574" lon="6.43629">
        <ele>1113</ele>
        <time>2017-06-22T14:57:40Z</time>
      </trkpt>
      <trkpt lat="46.82588" lon="6.43608">
        <ele>1114</ele>
        <time>2017-06-22T14:57:44Z</time>
      </trkpt>
      <trkpt lat="46.82605" lon="6.43579">
        <ele>1115</ele>
        <time>2017-06-22T14:57:49Z</time>
      </trkpt>
      <trkpt lat="46.82622" lon="6.4355">
        <ele>1115</ele>
        <time>2017-06-22T14:57:54Z</time>
      </trkpt>
      <trkpt lat="46.82635" lon="6.43526">
        <ele>1115</ele>
        <time>2017-06-22T14:57:58Z</time>
      </trkpt>
      <trkpt lat="46.82649" lon="6.43503">
        <ele>1116</ele>
        <time>2017-06-22T14:58:02Z</time>
      </trkpt>
      <trkpt lat="46.82662" lon="6.4348">
        <ele>1116</ele>
        <time>2017-06-22T14:58:06Z</time>
      </trkpt>
      <trkpt lat="46.82679" lon="6.43454">
        <ele>1115</ele>
        <time>2017-06-22T14:58:11Z</time>
      </trkpt>
      <trkpt lat="46.82695" lon="6.43428">
        <ele>1116</ele>
        <time>2017-06-22T14:58:16Z</time>
      </trkpt>
      <trkpt lat="46.82708" lon="6.43407">
        <ele>1118</ele>
        <time>2017-06-22T14:58:20Z</time>
      </trkpt>
      <trkpt lat="46.82722" lon="6.4339">
        <ele>1121</ele>
        <time>2017-06-22T14:58:24Z</time>
      </trkpt>
      <trkpt lat="46.82736" lon="6.4337">
        <ele>1123</ele>
        <time>2017-06-22T14:58:28Z</time>
      </trkpt>
      <trkpt lat="46.82755" lon="6.43347">
        <ele>1124</ele>
        <time>2017-06-22T14:58:33Z</time>
      </trkpt>
      <trkpt lat="46.82768" lon="6.43327">
        <ele>1126</ele>
        <time>2017-06-22T14:58:37Z</time>
      </trkpt>
      <trkpt lat="46.82785" lon="6.43306">
        <ele>1126</ele>
        <time>2017-06-22T14:58:42Z</time>
      </trkpt>
      <trkpt lat="46.828" lon="6.4329">
        <ele>1125</ele>
        <time>2017-06-22T14:58:47Z</time>
      </trkpt>
      <trkpt lat="46.82822" lon="6.43274">
        <ele>1126</ele>
        <time>2017-06-22T14:58:51Z</time>
      </trkpt>
      <trkpt lat="46.82841" lon="6.43266">
        <ele>1128</ele>
        <time>2017-06-22T14:58:55Z</time>
      </trkpt>
      <trkpt lat="46.8286" lon="6.43257">
        <ele>1130</ele>
        <time>2017-06-22T14:58:59Z</time>
      </trkpt>
      <trkpt lat="46.82878" lon="6.43247">
        <ele>1131</ele>
        <time>2017-06-22T14:59:03Z</time>
      </trkpt>
      <trkpt lat="46.82898" lon="6.43237">
        <ele>1132</ele>
        <time>2017-06-22T14:59:07Z</time>
      </trkpt>
      <trkpt lat="46.82921" lon="6.43225">
        <ele>1132</ele>
        <time>2017-06-22T14:59:12Z</time>
      </trkpt>
      <trkpt lat="46.82945" lon="6.43209">
        <ele>1132</ele>
        <time>2017-06-22T14:59:17Z</time>
      </trkpt>
      <trkpt lat="46.82974" lon="6.43193">
        <ele>1133</ele>
        <time>2017-06-22T14:59:22Z</time>
      </trkpt>
      <trkpt lat="46.82996" lon="6.43175">
        <ele>1134</ele>
        <time>2017-06-22T14:59:26Z</time>
      </trkpt>
      <trkpt lat="46.83018" lon="6.43157">
        <ele>1135</ele>
        <time>2017-06-22T14:59:30Z</time>
      </trkpt>
      <trkpt lat="46.83041" lon="6.43139">
        <ele>1135</ele>
        <time>2017-06-22T14:59:34Z</time>
      </trkpt>
      <trkpt lat="46.8307" lon="6.43113">
        <ele>1136</ele>
        <time>2017-06-22T14:59:39Z</time>
      </trkpt>
      <trkpt lat="46.83096" lon="6.43095">
        <ele>1136</ele>
        <time>2017-06-22T14:59:43Z</time>
      </trkpt>
      <trkpt lat="46.83122" lon="6.43073">
        <ele>1135</ele>
        <time>2017-06-22T14:59:47Z</time>
      </trkpt>
      <trkpt lat="46.83142" lon="6.43038">
        <ele>1134</ele>
        <time>2017-06-22T14:59:51Z</time>
      </trkpt>
      <trkpt lat="46.83158" lon="6.42999">
        <ele>1135</ele>
        <time>2017-06-22T14:59:55Z</time>
      </trkpt>
      <trkpt lat="46.83174" lon="6.42958">
        <ele>1136</ele>
        <time>2017-06-22T14:59:59Z</time>
      </trkpt>
      <trkpt lat="46.83194" lon="6.42906">
        <ele>1136</ele>
        <time>2017-06-22T15:00:04Z</time>
      </trkpt>
      <trkpt lat="46.83216" lon="6.42857">
        <ele>1136</ele>
        <time>2017-06-22T15:00:09Z</time>
      </trkpt>
      <trkpt lat="46.83231" lon="6.42816">
        <ele>1136</ele>
        <time>2017-06-22T15:00:13Z</time>
      </trkpt>
      <trkpt lat="46.83247" lon="6.42776">
        <ele>1134</ele>
        <time>2017-06-22T15:00:17Z</time>
      </trkpt>
      <trkpt lat="46.83267" lon="6.42726">
        <ele>1134</ele>
        <time>2017-06-22T15:00:22Z</time>
      </trkpt>
      <trkpt lat="46.83287" lon="6.42678">
        <ele>1133</ele>
        <time>2017-06-22T15:00:27Z</time>
      </trkpt>
      <trkpt lat="46.83304" lon="6.42641">
        <ele>1132</ele>
        <time>2017-06-22T15:00:31Z</time>
      </trkpt>
      <trkpt lat="46.83321" lon="6.42606">
        <ele>1132</ele>
        <time>2017-06-22T15:00:35Z</time>
      </trkpt>
      <trkpt lat="46.83347" lon="6.42567">
        <ele>1131</ele>
        <time>2017-06-22T15:00:40Z</time>
      </trkpt>
      <trkpt lat="46.83375" lon="6.42525">
        <ele>1129</ele>
        <time>2017-06-22T15:00:45Z</time>
      </trkpt>
      <trkpt lat="46.83392" lon="6.42484">
        <ele>1127</ele>
        <time>2017-06-22T15:00:49Z</time>
      </trkpt>
      <trkpt lat="46.83408" lon="6.42429">
        <ele>1126</ele>
        <time>2017-06-22T15:00:54Z</time>
      </trkpt>
      <trkpt lat="46.83421" lon="6.42383">
        <ele>1126</ele>
        <time>2017-06-22T15:00:58Z</time>
      </trkpt>
      <trkpt lat="46.83436" lon="6.4233">
        <ele>1126</ele>
        <time>2017-06-22T15:01:03Z</time>
      </trkpt>
      <trkpt lat="46.83447" lon="6.42285">
        <ele>1126</ele>
        <time>2017-06-22T15:01:07Z</time>
      </trkpt>
      <trkpt lat="46.83452" lon="6.42226">
        <ele>1125</ele>
        <time>2017-06-22T15:01:12Z</time>
      </trkpt>
      <trkpt lat="46.83451" lon="6.42163">
        <ele>1123</ele>
        <time>2017-06-22T15:01:17Z</time>
      </trkpt>
      <trkpt lat="46.83444" lon="6.42114">
        <ele>1122</ele>
        <time>2017-06-22T15:01:21Z</time>
      </trkpt>
      <trkpt lat="46.83433" lon="6.4206">
        <ele>1120</ele>
        <time>2017-06-22T15:01:25Z</time>
      </trkpt>
      <trkpt lat="46.83426" lon="6.42022">
        <ele>1121</ele>
        <time>2017-06-22T15:01:29Z</time>
      </trkpt>
      <trkpt lat="46.8342" lon="6.41952">
        <ele>1120</ele>
        <time>2017-06-22T15:01:33Z</time>
      </trkpt>
      <trkpt lat="46.83415" lon="6.41884">
        <ele>1119</ele>
        <time>2017-06-22T15:01:38Z</time>
      </trkpt>
      <trkpt lat="46.83411" lon="6.41832">
        <ele>1118</ele>
        <time>2017-06-22T15:01:42Z</time>
      </trkpt>
      <trkpt lat="46.83407" lon="6.41782">
        <ele>1118</ele>
        <time>2017-06-22T15:01:46Z</time>
      </trkpt>
      <trkpt lat="46.83416" lon="6.41712">
        <ele>1115</ele>
        <time>2017-06-22T15:01:51Z</time>
      </trkpt>
      <trkpt lat="46.83435" lon="6.41649">
        <ele>1116</ele>
        <time>2017-06-22T15:01:56Z</time>
      </trkpt>
      <trkpt lat="46.83452" lon="6.41599">
        <ele>1116</ele>
        <time>2017-06-22T15:02:00Z</time>
      </trkpt>
      <trkpt lat="46.83468" lon="6.41536">
        <ele>1112</ele>
        <time>2017-06-22T15:02:05Z</time>
      </trkpt>
      <trkpt lat="46.8346" lon="6.41464">
        <ele>1111</ele>
        <time>2017-06-22T15:02:10Z</time>
      </trkpt>
      <trkpt lat="46.83445" lon="6.41411">
        <ele>1110</ele>
        <time>2017-06-22T15:02:14Z</time>
      </trkpt>
      <trkpt lat="46.83424" lon="6.41344">
        <ele>1110</ele>
        <time>2017-06-22T15:02:19Z</time>
      </trkpt>
      <trkpt lat="46.83405" lon="6.4128">
        <ele>1111</ele>
        <time>2017-06-22T15:02:24Z</time>
      </trkpt>
      <trkpt lat="46.83394" lon="6.41232">
        <ele>1111</ele>
        <time>2017-06-22T15:02:28Z</time>
      </trkpt>
      <trkpt lat="46.83378" lon="6.41179">
        <ele>1113</ele>
        <time>2017-06-22T15:02:33Z</time>
      </trkpt>
      <trkpt lat="46.83361" lon="6.41118">
        <ele>1111</ele>
        <time>2017-06-22T15:02:37Z</time>
      </trkpt>
      <trkpt lat="46.83347" lon="6.41059">
        <ele>1109</ele>
        <time>2017-06-22T15:02:42Z</time>
      </trkpt>
      <trkpt lat="46.83332" lon="6.41008">
        <ele>1106</ele>
        <time>2017-06-22T15:02:46Z</time>
      </trkpt>
      <trkpt lat="46.83319" lon="6.40954">
        <ele>1105</ele>
        <time>2017-06-22T15:02:50Z</time>
      </trkpt>
      <trkpt lat="46.83314" lon="6.40895">
        <ele>1103</ele>
        <time>2017-06-22T15:02:54Z</time>
      </trkpt>
      <trkpt lat="46.83324" lon="6.40837">
        <ele>1107</ele>
        <time>2017-06-22T15:02:59Z</time>
      </trkpt>
      <trkpt lat="46.8334" lon="6.40765">
        <ele>1095</ele>
        <time>2017-06-22T15:03:03Z</time>
      </trkpt>
      <trkpt lat="46.83355" lon="6.40703">
        <ele>1094</ele>
        <time>2017-06-22T15:03:08Z</time>
      </trkpt>
      <trkpt lat="46.83367" lon="6.40637">
        <ele>1093</ele>
        <time>2017-06-22T15:03:13Z</time>
      </trkpt>
      <trkpt lat="46.83378" lon="6.40587">
        <ele>1091</ele>
        <time>2017-06-22T15:03:17Z</time>
      </trkpt>
      <trkpt lat="46.83389" lon="6.40542">
        <ele>1090</ele>
        <time>2017-06-22T15:03:21Z</time>
      </trkpt>
      <trkpt lat="46.83403" lon="6.40487">
        <ele>1089</ele>
        <time>2017-06-22T15:03:26Z</time>
      </trkpt>
      <trkpt lat="46.83415" lon="6.40444">
        <ele>1087</ele>
        <time>2017-06-22T15:03:30Z</time>
      </trkpt>
      <trkpt lat="46.83428" lon="6.404">
        <ele>1085</ele>
        <time>2017-06-22T15:03:34Z</time>
      </trkpt>
      <trkpt lat="46.83441" lon="6.40354">
        <ele>1086</ele>
        <time>2017-06-22T15:03:38Z</time>
      </trkpt>
      <trkpt lat="46.83457" lon="6.40295">
        <ele>1085</ele>
        <time>2017-06-22T15:03:43Z</time>
      </trkpt>
      <trkpt lat="46.83468" lon="6.40248">
        <ele>1086</ele>
        <time>2017-06-22T15:03:47Z</time>
      </trkpt>
      <trkpt lat="46.83483" lon="6.4019">
        <ele>1086</ele>
        <time>2017-06-22T15:03:52Z</time>
      </trkpt>
      <trkpt lat="46.83494" lon="6.40141">
        <ele>1087</ele>
        <time>2017-06-22T15:03:56Z</time>
      </trkpt>
      <trkpt lat="46.83507" lon="6.40098">
        <ele>1087</ele>
        <time>2017-06-22T15:04:00Z</time>
      </trkpt>
      <trkpt lat="46.83522" lon="6.40043">
        <ele>1089</ele>
        <time>2017-06-22T15:04:05Z</time>
      </trkpt>
      <trkpt lat="46.8354" lon="6.40004">
        <ele>1087</ele>
        <time>2017-06-22T15:04:09Z</time>
      </trkpt>
      <trkpt lat="46.83559" lon="6.39964">
        <ele>1087</ele>
        <time>2017-06-22T15:04:13Z</time>
      </trkpt>
      <trkpt lat="46.83584" lon="6.39918">
        <ele>1085</ele>
        <time>2017-06-22T15:04:18Z</time>
      </trkpt>
      <trkpt lat="46.83609" lon="6.39873">
        <ele>1083</ele>
        <time>2017-06-22T15:04:23Z</time>
      </trkpt>
      <trkpt lat="46.8363" lon="6.3984">
        <ele>1081</ele>
        <time>2017-06-22T15:04:27Z</time>
      </trkpt>
      <trkpt lat="46.83655" lon="6.3981">
        <ele>1080</ele>
        <time>2017-06-22T15:04:31Z</time>
      </trkpt>
      <trkpt lat="46.83688" lon="6.39776">
        <ele>1081</ele>
        <time>2017-06-22T15:04:36Z</time>
      </trkpt>
      <trkpt lat="46.83721" lon="6.39742">
        <ele>1082</ele>
        <time>2017-06-22T15:04:41Z</time>
      </trkpt>
      <trkpt lat="46.83749" lon="6.39719">
        <ele>1082</ele>
        <time>2017-06-22T15:04:45Z</time>
      </trkpt>
      <trkpt lat="46.83774" lon="6.39695">
        <ele>1082</ele>
        <time>2017-06-22T15:04:49Z</time>
      </trkpt>
      <trkpt lat="46.83802" lon="6.39674">
        <ele>1082</ele>
        <time>2017-06-22T15:04:53Z</time>
      </trkpt>
      <trkpt lat="46.83836" lon="6.39651">
        <ele>1081</ele>
        <time>2017-06-22T15:04:58Z</time>
      </trkpt>
      <trkpt lat="46.83871" lon="6.39629">
        <ele>1081</ele>
        <time>2017-06-22T15:05:03Z</time>
      </trkpt>
      <trkpt lat="46.83901" lon="6.39612">
        <ele>1080</ele>
        <time>2017-06-22T15:05:07Z</time>
      </trkpt>
      <trkpt lat="46.83928" lon="6.39593">
        <ele>1080</ele>
        <time>2017-06-22T15:05:11Z</time>
      </trkpt>
      <trkpt lat="46.83962" lon="6.39574">
        <ele>1079</ele>
        <time>2017-06-22T15:05:16Z</time>
      </trkpt>
      <trkpt lat="46.83992" lon="6.3955">
        <ele>1078</ele>
        <time>2017-06-22T15:05:21Z</time>
      </trkpt>
      <trkpt lat="46.84026" lon="6.39532">
        <ele>1078</ele>
        <time>2017-06-22T15:05:26Z</time>
      </trkpt>
      <trkpt lat="46.84054" lon="6.39521">
        <ele>1077</ele>
        <time>2017-06-22T15:05:30Z</time>
      </trkpt>
      <trkpt lat="46.8408" lon="6.39511">
        <ele>1077</ele>
        <time>2017-06-22T15:05:34Z</time>
      </trkpt>
      <trkpt lat="46.84111" lon="6.39499">
        <ele>1078</ele>
        <time>2017-06-22T15:05:39Z</time>
      </trkpt>
      <trkpt lat="46.84132" lon="6.39485">
        <ele>1080</ele>
        <time>2017-06-22T15:05:43Z</time>
      </trkpt>
      <trkpt lat="46.84156" lon="6.39472">
        <ele>1080</ele>
        <time>2017-06-22T15:05:47Z</time>
      </trkpt>
      <trkpt lat="46.84183" lon="6.39445">
        <ele>1081</ele>
        <time>2017-06-22T15:05:52Z</time>
      </trkpt>
      <trkpt lat="46.84205" lon="6.39408">
        <ele>1082</ele>
        <time>2017-06-22T15:05:57Z</time>
      </trkpt>
      <trkpt lat="46.84214" lon="6.39369">
        <ele>1082</ele>
        <time>2017-06-22T15:06:01Z</time>
      </trkpt>
      <trkpt lat="46.84222" lon="6.39331">
        <ele>1078</ele>
        <time>2017-06-22T15:06:05Z</time>
      </trkpt>
      <trkpt lat="46.8423" lon="6.39274">
        <ele>1075</ele>
        <time>2017-06-22T15:06:10Z</time>
      </trkpt>
      <trkpt lat="46.84234" lon="6.39225">
        <ele>1073</ele>
        <time>2017-06-22T15:06:14Z</time>
      </trkpt>
      <trkpt lat="46.84242" lon="6.39176">
        <ele>1072</ele>
        <time>2017-06-22T15:06:19Z</time>
      </trkpt>
      <trkpt lat="46.84254" lon="6.39114">
        <ele>1071</ele>
        <time>2017-06-22T15:06:23Z</time>
      </trkpt>
      <trkpt lat="46.8427" lon="6.39061">
        <ele>1071</ele>
        <time>2017-06-22T15:06:28Z</time>
      </trkpt>
      <trkpt lat="46.84287" lon="6.3901">
        <ele>1058</ele>
        <time>2017-06-22T15:06:33Z</time>
      </trkpt>
      <trkpt lat="46.84308" lon="6.38958">
        <ele>1067</ele>
        <time>2017-06-22T15:06:38Z</time>
      </trkpt>
      <trkpt lat="46.84328" lon="6.38919">
        <ele>1069</ele>
        <time>2017-06-22T15:06:42Z</time>
      </trkpt>
      <trkpt lat="46.84352" lon="6.38879">
        <ele>1068</ele>
        <time>2017-06-22T15:06:46Z</time>
      </trkpt>
      <trkpt lat="46.84377" lon="6.38839">
        <ele>1068</ele>
        <time>2017-06-22T15:06:50Z</time>
      </trkpt>
      <trkpt lat="46.84403" lon="6.38798">
        <ele>1067</ele>
        <time>2017-06-22T15:06:54Z</time>
      </trkpt>
      <trkpt lat="46.84447" lon="6.38755">
        <ele>1064</ele>
        <time>2017-06-22T15:06:59Z</time>
      </trkpt>
      <trkpt lat="46.84493" lon="6.38705">
        <ele>1061</ele>
        <time>2017-06-22T15:07:04Z</time>
      </trkpt>
      <trkpt lat="46.84526" lon="6.38655">
        <ele>1059</ele>
        <time>2017-06-22T15:07:08Z</time>
      </trkpt>
      <trkpt lat="46.84558" lon="6.38583">
        <ele>1056</ele>
        <time>2017-06-22T15:07:13Z</time>
      </trkpt>
      <trkpt lat="46.84579" lon="6.3852">
        <ele>1053</ele>
        <time>2017-06-22T15:07:17Z</time>
      </trkpt>
      <trkpt lat="46.84589" lon="6.38431">
        <ele>1051</ele>
        <time>2017-06-22T15:07:22Z</time>
      </trkpt>
      <trkpt lat="46.84579" lon="6.38341">
        <ele>1047</ele>
        <time>2017-06-22T15:07:27Z</time>
      </trkpt>
      <trkpt lat="46.8457" lon="6.38265">
        <ele>1042</ele>
        <time>2017-06-22T15:07:31Z</time>
      </trkpt>
      <trkpt lat="46.84576" lon="6.3817">
        <ele>1039</ele>
        <time>2017-06-22T15:07:36Z</time>
      </trkpt>
      <trkpt lat="46.84599" lon="6.38103">
        <ele>1037</ele>
        <time>2017-06-22T15:07:40Z</time>
      </trkpt>
      <trkpt lat="46.84633" lon="6.38052">
        <ele>1036</ele>
        <time>2017-06-22T15:07:44Z</time>
      </trkpt>
      <trkpt lat="46.84687" lon="6.37999">
        <ele>1030</ele>
        <time>2017-06-22T15:07:49Z</time>
      </trkpt>
      <trkpt lat="46.8474" lon="6.37987">
        <ele>1026</ele>
        <time>2017-06-22T15:07:53Z</time>
      </trkpt>
      <trkpt lat="46.84809" lon="6.37983">
        <ele>1021</ele>
        <time>2017-06-22T15:07:58Z</time>
      </trkpt>
      <trkpt lat="46.84877" lon="6.37973">
        <ele>1020</ele>
        <time>2017-06-22T15:08:03Z</time>
      </trkpt>
      <trkpt lat="46.84934" lon="6.37972">
        <ele>1015</ele>
        <time>2017-06-22T15:08:07Z</time>
      </trkpt>
      <trkpt lat="46.85002" lon="6.37943">
        <ele>1010</ele>
        <time>2017-06-22T15:08:12Z</time>
      </trkpt>
      <trkpt lat="46.85051" lon="6.37896">
        <ele>1006</ele>
        <time>2017-06-22T15:08:16Z</time>
      </trkpt>
      <trkpt lat="46.85102" lon="6.37852">
        <ele>1003</ele>
        <time>2017-06-22T15:08:20Z</time>
      </trkpt>
      <trkpt lat="46.85173" lon="6.37855">
        <ele>998</ele>
        <time>2017-06-22T15:08:25Z</time>
      </trkpt>
      <trkpt lat="46.85226" lon="6.37824">
        <ele>997</ele>
        <time>2017-06-22T15:08:29Z</time>
      </trkpt>
      <trkpt lat="46.85278" lon="6.37792">
        <ele>994</ele>
        <time>2017-06-22T15:08:33Z</time>
      </trkpt>
      <trkpt lat="46.8534" lon="6.37753">
        <ele>986</ele>
        <time>2017-06-22T15:08:38Z</time>
      </trkpt>
      <trkpt lat="46.85386" lon="6.37712">
        <ele>982</ele>
        <time>2017-06-22T15:08:42Z</time>
      </trkpt>
      <trkpt lat="46.85435" lon="6.37676">
        <ele>977</ele>
        <time>2017-06-22T15:08:46Z</time>
      </trkpt>
      <trkpt lat="46.85499" lon="6.3764">
        <ele>974</ele>
        <time>2017-06-22T15:08:51Z</time>
      </trkpt>
      <trkpt lat="46.8555" lon="6.3762">
        <ele>970</ele>
        <time>2017-06-22T15:08:55Z</time>
      </trkpt>
      <trkpt lat="46.85611" lon="6.37585">
        <ele>967</ele>
        <time>2017-06-22T15:09:00Z</time>
      </trkpt>
      <trkpt lat="46.85659" lon="6.37579">
        <ele>968</ele>
        <time>2017-06-22T15:09:04Z</time>
      </trkpt>
      <trkpt lat="46.85716" lon="6.3759">
        <ele>967</ele>
        <time>2017-06-22T15:09:09Z</time>
      </trkpt>
      <trkpt lat="46.85762" lon="6.37614">
        <ele>982</ele>
        <time>2017-06-22T15:09:13Z</time>
      </trkpt>
      <trkpt lat="46.8579" lon="6.37668">
        <ele>967</ele>
        <time>2017-06-22T15:09:17Z</time>
      </trkpt>
      <trkpt lat="46.85794" lon="6.37733">
        <ele>960</ele>
        <time>2017-06-22T15:09:21Z</time>
      </trkpt>
      <trkpt lat="46.8579" lon="6.37812">
        <ele>958</ele>
        <time>2017-06-22T15:09:26Z</time>
      </trkpt>
      <trkpt lat="46.85791" lon="6.37863">
        <ele>954</ele>
        <time>2017-06-22T15:09:30Z</time>
      </trkpt>
      <trkpt lat="46.8582" lon="6.37912">
        <ele>953</ele>
        <time>2017-06-22T15:09:35Z</time>
      </trkpt>
      <trkpt lat="46.85851" lon="6.37934">
        <ele>948</ele>
        <time>2017-06-22T15:09:39Z</time>
      </trkpt>
      <trkpt lat="46.85889" lon="6.37945">
        <ele>946</ele>
        <time>2017-06-22T15:09:43Z</time>
      </trkpt>
      <trkpt lat="46.85938" lon="6.37988">
        <ele>938</ele>
        <time>2017-06-22T15:09:48Z</time>
      </trkpt>
      <trkpt lat="46.85969" lon="6.38034">
        <ele>933</ele>
        <time>2017-06-22T15:09:52Z</time>
      </trkpt>
      <trkpt lat="46.85998" lon="6.38075">
        <ele>931</ele>
        <time>2017-06-22T15:09:56Z</time>
      </trkpt>
      <trkpt lat="46.86046" lon="6.38094">
        <ele>930</ele>
        <time>2017-06-22T15:10:01Z</time>
      </trkpt>
      <trkpt lat="46.86088" lon="6.38074">
        <ele>923</ele>
        <time>2017-06-22T15:10:05Z</time>
      </trkpt>
      <trkpt lat="46.86136" lon="6.38071">
        <ele>920</ele>
        <time>2017-06-22T15:10:09Z</time>
      </trkpt>
      <trkpt lat="46.86184" lon="6.38076">
        <ele>917</ele>
        <time>2017-06-22T15:10:13Z</time>
      </trkpt>
      <trkpt lat="46.86228" lon="6.38057">
        <ele>913</ele>
        <time>2017-06-22T15:10:17Z</time>
      </trkpt>
      <trkpt lat="46.8626" lon="6.38001">
        <ele>910</ele>
        <time>2017-06-22T15:10:21Z</time>
      </trkpt>
      <trkpt lat="46.86265" lon="6.3793">
        <ele>907</ele>
        <time>2017-06-22T15:10:25Z</time>
      </trkpt>
      <trkpt lat="46.86225" lon="6.37887">
        <ele>903</ele>
        <time>2017-06-22T15:10:29Z</time>
      </trkpt>
      <trkpt lat="46.86187" lon="6.37848">
        <ele>902</ele>
        <time>2017-06-22T15:10:33Z</time>
      </trkpt>
      <trkpt lat="46.86151" lon="6.37807">
        <ele>900</ele>
        <time>2017-06-22T15:10:37Z</time>
      </trkpt>
      <trkpt lat="46.86109" lon="6.37764">
        <ele>898</ele>
        <time>2017-06-22T15:10:42Z</time>
      </trkpt>
      <trkpt lat="46.86084" lon="6.37736">
        <ele>897</ele>
        <time>2017-06-22T15:10:45Z</time>
      </trkpt>
      <trkpt lat="46.86039" lon="6.37697">
        <ele>895</ele>
        <time>2017-06-22T15:10:50Z</time>
      </trkpt>
      <trkpt lat="46.85993" lon="6.37661">
        <ele>891</ele>
        <time>2017-06-22T15:10:55Z</time>
      </trkpt>
      <trkpt lat="46.85964" lon="6.37606">
        <ele>889</ele>
        <time>2017-06-22T15:11:00Z</time>
      </trkpt>
      <trkpt lat="46.8595" lon="6.37543">
        <ele>889</ele>
        <time>2017-06-22T15:11:05Z</time>
      </trkpt>
      <trkpt lat="46.8593" lon="6.37499">
        <ele>884</ele>
        <time>2017-06-22T15:11:09Z</time>
      </trkpt>
      <trkpt lat="46.85908" lon="6.37459">
        <ele>883</ele>
        <time>2017-06-22T15:11:13Z</time>
      </trkpt>
      <trkpt lat="46.8589" lon="6.37397">
        <ele>880</ele>
        <time>2017-06-22T15:11:18Z</time>
      </trkpt>
    </trkseg>
  </trk>
</gpx>